GFSSE_sfc_30mbdewp_000.txt.gz
Dewpoint
63 69 70 70 69 69 69 67 66 63 62 59 59 61 63 63 60 59 60 60 56 56 58 60 61 63 64 64 64 63 63 62 60 60 60 61 61 61 62 62 59 60 60
64 68 70 70 69 69 68 67 64 63 62 60 57 60 58 58 58 57 59 59 57 56 58 59 60 60 62 62 62 60 60 59 59 60 61 61 59 59 59 59 58 60 64
61 66 69 70 69 69 68 66 64 63 61 61 58 57 56 58 58 59 59 59 56 57 58 58 57 59 59 61 61 61 60 58 58 59 60 60 56 59 59 60 59 59 62
61 65 67 71 70 69 68 66 65 64 62 60 59 60 61 60 60 60 58 57 59 59 59 58 57 57 58 60 60 60 60 60 59 59 59 55 54 60 59 59 58 58 60
57 64 69 70 70 69 67 66 65 64 63 61 60 59 62 62 63 61 60 58 59 59 58 59 58 57 58 58 58 59 59 60 61 60 59 54 55 56 60 59 58 59 58
56 68 70 70 70 69 68 67 66 65 64 63 61 61 61 63 64 64 62 61 60 60 60 59 59 59 60 59 58 57 58 60 61 58 55 56 52 54 57 59 59 59 59
58 69 71 70 70 70 69 68 66 65 64 63 62 61 61 64 65 65 64 62 61 60 60 59 57 58 60 61 60 60 60 60 59 56 54 54 55 53 54 57 59 59 59
59 64 69 70 69 70 69 68 67 66 65 64 61 60 61 63 64 65 65 63 62 61 61 61 59 59 60 61 62 62 62 61 59 56 54 54 55 56 55 55 58 58 59
59 61 64 68 69 70 69 69 67 66 66 65 63 61 64 64 63 64 64 63 63 62 62 63 61 60 59 60 60 62 63 62 61 58 56 54 56 56 57 57 56 57 58
59 60 62 64 66 68 67 68 67 67 67 65 64 64 64 63 63 62 62 63 63 63 62 60 61 61 61 60 61 62 63 63 62 59 57 55 56 55 55 57 57 57 57
59 60 60 61 64 64 64 66 67 66 66 65 64 63 63 60 58 61 61 61 62 62 62 62 62 62 62 63 62 61 61 62 59 57 56 55 57 53 54 55 57 58 57
58 59 60 61 62 62 62 65 65 64 64 64 63 63 62 58 58 58 58 59 61 62 63 63 63 63 63 62 60 59 62 60 59 57 56 56 57 56 56 56 56 57 58
55 58 60 61 62 62 62 63 62 62 62 61 60 58 58 57 58 59 60 60 61 62 62 61 63 63 62 60 58 58 57 58 57 56 57 57 59 57 58 58 59 59 59
51 56 59 61 62 62 63 63 62 60 60 59 59 58 58 59 59 59 59 60 60 61 60 60 60 60 60 59 59 58 58 58 58 58 58 58 59 60 59 59 60 61 60
50 52 56 59 62 63 63 63 62 61 60 60 60 60 60 60 60 61 61 61 61 61 60 59 59 59 58 58 58 57 57 58 58 58 59 59 60 61 62 60 60 60 60
50 52 53 56 60 62 63 63 62 61 60 60 60 60 61 61 61 61 61 60 60 60 59 58 57 56 55 55 54 54 55 55 55 55 56 57 58 60 61 62 61 61 61
47 48 49 52 56 60 61 62 61 61 60 60 60 59 60 60 60 60 59 57 56 55 53 49 48 47 48 49 50 52 53 54 54 54 54 54 55 57 59 61 62 61 61
47 50 51 50 53 58 60 61 60 59 59 58 59 59 57 57 57 49 46 42 43 44 44 43 42 42 43 43 43 43 44 42 44 49 49 50 53 54 57 59 58 58 59
48 51 53 52 54 58 59 58 57 57 54 48 45 43 42 41 42 42 41 40 40 42 42 40 39 41 39 40 39 36 39 42 39 41 43 40 39 42 44 47 51 55 57
50 53 54 56 57 58 56 56 48 45 44 43 40 39 38 37 37 38 38 38 37 38 38 34 33 33 34 36 32 36 34 35 37 38 36 35 38 38 40 42 42 50 51
52 53 55 55 56 56 55 48 46 44 42 40 38 35 34 32 34 33 33 33 32 34 32 30 30 30 31 32 33 30 32 33 34 32 32 37 32 35 34 36 41 37 39
51 53 54 53 51 50 49 48 46 43 42 39 37 35 29 26 26 26 27 27 27 30 28 28 28 30 31 31 29 28 28 25 29 31 34 29 31 30 30 32 26 25 32
47 47 47 48 48 48 47 45 43 43 40 38 38 34 29 23 22 23 24 25 25 27 27 27 27 28 30 30 28 25 25 26 25 30 28 29 24 28 24 26 26 26 25
46 46 46 46 46 46 45 44 39 36 36 36 34 33 28 23 21 21 22 24 24 26 24 25 26 26 29 28 27 25 26 25 24 23 27 24 23 23 24 27 25 28 25
45 43 42 40 39 39 38 37 37 36 35 33 30 26 24 22 20 20 21 22 22 23 23 22 22 24 27 27 26 25 24 23 22 21 22 21 22 22 27 26 26 25 23
44 42 40 39 39 38 37 37 36 35 32 28 25 22 20 21 21 19 19 19 19 20 20 21 20 22 22 24 24 22 22 20 20 21 21 19 21 21 24 22 24 18 20

GFSSE_sfc_30mbdewp_003.txt.gz
Dewpoint
66 71 72 70 70 70 70 68 65 64 62 60 61 63 66 63 61 60 61 59 57 58 56 60 62 64 65 65 65 63 64 62 61 60 61 61 60 60 62 62 59 61 61
68 71 71 70 70 70 69 68 65 64 62 59 59 59 59 59 59 58 60 58 56 57 57 57 59 60 61 63 63 62 61 60 59 59 60 62 61 60 60 59 60 60 64
69 71 71 71 70 70 69 67 65 64 62 59 58 58 58 58 59 60 60 58 56 59 58 58 57 58 59 61 62 62 61 60 59 60 60 60 60 59 59 61 60 60 62
68 70 70 71 71 70 69 67 65 64 62 60 59 59 57 60 59 58 59 58 60 59 59 59 58 57 58 60 60 61 61 61 60 60 60 60 56 59 60 59 59 59 60
66 68 70 71 71 70 68 67 66 65 63 62 59 60 62 63 65 63 61 57 60 60 59 59 59 59 58 58 58 59 59 61 62 60 60 59 55 57 61 60 59 59 60
66 68 71 71 72 70 68 67 66 65 64 63 62 62 62 64 66 66 64 62 61 61 60 59 59 60 60 60 60 59 58 59 62 61 58 56 56 54 55 59 60 59 60
68 70 71 72 71 70 69 68 67 66 65 64 63 62 62 64 65 66 64 63 62 61 60 60 59 58 60 61 63 61 61 61 61 59 56 55 56 58 56 56 59 60 60
69 70 71 71 71 71 70 69 68 67 65 64 62 62 62 63 64 66 66 64 62 61 61 62 61 61 59 61 62 63 63 63 61 59 57 56 55 56 59 58 57 58 59
68 70 70 70 70 70 70 69 68 67 67 65 63 62 65 64 63 64 66 64 63 63 62 63 63 61 61 60 60 62 63 64 62 60 59 57 57 58 58 58 58 58 57
64 66 69 69 70 70 70 69 68 67 67 66 65 65 64 64 63 63 64 64 64 64 63 62 61 61 62 62 62 62 63 64 63 62 61 59 60 59 58 57 57 58 59
60 63 65 68 68 69 67 68 68 67 67 66 65 64 64 62 60 61 63 63 63 63 63 62 63 63 63 63 63 63 62 62 61 61 60 60 60 60 58 57 57 57 58
59 60 62 65 67 67 66 67 66 66 66 65 64 64 63 62 60 61 60 61 61 62 63 64 64 64 64 63 62 61 60 61 61 60 59 60 60 59 59 60 61 59 58
59 60 61 62 65 64 65 65 64 64 64 64 63 63 62 59 59 59 60 61 60 61 62 62 61 62 62 62 61 60 59 59 60 60 59 59 60 60 60 61 62 62 62
57 60 61 62 63 64 63 64 63 63 62 60 61 60 59 60 60 60 60 60 61 62 62 62 61 60 60 60 60 60 59 60 59 60 60 60 61 62 62 62 62 62 63
55 59 60 62 63 64 64 64 64 61 61 60 61 60 60 61 61 62 62 62 61 61 61 60 59 56 55 56 55 54 54 55 57 58 58 58 60 61 61 60 60 61 61
53 58 60 61 64 64 64 64 63 62 61 61 61 61 61 61 61 62 61 58 57 55 54 49 47 46 47 48 47 47 50 53 52 52 53 54 57 58 59 60 61 59 59
50 53 56 61 64 64 64 63 63 61 60 60 59 60 61 61 60 57 45 42 45 47 44 43 41 43 41 42 42 46 44 42 45 44 46 52 54 55 54 57 60 59 57
51 52 52 59 63 63 63 62 61 60 59 57 50 43 42 44 44 43 40 40 41 44 41 39 39 36 36 39 39 36 38 40 39 40 45 41 42 44 47 49 51 52 57
52 53 52 57 61 61 60 57 51 45 43 43 41 39 38 38 39 39 39 37 37 39 36 34 32 32 34 33 32 34 33 34 38 40 39 35 40 39 41 41 45 48 48
52 54 54 58 59 56 46 44 43 41 41 38 36 35 35 34 33 34 33 32 34 33 31 30 28 30 33 31 32 30 30 36 35 31 31 35 35 36 36 38 40 34 33
53 56 57 57 55 49 45 43 41 39 37 36 33 31 29 29 29 28 29 28 31 29 28 29 28 29 30 31 31 25 32 33 30 25 27 34 31 27 34 27 27 27 28
54 55 55 54 53 48 46 45 42 39 38 36 33 27 24 23 25 26 26 26 28 27 26 27 28 29 32 31 29 27 24 25 27 25 28 26 28 27 26 25 27 28 24
50 49 49 48 47 46 44 42 41 40 39 36 33 28 23 21 22 24 25 25 26 27 25 25 26 27 28 29 30 26 23 23 23 27 18 25 19 27 23 27 27 23 28
47 47 47 46 45 44 42 41 38 37 36 36 35 29 24 21 21 23 24 24 24 25 22 23 23 25 24 24 27 27 26 25 22 20 24 20 26 22 25 26 24 26 18
44 43 43 43 42 42 41 38 37 36 36 35 30 26 22 21 20 21 21 22 21 22 21 20 20 20 22 22 25 25 24 23 23 21 19 19 22 22 25 24 25 19 21
41 39 39 38 38 38 38 37 36 33 30 27 23 22 22 22 20 19 18 18 18 19 19 19 18 17 17 19 21 22 21 19 18 22 17 18 21 20 22 22 20 20 18

GFSSE_sfc_30mbdewp_006.txt.gz
Dewpoint
66 70 72 71 71 70 69 67 65 64 61 62 62 64 64 63 62 62 62 59 58 57 57 59 62 63 65 66 65 64 64 61 60 59 60 61 60 59 60 61 60 60 62
67 71 72 71 71 70 69 67 65 63 60 60 60 61 62 60 59 60 59 58 57 57 57 58 59 61 61 63 63 62 62 60 59 59 60 60 62 60 60 59 60 59 63
69 71 71 71 70 70 69 67 65 63 60 58 57 58 59 57 60 60 59 57 59 58 58 58 57 58 59 61 62 62 61 60 60 60 60 60 59 60 60 60 60 60 60
70 71 71 71 71 70 68 66 65 63 62 59 59 56 58 58 56 55 58 58 59 59 59 58 58 56 57 59 60 60 60 61 60 60 60 60 59 58 60 60 61 59 59
69 70 71 72 71 70 68 66 65 64 62 60 60 60 62 63 62 61 59 57 60 60 59 59 59 59 59 58 58 57 59 60 62 61 59 59 58 56 60 60 60 60 59
67 69 71 72 71 71 69 67 66 65 63 62 60 61 63 65 65 65 63 62 61 61 60 59 59 59 60 61 61 61 60 59 61 62 60 58 58 57 55 59 60 60 59
66 68 71 71 72 70 68 67 66 65 65 63 62 61 63 64 65 65 64 64 62 61 61 60 60 60 59 60 62 63 62 62 61 60 59 57 55 58 58 58 57 59 60
67 69 71 72 71 70 69 68 67 66 65 63 62 62 63 63 64 66 65 64 63 62 61 62 62 62 61 60 60 61 63 64 63 61 59 57 57 58 58 58 59 58 58
69 70 71 71 71 70 70 69 68 67 66 64 62 61 63 64 63 64 66 65 64 63 62 63 62 61 61 62 62 61 63 64 63 62 61 59 59 60 59 59 59 59 60
69 69 70 70 70 69 70 69 68 67 67 66 64 64 65 64 62 63 65 64 64 63 64 62 61 61 62 62 62 63 63 63 62 62 62 61 61 62 62 61 60 59 59
67 68 69 69 69 69 68 69 68 67 67 66 65 64 63 62 60 61 63 63 64 63 63 63 63 63 64 64 63 63 63 62 61 61 61 60 61 62 62 61 60 60 59
61 64 67 67 67 68 68 67 67 66 66 65 64 63 63 62 60 59 61 62 62 62 63 64 64 65 64 64 63 62 61 60 60 60 60 60 62 62 62 62 63 62 62
59 61 64 66 66 67 65 66 66 65 65 65 64 63 63 60 59 60 60 60 60 60 61 62 61 61 61 62 61 61 60 59 59 60 60 61 62 62 62 62 62 62 62
58 60 62 64 65 66 65 65 64 64 64 63 63 63 62 59 60 60 60 61 61 62 62 61 59 55 52 52 53 52 51 54 57 59 59 60 60 57 59 56 59 61 62
54 60 61 63 64 64 64 64 62 62 62 60 61 60 60 61 61 62 61 60 57 57 53 47 46 46 44 44 44 45 46 47 48 50 50 50 53 56 57 55 57 58 59
53 59 61 62 63 64 63 63 63 61 61 61 61 61 61 61 61 57 45 46 48 46 44 42 41 39 39 40 39 40 40 41 42 41 44 45 48 50 50 47 48 54 57
53 59 60 63 64 64 64 63 62 61 61 60 60 57 58 56 47 43 41 41 43 41 39 36 34 33 36 35 35 36 36 34 37 39 43 39 42 42 43 43 49 40 43
52 57 60 63 64 64 63 62 61 60 57 48 43 42 42 42 41 39 37 38 39 35 33 32 31 30 32 31 31 32 30 34 37 36 34 34 39 39 37 44 35 34 33
52 53 56 63 63 63 61 56 50 45 42 40 38 38 37 37 37 34 33 35 34 31 29 30 27 30 31 29 30 31 27 33 36 26 28 32 35 33 33 35 33 32 33
52 53 57 62 60 52 47 44 41 39 37 36 35 34 32 31 31 30 29 31 30 28 28 28 26 28 31 30 32 26 26 35 29 18 25 28 29 25 32 24 28 25 33
54 54 59 57 48 46 44 41 38 36 34 32 30 29 27 27 27 27 27 28 29 27 27 28 27 27 29 31 29 25 29 29 22 17 26 18 25 18 27 21 27 25 25
55 56 56 51 47 46 44 42 38 36 35 31 26 24 24 25 26 26 26 27 27 25 23 26 26 25 29 30 26 28 22 24 23 19 22 23 18 24 24 22 26 27 25
54 54 54 49 48 46 43 40 39 37 35 30 26 23 22 23 24 25 25 25 25 24 22 23 23 23 21 26 26 23 21 22 21 24 19 21 18 24 21 26 24 25 22
51 51 50 48 46 43 41 38 35 34 32 34 29 24 21 21 22 23 23 22 22 22 20 20 21 21 21 18 24 26 25 24 19 17 22 18 22 18 23 24 25 24 19
48 48 47 46 44 42 41 38 37 36 36 34 26 21 20 20 20 20 20 20 20 20 19 18 18 16 19 18 20 21 20 21 21 19 15 17 17 18 22 23 24 21 20
44 44 44 43 42 41 39 37 37 34 31 28 24 22 21 20 19 18 17 17 17 17 17 17 16 15 15 16 17 17 18 17 15 15 15 17 15 16 19 19 21 18 21

GFSSE_sfc_30mbdewp_009.txt.gz
Dewpoint
64 68 71 70 71 70 69 66 65 63 62 62 62 63 65 65 64 63 61 59 58 57 57 59 61 63 65 66 65 65 64 62 59 59 59 59 61 60 59 59 60 59 62
65 69 72 71 71 70 69 67 65 62 62 61 61 63 64 62 60 60 59 58 57 58 56 57 59 60 62 63 63 63 63 62 60 59 60 60 61 61 60 61 60 58 62
67 71 72 72 71 70 68 67 65 62 60 59 59 61 60 57 60 60 59 58 58 58 58 57 57 58 60 61 62 62 61 61 60 60 60 60 59 60 60 61 60 60 60
69 71 71 72 71 70 68 67 65 62 60 58 57 58 58 58 58 58 57 58 57 59 59 58 58 57 57 58 59 60 60 60 61 61 60 59 59 59 60 60 61 61 59
69 71 70 72 71 70 68 67 65 64 61 59 59 60 61 59 57 57 58 58 59 60 60 59 59 59 60 60 59 58 57 57 61 63 60 59 59 58 58 59 61 60 61
69 70 71 72 71 70 69 67 65 64 62 60 60 61 62 64 64 63 61 62 61 61 60 59 59 59 59 60 61 62 61 61 62 62 61 59 59 58 59 57 57 61 59
67 69 71 72 72 71 69 67 66 64 63 62 60 61 63 64 65 64 65 64 62 62 61 60 60 61 61 60 61 61 63 63 63 61 60 59 57 58 58 59 58 58 58
66 68 71 72 72 71 69 68 67 65 65 63 62 61 63 63 64 66 65 64 63 62 61 61 62 62 62 61 61 60 62 63 63 62 61 60 59 60 59 59 59 59 60
66 68 70 71 72 70 69 69 68 66 66 64 63 62 63 64 62 64 66 65 64 63 62 62 63 61 61 61 62 63 63 63 63 62 62 61 61 62 62 62 61 60 60
68 69 70 71 70 70 70 69 68 66 65 65 63 63 64 64 62 63 66 65 64 63 63 63 62 62 63 63 63 64 64 63 62 61 61 61 62 63 63 63 63 62 61
68 69 70 70 70 69 69 69 68 68 66 65 64 64 63 62 60 61 62 62 63 64 63 63 64 64 64 64 64 64 63 62 61 60 60 61 62 63 63 63 63 63 63
66 67 69 69 68 68 68 68 67 67 67 66 64 63 63 61 59 59 60 62 63 63 63 64 64 64 62 62 62 62 61 60 59 59 60 61 62 62 60 61 62 62 62
63 65 67 68 67 67 67 67 67 65 66 65 64 62 63 61 59 60 60 60 60 60 61 62 61 59 55 54 53 52 51 53 54 56 58 59 56 55 55 58 58 58 60
58 62 64 66 66 66 66 65 65 64 64 63 63 62 62 60 59 59 60 62 61 61 60 53 48 45 42 43 43 43 43 45 46 46 49 51 54 53 54 54 55 57 59
53 59 62 64 65 65 65 65 64 63 63 63 62 62 61 60 61 61 57 51 48 47 44 41 40 37 37 36 36 38 38 38 38 42 44 46 49 46 46 49 53 50 50
39 55 61 63 65 65 64 64 63 62 62 60 60 60 61 61 56 44 45 45 43 41 39 35 33 35 32 33 31 34 34 31 38 38 40 39 44 40 46 46 43 42 42
45 54 60 62 64 64 63 63 62 61 61 61 59 59 56 47 42 42 41 40 38 35 33 29 29 32 29 29 28 31 31 32 36 29 33 35 38 35 41 36 37 36 39
50 56 61 63 64 63 63 62 60 59 52 47 45 44 42 41 39 37 37 35 32 30 29 27 28 29 28 27 27 30 28 32 27 21 28 29 35 28 34 30 33 31 37
52 58 61 63 63 63 62 55 50 45 43 40 40 39 38 36 33 32 33 32 29 28 28 26 25 29 28 25 27 28 27 33 25 18 26 23 27 23 30 25 32 30 31
53 56 62 63 62 56 48 45 42 40 37 37 35 34 32 31 29 29 30 28 27 26 26 25 24 26 31 26 29 24 27 35 23 19 25 21 20 21 28 22 27 26 28
52 55 61 60 53 49 46 42 39 37 33 31 29 27 27 27 26 26 28 27 26 24 26 25 25 24 27 28 27 24 27 28 24 19 24 22 20 21 23 22 25 25 25
53 55 58 53 49 47 45 42 38 34 31 27 25 24 25 26 25 25 26 25 24 21 21 22 24 21 23 27 24 27 19 21 24 15 20 22 18 23 20 21 24 24 26
54 56 52 49 47 45 41 38 36 32 29 24 23 22 23 24 25 24 23 23 22 22 19 21 21 19 17 20 26 17 12 16 20 22 14 19 15 22 18 22 24 24 24
54 54 49 48 46 42 39 37 32 28 25 27 24 22 22 22 22 22 22 21 21 20 18 18 19 18 20 16 22 21 21 21 17 15 20 14 20 17 19 21 23 25 21
52 51 49 47 44 40 39 35 33 31 33 29 22 19 19 20 19 20 19 18 18 19 18 16 16 14 17 16 18 19 19 19 21 20 11 14 16 16 15 18 23 19 21
50 49 47 46 43 40 38 36 34 33 30 24 21 19 18 19 18 17 16 16 15 15 15 15 14 14 14 15 15 15 16 15 15 15 14 14 14 12 15 16 17 21 19

GFSSE_sfc_30mbdewp_012.txt.gz
Dewpoint
63 67 71 71 71 70 69 66 65 63 63 62 62 63 64 66 63 63 60 60 59 58 57 60 62 64 65 65 66 65 64 62 60 60 60 60 60 60 60 59 60 60 60
63 67 71 70 71 70 69 66 65 64 63 62 61 62 64 65 63 62 60 58 59 57 56 57 60 60 62 63 63 63 63 63 60 59 60 61 60 60 60 59 60 58 60
64 68 72 72 71 70 68 67 65 62 62 60 61 65 63 57 60 60 59 59 58 58 58 57 57 58 60 61 62 61 61 61 61 60 61 59 59 60 60 60 61 60 59
67 70 72 72 71 70 68 67 65 62 60 59 58 61 59 59 59 58 56 58 58 59 59 58 58 57 57 57 57 59 59 59 60 62 60 59 59 59 59 59 61 61 60
69 71 71 72 71 70 68 67 65 62 60 58 58 57 59 58 59 58 58 59 58 60 60 59 58 59 60 60 61 60 60 58 60 62 61 60 59 59 59 58 61 62 59
69 70 71 72 71 71 69 67 65 64 62 60 61 61 62 62 63 61 61 61 61 61 60 59 59 59 59 60 61 62 63 62 62 61 60 59 59 58 57 59 59 57 60
68 69 71 72 71 71 69 67 66 64 63 61 60 60 62 64 64 63 64 64 62 62 61 60 61 61 62 62 60 61 61 62 63 62 61 60 59 60 60 58 58 59 60
67 69 70 71 72 71 69 68 66 65 64 62 60 60 62 64 63 66 66 64 63 62 62 61 62 62 62 61 62 62 62 63 63 62 61 61 61 62 62 62 60 60 60
66 68 70 71 72 71 70 69 68 66 66 64 62 61 63 64 62 65 66 64 64 64 62 63 63 62 62 63 63 63 64 63 63 62 61 61 61 63 63 63 63 62 61
66 68 69 71 71 71 69 69 68 67 65 65 64 63 64 64 62 63 66 65 64 63 63 63 63 64 64 64 64 64 64 63 62 61 60 60 62 63 64 64 64 64 63
66 67 69 70 70 69 69 69 68 67 65 64 63 63 63 62 61 61 62 62 63 64 64 64 64 65 64 63 63 63 61 60 59 59 60 61 62 62 61 61 62 63 63
65 67 68 68 69 69 69 68 68 67 66 65 64 63 62 60 58 59 60 61 63 63 62 63 64 61 57 56 53 52 52 52 52 55 57 58 56 56 56 56 59 59 59
64 67 68 67 68 68 68 67 67 66 66 65 64 62 62 61 59 60 60 60 60 61 61 59 48 45 44 43 43 43 44 45 45 46 50 54 55 54 54 55 56 60 59
59 64 67 68 67 67 67 66 66 65 65 64 63 62 62 60 59 59 60 59 57 56 45 43 40 38 36 35 36 36 37 35 39 44 43 52 49 50 51 54 53 51 51
55 58 63 66 66 66 66 65 65 64 64 63 63 62 62 59 60 60 51 46 44 41 38 35 34 32 30 29 30 33 28 33 38 39 39 47 43 49 49 47 46 46 48
42 47 59 64 65 65 65 64 64 63 63 62 62 61 60 61 54 46 44 41 39 36 31 30 32 29 26 27 26 31 27 36 30 32 32 38 37 43 41 42 40 42 45
39 40 55 62 65 65 64 64 63 62 62 61 60 61 59 47 43 43 39 35 32 31 27 27 29 29 23 24 23 30 27 31 22 26 28 32 29 35 35 37 36 38 39
44 51 58 62 64 64 64 63 62 61 56 53 52 48 43 41 39 38 34 30 29 28 26 25 26 27 22 22 20 28 26 34 19 24 23 27 25 27 27 32 31 33 34
48 54 60 63 63 63 62 58 53 49 47 44 42 41 37 34 34 32 29 27 27 25 24 24 24 29 23 21 21 27 26 33 20 22 20 24 20 26 24 26 27 29 29
52 58 62 63 63 59 52 49 45 41 40 38 36 34 31 30 30 29 27 25 25 23 21 21 22 23 29 25 25 21 27 34 23 20 22 24 19 23 23 22 23 25 28
53 60 62 61 57 52 50 47 44 40 35 31 29 28 27 27 27 27 26 24 23 22 21 22 22 20 20 27 21 19 25 28 27 24 20 22 19 20 22 19 21 24 25
52 59 60 57 53 51 50 44 39 35 30 28 27 26 26 25 25 25 23 22 21 20 19 19 18 16 18 25 16 24 13 14 19 14 20 20 16 20 20 17 20 21 24
52 57 57 53 51 48 41 37 32 28 25 24 24 24 25 24 24 22 22 21 20 20 18 19 18 17 14 17 25 13 5 9 19 20 18 20 14 19 17 20 19 19 24
52 55 52 49 48 43 40 36 32 29 24 23 22 23 23 23 22 21 20 20 19 19 16 17 17 18 17 14 18 19 19 19 12 13 17 13 17 15 18 17 16 21 23
53 52 50 48 46 41 39 36 31 28 27 24 21 20 19 19 20 19 18 17 17 17 16 14 14 13 17 15 16 17 17 18 21 20 10 13 14 14 15 15 19 17 17
53 50 49 47 43 40 38 34 32 29 24 21 19 18 18 18 18 16 16 15 14 14 13 14 14 13 14 14 15 15 15 13 14 14 13 13 14 14 15 15 16 18 20

GFSSE_sfc_30mbdewp_015.txt.gz
Dewpoint
63 66 72 71 71 70 68 66 65 63 63 63 62 63 66 65 64 62 61 60 60 58 57 60 62 65 65 64 66 65 63 61 61 60 60 60 59 59 60 60 60 59 60
63 67 72 71 70 69 68 66 65 64 63 62 62 63 65 65 65 63 60 59 59 57 56 58 60 61 63 64 64 63 63 62 61 61 62 60 59 60 60 60 61 58 59
64 67 70 71 71 70 68 67 65 64 63 60 61 63 63 59 61 60 60 59 57 59 58 57 58 58 60 61 62 61 61 61 61 62 61 58 58 60 60 60 61 60 59
65 67 69 72 71 70 68 67 64 63 61 60 63 63 58 61 58 56 57 58 58 59 59 58 58 58 57 58 57 58 58 58 60 63 59 58 58 59 60 60 59 61 61
66 68 70 72 72 70 68 67 64 62 60 59 59 61 59 60 59 58 58 58 58 60 59 59 59 59 60 60 61 61 61 61 61 61 60 59 58 57 58 59 59 62 61
68 70 71 72 72 70 69 67 65 62 60 59 59 59 61 60 60 60 60 61 61 61 60 59 60 60 61 60 61 61 63 62 62 61 61 61 60 59 59 56 59 58 56
69 70 70 71 71 70 69 67 66 64 62 60 61 61 61 63 64 64 64 64 62 62 61 61 61 62 62 62 62 61 61 63 61 61 61 61 61 62 62 61 60 59 60
68 70 70 70 71 71 69 68 66 64 63 61 60 60 61 64 62 66 65 64 63 62 62 62 62 63 62 62 62 63 63 64 61 61 61 61 61 63 63 63 63 62 61
68 69 69 70 70 71 69 68 67 66 65 63 62 61 62 64 63 66 65 64 63 64 63 63 63 63 63 64 64 64 64 64 62 61 61 61 61 63 64 63 63 64 63
66 68 69 70 70 70 69 69 68 67 66 64 64 63 63 64 62 64 66 65 64 64 64 64 64 65 65 65 65 64 62 60 59 60 60 60 63 63 63 63 63 63 64
65 66 68 69 70 70 69 68 68 67 64 64 64 63 63 62 61 61 61 62 63 64 64 64 64 63 61 59 57 55 54 51 51 54 56 60 60 60 58 57 58 61 60
64 65 67 69 69 70 69 68 67 67 66 64 63 63 62 60 58 59 60 61 62 62 63 61 53 49 46 46 45 45 44 45 44 45 49 55 55 55 55 55 56 60 60
63 65 67 68 69 69 68 68 67 67 66 65 64 63 62 61 60 60 60 61 62 61 54 46 42 40 39 39 38 38 38 36 40 44 51 53 53 53 54 56 55 54 55
61 65 66 67 67 68 68 67 67 66 65 65 64 62 62 59 60 60 61 56 49 46 41 39 37 33 31 30 33 32 28 36 41 40 47 48 51 53 52 51 50 50 53
56 60 65 67 67 67 67 67 66 65 65 64 63 62 62 60 61 58 48 44 41 38 35 34 32 27 26 26 30 29 32 34 33 36 41 45 47 46 47 46 45 49 48
50 54 59 66 67 67 67 66 65 65 64 63 63 62 62 61 55 47 42 40 36 31 30 31 28 25 23 22 28 29 30 26 29 29 32 33 41 41 42 42 43 43 42
41 42 49 60 66 67 66 65 64 64 63 62 62 61 61 50 46 42 37 33 31 29 26 26 28 24 21 20 22 27 28 22 25 28 26 27 29 33 37 36 35 37 38
40 42 46 57 64 66 65 65 64 64 62 60 59 55 46 43 41 36 32 30 28 27 26 25 26 26 20 20 21 26 26 26 23 22 24 23 28 25 27 30 29 30 32
42 45 53 60 63 64 64 63 62 58 55 51 48 44 40 39 35 31 29 28 26 24 24 23 22 26 20 21 20 23 26 30 22 22 22 22 24 25 23 23 25 25 27
46 51 58 62 63 63 58 53 49 46 43 42 39 35 34 33 30 29 27 25 23 22 20 21 19 22 23 22 20 19 30 34 24 24 19 21 21 22 22 21 20 19 22
51 56 61 61 61 57 54 50 48 44 38 35 32 30 30 29 28 27 25 23 23 20 20 18 22 19 20 23 16 18 23 27 28 27 19 22 20 20 21 17 16 16 16
51 59 61 60 57 57 55 52 47 40 33 31 29 28 28 28 26 25 24 23 22 20 19 18 18 17 18 24 14 20 14 12 18 14 21 20 17 17 17 13 15 14 16
51 58 59 57 55 55 48 40 34 30 28 26 26 26 26 26 24 23 23 21 21 22 19 19 19 18 15 20 20 9 8 8 14 17 18 20 14 16 13 16 15 13 15
51 57 57 55 53 46 44 41 39 37 31 26 25 26 25 23 23 22 22 20 20 19 19 17 17 19 17 15 18 17 16 15 10 8 15 13 16 12 14 14 13 14 15
52 55 54 51 48 45 44 42 37 34 28 25 24 23 22 21 21 20 19 20 18 18 17 16 16 16 18 15 16 16 16 15 19 18 8 10 12 14 15 15 15 15 14
52 53 52 50 46 44 42 37 35 30 24 23 22 20 19 19 19 18 18 17 17 16 16 17 17 17 17 16 16 15 14 11 10 12 10 11 13 13 15 15 15 14 16

GFSSE_sfc_30mbdewp_018.txt.gz
Dewpoint
60 67 73 71 70 69 68 66 64 64 63 63 63 66 67 66 64 62 61 61 59 56 58 61 62 66 63 63 66 64 63 62 61 61 61 59 58 59 60 59 61 58 60
61 67 73 72 71 69 67 66 65 64 63 62 62 63 66 66 65 62 61 60 58 58 57 59 61 62 64 65 64 64 64 62 61 62 60 58 58 60 60 61 61 58 59
61 66 69 72 71 69 67 66 65 64 62 61 62 63 65 63 63 61 60 59 58 59 57 57 59 59 60 61 62 61 61 61 61 62 61 54 53 59 60 60 61 60 58
61 66 66 72 71 70 68 67 65 64 61 61 66 62 59 60 59 58 58 59 59 60 58 58 58 59 58 58 58 58 58 58 60 62 54 50 51 57 60 61 59 61 60
62 65 67 72 71 70 68 66 64 62 61 60 63 60 60 60 57 56 58 58 60 61 59 59 60 59 60 61 61 62 62 61 62 60 56 56 56 53 57 58 60 60 62
61 64 71 72 71 70 69 66 64 62 60 60 60 60 60 60 60 61 60 60 61 61 59 60 60 62 62 62 61 61 62 63 62 58 58 58 59 61 62 60 58 58 59
62 64 68 72 71 70 69 66 64 62 61 60 61 61 61 63 64 65 63 63 62 62 61 61 62 62 62 62 62 62 62 63 58 59 59 60 60 62 63 63 62 61 60
62 65 66 71 71 70 69 68 66 64 62 61 61 61 61 64 63 66 65 63 63 62 62 62 63 63 63 63 63 64 64 64 60 59 59 60 62 63 63 64 64 64 63
62 65 65 66 70 70 69 68 67 65 63 61 60 61 62 64 63 66 66 64 63 64 63 64 64 64 64 65 65 65 64 63 60 57 57 58 62 63 63 63 64 64 64
62 64 64 64 66 67 68 68 67 66 66 64 63 63 64 64 61 66 66 65 64 64 64 64 66 65 64 64 62 60 58 57 54 56 55 58 62 63 61 60 59 60 62
61 63 64 64 65 66 66 67 67 67 65 64 63 63 62 58 58 58 61 62 63 64 64 64 61 59 58 53 53 51 50 50 48 48 49 56 56 57 57 56 57 59 60
60 61 64 64 64 65 66 66 64 62 63 61 62 62 58 58 54 57 60 61 62 62 61 55 50 46 46 47 46 44 45 43 41 43 45 55 54 54 55 58 57 57 58
58 60 63 65 66 66 65 65 64 62 63 62 62 61 57 56 57 58 59 60 62 60 56 50 46 43 41 40 39 37 34 34 36 40 49 53 53 53 57 54 53 55 54
56 60 62 64 67 68 65 65 64 62 62 62 62 61 58 57 58 58 60 59 53 48 46 44 41 37 34 30 31 30 28 33 35 37 45 52 52 52 52 50 51 52 51
53 57 62 64 66 68 66 65 64 63 62 62 62 60 58 58 58 59 52 47 43 42 41 39 35 30 26 24 26 26 27 29 32 35 40 46 47 48 47 47 48 47 47
48 51 57 63 66 67 66 66 64 63 61 62 62 59 60 59 60 51 46 42 40 37 34 30 26 23 21 20 23 24 25 26 28 33 32 39 42 42 42 41 41 41 42
41 43 48 56 63 66 66 66 64 63 62 62 61 61 61 59 53 45 39 37 35 30 25 26 26 23 21 20 19 23 23 23 25 28 27 28 30 36 36 35 34 35 35
42 42 42 45 55 63 64 65 64 63 62 63 62 62 57 50 45 39 35 32 28 27 26 24 24 23 21 20 20 21 21 24 23 23 22 23 25 23 26 31 30 30 30
42 42 43 48 50 57 62 64 64 64 63 61 60 53 49 43 38 33 31 28 26 25 24 20 21 21 20 20 18 16 22 27 24 20 22 22 24 24 22 21 23 21 25
41 42 44 50 54 58 62 64 63 61 57 53 50 46 43 37 32 32 28 25 25 24 21 20 19 20 20 19 18 18 29 31 26 25 23 19 21 21 21 21 18 16 18
42 44 47 52 57 60 62 60 56 51 50 44 40 38 35 31 30 29 27 25 24 22 19 17 19 19 19 19 16 17 20 24 28 28 25 16 19 18 17 16 14 15 15
42 46 51 55 60 60 59 59 56 49 44 37 33 32 30 29 29 28 26 24 23 21 20 19 19 19 18 19 14 18 14 14 16 23 15 19 14 14 15 13 16 15 15
43 48 54 58 60 59 59 56 49 42 34 31 29 29 28 27 26 26 25 23 22 22 21 20 20 17 16 19 17 10 10 11 11 14 17 13 15 13 13 16 16 14 15
44 49 57 59 59 59 52 48 46 49 43 31 29 28 26 25 24 23 23 21 21 20 20 17 17 17 15 16 17 14 13 11 9 9 12 14 13 13 15 16 15 15 15
43 52 58 59 58 54 51 50 51 46 44 30 27 25 24 24 23 22 21 20 19 18 18 17 17 16 16 13 14 14 12 14 13 14 13 12 13 13 15 16 15 15 13
44 54 58 58 56 52 48 47 45 37 30 27 25 24 23 22 21 20 19 19 17 17 18 17 18 19 17 15 14 14 12 11 10 11 11 11 12 14 14 15 15 14 14

GFSSE_sfc_30mbdewp_021.txt.gz
Dewpoint
58 68 72 70 69 69 67 66 65 64 63 63 65 67 67 65 63 62 62 61 58 57 57 61 64 66 64 64 66 64 63 63 62 62 60 57 57 59 60 60 61 60 60
61 68 73 71 70 68 67 65 65 64 64 63 62 65 66 65 63 63 61 60 59 58 57 59 61 63 64 66 64 64 63 63 62 62 60 59 59 60 60 60 62 59 56
62 68 70 71 71 69 67 66 65 64 62 62 62 64 66 66 64 61 60 57 60 57 57 58 59 59 60 60 61 61 60 60 61 62 61 56 52 58 59 61 60 61 59
61 66 67 72 71 69 67 66 65 63 61 63 64 63 61 62 61 59 59 59 61 58 58 58 59 59 59 60 60 59 59 58 60 60 56 49 49 56 56 60 61 60 62
60 64 68 72 71 69 68 66 65 63 60 65 62 61 60 56 56 56 59 59 61 59 59 60 60 60 60 61 61 62 63 62 62 61 56 57 57 60 59 58 58 60 61
60 63 71 72 71 70 68 66 64 62 60 63 62 60 60 60 60 60 60 60 62 61 60 60 62 62 62 62 62 61 62 63 61 57 57 58 59 62 63 62 61 60 59
59 64 69 72 71 70 68 66 64 61 61 60 61 61 62 64 63 64 63 62 62 62 61 61 62 63 63 62 63 63 63 63 61 58 57 58 62 63 63 63 64 64 63
58 62 68 71 71 70 68 67 64 62 61 61 61 61 63 63 63 66 64 63 63 62 63 62 64 64 64 64 65 65 65 64 60 58 58 57 63 63 63 62 64 64 64
59 61 65 69 70 70 69 68 66 64 62 62 62 61 63 63 66 66 65 64 63 63 63 64 65 65 65 65 65 64 63 62 60 56 56 57 62 63 62 62 61 60 61
59 60 61 65 69 68 68 68 67 66 64 63 62 63 65 63 64 66 65 65 64 64 64 65 65 64 64 62 59 56 55 56 53 51 50 56 58 59 59 58 57 59 61
58 59 60 61 65 65 66 66 67 66 65 64 63 64 63 58 58 60 61 63 64 64 64 62 58 58 58 53 49 46 48 48 47 44 46 55 55 55 56 58 60 58 59
57 58 60 60 62 64 65 65 63 62 64 62 61 61 58 55 55 57 60 62 63 63 59 55 50 46 48 48 48 46 43 39 38 40 50 55 55 53 59 57 56 58 56
55 57 59 61 61 62 64 66 63 60 62 60 59 59 54 53 54 57 59 60 62 62 57 53 48 46 44 42 40 37 33 33 34 38 51 55 54 56 55 53 55 54 54
52 56 59 61 62 62 64 64 63 60 61 60 60 59 54 53 55 55 57 60 57 53 50 48 45 41 37 32 30 30 28 31 32 35 49 51 53 53 51 52 51 50 51
49 53 58 60 63 65 64 64 63 62 59 60 60 59 55 54 55 55 56 53 49 47 46 44 40 34 27 25 24 26 24 27 28 32 44 47 48 48 48 48 47 46 46
48 50 55 59 61 64 64 63 63 62 59 60 61 60 56 55 56 56 52 48 46 43 40 35 28 25 24 23 22 24 23 24 27 32 34 42 43 42 42 41 40 39 39
41 45 49 56 60 62 63 63 63 62 60 60 62 59 57 58 58 53 48 44 41 36 30 28 27 26 24 22 21 22 21 22 25 28 29 32 37 37 36 35 35 34 34
41 41 42 47 55 61 64 63 62 61 60 62 62 60 60 59 54 47 42 38 36 31 29 27 25 24 23 23 22 21 22 24 23 25 24 25 26 24 34 29 29 29 30
40 41 42 43 47 54 62 62 62 63 62 62 62 62 59 51 46 41 36 34 31 29 28 22 24 23 23 23 20 17 22 25 24 21 23 24 25 25 26 24 24 23 23
38 41 42 43 45 48 57 60 64 63 63 63 61 57 50 44 38 35 33 31 29 28 25 23 23 24 23 22 20 20 28 30 26 25 24 23 22 23 23 23 22 19 19
37 39 41 42 47 50 54 61 63 62 60 58 54 50 44 37 35 35 33 29 28 26 24 22 23 23 23 22 21 22 23 22 29 28 29 23 19 21 19 19 18 20 19
40 41 41 43 48 53 58 63 62 59 54 48 45 38 35 33 33 33 31 29 27 26 25 24 24 23 23 21 17 21 19 19 20 20 21 18 18 17 16 16 18 19 19
39 41 42 45 51 56 60 61 55 46 40 39 37 34 31 31 31 31 30 28 27 28 27 25 24 22 21 22 19 14 13 16 13 15 18 17 17 17 17 18 19 18 18
38 43 45 49 55 57 59 58 52 49 45 42 38 31 28 28 29 29 28 27 27 26 25 22 22 21 19 20 20 16 16 14 12 12 15 17 18 15 17 18 18 18 18
36 44 48 52 57 58 59 55 53 52 49 41 32 27 27 27 27 27 26 26 25 24 22 22 21 20 18 16 16 17 13 16 15 15 16 16 17 17 17 18 18 18 16
34 45 51 55 57 58 58 53 54 53 41 37 29 26 26 27 26 25 24 24 23 23 22 21 21 21 19 18 17 15 14 13 13 13 14 15 15 17 17 17 17 17 16

GFSSE_sfc_30mbdewp_024.txt.gz
Dewpoint
68 71 71 69 69 68 67 66 65 64 64 66 68 67 66 64 63 63 62 59 59 57 60 63 65 66 66 67 66 64 64 63 63 62 60 57 58 59 60 61 62 60 60
69 71 71 70 69 68 67 65 65 64 64 63 65 67 66 65 64 62 60 59 58 57 58 61 62 63 65 65 65 63 63 62 62 62 61 60 60 58 60 60 61 61 58
68 71 71 71 70 69 66 66 65 64 62 62 63 66 67 65 63 61 59 60 57 57 58 60 60 60 61 61 60 60 59 59 60 61 60 60 59 57 59 62 60 60 61
68 69 70 71 70 68 67 66 65 62 63 63 64 64 64 63 61 59 60 61 58 58 58 59 59 59 60 61 61 61 61 60 61 61 60 56 56 57 55 57 60 60 62
67 67 70 71 70 69 67 66 65 62 65 66 63 62 60 59 57 60 60 61 60 59 60 61 61 61 61 61 61 62 64 63 63 62 60 58 58 62 62 62 60 60 60
65 69 72 71 70 69 68 66 64 62 64 64 63 62 60 59 60 59 60 62 62 60 61 62 63 63 63 63 62 62 62 62 60 59 58 60 62 63 63 62 63 63 61
68 70 71 71 71 70 67 66 63 61 62 63 61 62 63 64 64 64 64 63 62 61 61 62 63 64 63 63 64 64 64 63 62 61 58 60 63 63 63 62 64 65 65
68 69 71 71 71 70 68 66 64 62 61 62 62 62 64 63 64 66 64 63 63 63 63 64 64 64 64 65 65 65 65 63 61 60 58 62 63 62 62 61 62 61 62
63 69 70 70 71 70 68 67 65 64 63 63 63 63 65 64 66 66 65 64 64 63 64 65 66 65 66 65 64 62 61 60 59 57 57 58 59 60 60 59 59 60 63
60 66 69 70 70 69 68 67 66 65 63 63 63 64 64 63 66 66 65 65 64 64 65 65 64 64 64 61 56 53 53 54 54 49 54 57 55 56 57 58 61 60 60
60 61 66 69 69 68 67 67 67 66 64 63 63 64 64 62 64 65 65 64 65 65 64 62 59 61 58 54 49 46 48 45 41 50 54 56 55 54 60 59 59 59 58
58 59 61 67 68 67 66 67 66 65 65 63 62 63 62 60 59 61 62 64 64 64 61 57 51 48 50 50 49 46 37 34 37 50 55 55 53 58 57 57 57 56 56
57 58 59 61 64 65 65 65 64 63 64 63 61 61 59 56 59 60 60 62 62 61 57 52 49 45 41 38 36 34 32 34 36 51 54 56 56 57 54 56 54 53 54
56 57 59 60 62 65 65 65 63 62 63 62 60 60 54 54 55 57 60 61 61 60 51 48 44 40 34 28 28 28 26 31 31 48 52 53 53 53 53 52 51 50 50
52 56 58 60 62 63 64 65 63 62 62 61 60 59 54 54 55 56 59 54 51 49 47 43 35 29 27 25 24 26 24 26 29 46 48 49 49 48 48 47 46 44 43
46 53 58 60 62 64 64 63 63 63 62 60 61 60 56 55 56 56 51 50 48 43 38 30 27 27 26 24 23 23 23 25 27 38 43 45 44 43 41 40 39 38 38
41 50 55 59 62 64 64 63 64 63 62 62 61 60 57 58 55 53 49 46 42 34 30 30 29 28 26 25 24 23 21 24 26 30 37 38 40 38 36 35 34 34 34
42 43 51 57 59 62 64 64 62 63 62 62 62 61 58 56 52 48 45 42 36 32 30 28 26 27 26 26 24 22 24 25 24 25 25 29 31 33 35 30 28 27 28
39 42 44 52 59 60 63 63 63 63 63 62 62 61 60 53 49 44 40 37 33 31 28 25 25 25 24 24 22 19 27 26 25 23 24 25 26 26 26 26 27 25 23
36 39 42 45 50 57 64 64 63 62 63 63 62 59 52 48 43 39 35 33 32 29 26 26 26 26 24 23 22 23 29 31 27 25 25 25 25 23 23 23 22 22 23
38 36 41 44 44 46 58 62 62 62 62 61 58 52 47 41 38 35 34 32 31 28 26 25 25 25 23 23 24 23 27 24 30 28 29 30 23 22 20 20 20 20 21
39 39 37 42 46 46 48 60 63 61 59 54 52 46 41 38 37 36 32 31 28 26 26 26 26 25 24 23 18 21 20 22 22 21 25 21 19 18 18 18 19 19 20
39 40 41 41 44 49 54 61 51 47 44 45 40 37 36 35 35 33 32 30 29 30 28 26 24 24 24 23 19 16 14 16 14 20 19 20 17 20 17 18 20 19 19
34 40 41 43 43 52 62 57 54 54 49 43 41 39 36 32 33 32 31 30 30 29 26 24 24 22 23 21 22 18 17 16 13 12 19 18 20 17 19 19 18 19 19
28 38 43 43 47 56 62 56 54 50 47 41 36 34 30 30 30 30 30 29 28 27 21 22 23 20 19 18 18 18 15 17 17 16 15 17 17 18 19 19 19 19 19
32 31 43 46 53 58 60 54 54 50 44 37 35 30 29 31 29 29 28 27 26 25 24 23 23 22 20 19 19 17 15 15 15 15 15 15 16 18 19 19 18 19 17

GFSSE_sfc_30mbdewp_027.txt.gz
Dewpoint
69 70 71 69 68 68 67 66 66 67 69 68 68 67 65 64 64 62 60 59 58 60 62 65 64 66 67 67 65 65 64 64 63 61 59 58 59 59 60 61 62 60 59
70 70 70 70 68 68 66 65 65 65 65 67 67 66 65 64 62 59 59 58 58 59 61 63 64 65 66 65 64 63 63 62 61 61 61 59 60 58 60 62 61 61 58
70 70 70 70 69 68 66 66 65 64 63 64 66 66 65 64 62 60 58 57 58 59 60 62 61 62 62 61 60 59 58 58 59 59 61 60 58 57 60 61 60 60 61
70 70 70 70 70 67 66 65 63 62 63 64 67 67 65 62 59 60 61 58 58 59 59 60 60 60 61 61 61 63 62 61 61 62 61 58 57 60 57 57 60 61 62
70 70 71 71 69 68 66 65 62 65 64 66 64 64 63 61 61 61 62 60 60 60 61 61 61 61 61 61 62 63 63 63 63 61 60 58 62 63 62 62 61 60 60
68 70 71 71 70 69 68 65 62 66 66 63 63 62 61 59 60 61 62 62 60 61 62 63 63 63 63 63 63 62 62 62 62 61 59 62 62 63 62 61 64 64 64
68 71 71 71 70 69 68 67 63 65 64 63 62 61 61 63 63 62 63 63 62 61 62 63 64 64 63 64 64 64 64 63 62 61 60 62 62 63 62 63 63 63 64
69 70 71 71 70 69 67 66 64 64 65 63 63 64 65 64 63 64 64 63 63 63 63 64 64 64 65 65 65 65 64 63 61 60 60 61 62 61 61 61 60 61 64
70 70 70 71 70 69 68 66 64 63 64 64 64 65 64 66 66 65 65 64 64 63 65 65 65 65 65 64 63 60 58 57 57 57 56 58 58 58 59 59 61 62 61
69 70 70 70 70 68 68 66 65 64 64 64 64 66 63 67 67 66 66 65 64 64 66 65 65 64 64 61 55 51 51 49 51 54 56 57 55 55 58 61 60 60 59
68 69 70 70 69 68 67 66 66 64 64 65 64 65 62 65 66 65 65 65 65 65 65 63 63 62 59 54 50 50 40 36 50 53 55 55 54 61 59 61 59 58 58
64 68 69 69 68 68 67 67 66 65 64 63 63 64 63 61 64 65 64 64 65 65 63 60 54 52 53 49 45 39 33 35 49 54 58 55 56 58 59 57 56 55 56
59 64 68 68 68 67 66 66 65 65 63 62 61 62 62 60 61 62 62 64 63 62 60 55 49 44 39 35 32 30 29 36 50 53 57 58 58 55 56 54 53 54 53
58 59 65 68 67 67 66 65 64 64 64 62 61 61 59 58 60 59 60 61 61 60 56 52 43 37 28 25 27 26 25 32 48 51 54 55 54 54 53 51 50 49 48
57 58 59 65 66 66 65 64 63 62 64 64 62 61 56 55 56 58 59 60 59 54 48 40 30 27 26 24 23 24 23 29 46 48 51 51 50 49 48 46 44 42 42
54 57 59 60 63 65 65 64 63 62 63 62 61 60 53 54 54 57 55 52 48 41 34 28 27 26 26 24 24 23 23 26 42 45 47 48 46 43 41 39 38 38 38
42 56 59 60 63 64 64 64 62 62 62 62 61 59 55 55 56 52 50 47 41 33 30 29 29 26 26 25 24 24 22 24 30 41 41 41 40 39 36 34 33 33 34
40 45 58 59 62 64 64 63 63 63 62 62 61 61 57 56 52 50 46 41 34 31 29 26 27 26 26 25 23 21 24 25 25 29 36 36 34 36 33 31 29 29 29
36 39 52 59 61 63 63 64 63 63 62 62 62 60 57 52 50 47 43 37 32 30 27 25 26 25 23 23 22 20 27 26 24 24 25 26 28 28 26 27 29 27 27
34 37 41 55 60 63 63 64 63 63 63 63 61 60 54 50 47 44 39 33 32 27 26 26 25 26 24 22 22 25 29 31 27 23 24 25 25 24 24 23 21 22 25
34 35 37 45 58 61 63 63 62 62 62 62 61 54 51 46 43 40 35 32 30 27 25 25 26 24 22 23 21 23 28 26 27 27 29 29 24 23 21 19 20 20 21
37 38 38 40 52 59 62 63 63 62 61 59 54 50 46 43 40 36 33 31 29 26 26 25 25 25 24 22 17 24 18 21 19 23 26 22 20 19 19 18 18 19 20
34 38 39 39 44 49 61 59 55 52 50 50 48 46 42 41 38 34 33 30 28 28 26 25 25 25 23 22 18 16 15 15 15 20 21 19 19 19 18 20 20 19 19
29 36 39 40 42 46 58 59 58 58 56 51 46 44 41 39 36 33 30 29 30 30 26 25 25 23 24 21 22 20 17 15 10 8 18 18 20 18 19 19 20 19 19
28 29 35 40 42 47 58 59 59 57 52 46 43 42 38 35 34 32 31 31 29 28 25 23 21 20 20 19 20 17 15 18 18 16 14 16 17 18 19 20 19 19 19
37 35 33 38 41 54 58 58 58 52 46 44 42 40 36 33 32 31 30 29 28 23 24 23 21 19 19 18 18 17 16 14 14 15 15 16 16 18 19 19 19 19 19

GFSSE_sfc_30mbdewp_030.txt.gz
Dewpoint
69 71 71 69 69 69 69 69 69 70 70 69 67 66 65 64 62 62 60 59 61 62 65 64 62 64 66 65 66 65 64 63 60 59 59 60 59 59 61 62 61 60 60
70 71 70 69 68 68 67 67 68 69 69 69 67 65 65 63 61 60 59 58 59 61 64 66 67 67 67 66 65 64 62 60 59 60 60 58 59 59 61 61 61 59 58
70 70 70 70 69 67 66 65 65 66 67 67 66 65 65 62 61 58 58 58 59 60 63 63 64 63 63 62 61 58 57 57 59 60 62 58 58 58 59 61 60 61 60
69 70 70 70 69 67 66 65 64 63 64 66 66 66 64 62 61 58 58 58 59 60 61 61 62 62 62 61 62 63 61 61 62 63 60 59 57 61 59 58 60 61 62
69 70 70 70 69 67 66 64 63 63 64 67 67 66 62 60 61 61 59 60 60 60 60 61 60 61 61 62 63 63 63 63 62 60 59 57 62 63 62 62 62 61 60
69 70 71 70 69 68 66 64 65 64 66 66 66 65 62 62 62 63 61 60 61 62 62 62 62 62 63 62 62 62 62 63 62 61 59 60 62 63 61 62 65 65 64
69 70 71 70 69 68 66 65 66 66 64 63 63 62 61 61 62 63 63 62 61 62 63 64 64 63 64 64 64 64 64 64 60 60 60 62 63 62 61 63 62 62 64
69 70 70 70 70 69 67 65 66 67 65 63 62 62 62 62 63 63 64 63 62 63 64 64 64 65 65 65 65 64 63 61 58 58 59 61 61 60 60 60 61 64 64
69 70 70 70 70 69 68 66 66 67 65 64 64 65 65 65 65 65 65 64 63 63 64 65 65 65 65 64 62 58 55 55 57 55 56 57 58 58 59 61 62 61 61
69 69 70 70 69 68 67 66 65 67 65 65 66 66 65 67 67 66 65 65 63 64 66 66 65 65 64 60 53 51 45 55 53 55 56 57 54 57 61 61 61 60 59
69 69 69 69 69 68 67 66 65 65 66 65 66 64 65 66 66 66 65 65 65 65 66 64 64 63 58 53 51 45 38 50 51 53 54 55 60 60 61 59 58 58 57
67 67 69 69 68 67 66 66 65 65 65 65 65 64 62 65 65 65 65 65 65 66 64 62 59 56 51 49 36 36 35 48 53 56 57 57 59 60 58 56 56 57 55
67 68 68 68 68 67 66 66 65 64 63 63 63 64 62 62 64 64 64 64 64 64 61 56 49 44 37 34 30 27 34 49 52 56 60 60 57 57 55 54 54 53 53
65 67 68 69 68 67 66 66 65 64 62 61 62 62 62 60 62 62 62 62 62 61 56 51 44 33 26 25 26 25 31 48 51 54 56 56 56 54 52 50 49 47 46
60 65 68 68 67 67 66 65 64 63 63 61 60 60 60 58 60 60 60 61 61 60 52 44 30 27 25 23 24 23 28 46 49 51 53 53 52 50 48 46 44 43 42
56 59 66 67 67 67 66 64 63 63 63 63 62 61 58 58 59 59 59 60 57 54 43 30 27 26 25 24 23 23 25 41 47 48 49 50 47 44 41 39 38 38 38
44 57 60 67 67 66 66 64 64 62 63 63 62 61 58 56 56 58 57 55 46 36 29 29 27 26 26 25 24 23 24 33 43 44 44 41 41 40 37 35 35 35 35
39 43 58 61 65 65 65 65 64 63 62 62 62 61 57 55 55 54 53 47 37 32 29 28 27 26 25 23 22 20 24 25 37 39 38 35 36 37 34 32 30 30 32
36 38 49 59 62 64 65 65 64 63 62 62 62 61 56 55 54 52 47 39 33 30 28 26 26 25 22 22 21 22 26 26 26 32 35 31 32 31 28 32 30 28 27
35 35 40 57 61 63 64 64 64 63 62 62 61 61 57 54 51 48 42 34 31 29 26 25 25 25 23 22 22 25 30 30 25 24 25 26 28 25 24 23 21 23 26
34 34 36 46 59 62 64 63 62 62 62 62 62 60 54 52 49 46 38 33 30 28 26 26 26 22 21 23 22 25 28 27 27 28 28 27 25 23 22 20 20 20 21
36 36 35 39 51 60 62 63 63 63 62 62 60 57 54 50 47 42 36 33 30 27 26 26 26 25 23 21 19 24 21 21 21 22 26 23 21 20 19 19 19 19 20
33 35 37 38 42 58 62 61 58 56 55 56 55 53 50 49 45 40 35 32 29 28 26 26 26 26 23 20 19 18 18 16 16 19 21 19 19 19 20 20 20 20 20
30 31 34 37 40 50 60 61 59 59 58 57 56 52 49 47 42 37 34 30 29 30 27 26 27 26 24 21 21 19 17 15 9 8 18 19 19 18 18 20 20 20 19
29 29 30 34 39 43 57 61 60 58 58 52 50 49 47 44 39 35 31 30 29 29 27 25 24 24 23 22 21 18 16 18 18 14 11 15 18 18 19 20 19 20 19
38 38 37 37 35 42 53 59 59 59 53 50 48 47 44 41 37 36 33 31 30 28 25 23 22 21 19 18 18 16 15 14 15 15 14 16 16 18 20 19 19 19 19

GFSSE_sfc_30mbdewp_033.txt.gz
Dewpoint
68 70 71 69 69 68 70 70 70 70 69 67 66 66 65 64 63 61 60 61 63 64 63 61 63 65 65 65 65 65 63 59 58 60 61 60 59 59 61 61 61 59 60
69 70 70 70 69 68 70 70 70 70 70 68 66 65 64 63 62 60 59 60 61 63 65 67 65 65 67 66 65 63 59 59 60 60 59 59 60 60 61 61 61 58 59
70 70 69 70 69 69 69 70 70 69 69 68 66 66 63 62 59 58 58 59 60 62 65 65 65 65 64 63 61 57 56 59 61 62 62 58 58 59 58 61 60 62 59
69 70 69 70 69 68 67 67 68 68 68 67 65 64 63 62 58 58 58 60 60 63 63 63 64 63 62 62 62 60 61 63 63 62 58 58 58 62 59 58 59 60 62
69 69 69 70 68 66 66 65 65 66 66 66 66 65 63 61 59 59 59 59 60 61 61 61 61 61 61 62 63 62 62 62 62 60 58 58 61 63 61 62 63 62 60
69 69 70 70 69 68 66 64 63 63 65 66 67 64 62 61 62 60 60 61 61 61 61 61 61 62 62 62 62 62 63 64 61 60 59 58 62 63 62 64 64 64 65
69 70 70 70 68 67 65 65 65 65 67 68 67 63 63 62 63 62 61 61 62 63 63 63 63 63 64 64 64 64 64 61 61 60 60 62 63 61 62 61 62 65 65
69 70 70 70 69 68 65 67 67 67 65 66 65 64 63 62 63 64 63 62 62 63 64 64 64 65 65 65 64 62 60 58 58 59 60 60 61 60 60 60 63 62 62
69 69 70 70 69 69 67 66 68 66 65 64 64 63 63 64 64 65 64 63 62 63 64 64 65 65 65 63 59 55 55 58 56 55 56 56 57 58 60 63 61 61 60
69 69 69 70 69 69 68 66 67 66 66 65 64 66 66 65 66 65 66 64 63 64 65 65 65 65 63 56 53 50 58 55 54 54 55 56 55 60 62 61 61 59 58
68 69 69 69 69 68 67 66 66 66 65 66 66 66 64 65 66 66 65 65 64 65 66 65 65 63 56 53 51 45 51 51 51 52 52 60 60 61 60 59 59 58 55
66 68 68 68 68 67 66 65 65 66 66 65 66 64 64 66 66 66 65 65 65 66 65 64 63 57 49 42 35 36 45 51 54 55 56 60 60 59 57 57 57 55 53
66 67 67 67 68 67 65 65 64 64 64 64 64 63 62 65 65 64 64 65 65 65 62 56 49 43 36 32 28 30 47 50 54 57 61 59 58 56 55 54 54 52 52
66 66 67 67 67 67 65 65 64 63 63 63 63 63 61 62 63 63 63 63 63 62 58 50 43 32 26 27 25 29 46 50 53 55 57 58 56 54 52 50 48 47 46
66 66 67 67 67 67 66 65 64 63 62 62 62 62 62 60 62 62 62 61 61 59 54 47 33 26 23 24 24 26 43 49 51 53 54 54 53 51 48 46 45 43 42
64 67 68 67 67 67 66 65 64 63 62 61 61 61 61 60 60 61 61 60 60 59 48 35 27 26 24 24 23 24 39 46 49 50 50 50 49 45 43 41 40 39 40
54 60 67 68 68 67 66 65 64 63 62 61 60 60 59 58 59 60 59 59 58 53 36 28 27 26 25 25 24 23 30 44 46 47 46 42 43 41 38 37 36 36 37
41 47 59 67 67 67 66 66 64 63 62 62 62 61 60 57 57 58 58 57 49 38 30 28 27 26 25 23 22 22 25 37 42 42 40 36 38 36 35 33 33 32 32
36 38 48 61 66 67 66 66 64 64 62 62 62 62 60 57 56 57 56 52 38 32 30 29 27 24 22 22 21 22 26 26 38 38 36 33 35 30 30 32 31 29 27
36 36 39 56 62 66 66 65 65 64 63 63 62 62 60 57 55 54 51 44 34 31 29 27 25 25 23 21 23 25 31 29 27 33 33 28 31 27 25 25 21 22 29
35 35 36 46 59 62 64 64 64 62 63 62 62 62 58 56 54 52 46 37 33 31 29 25 24 22 21 24 24 27 27 28 26 26 26 26 26 24 23 20 20 20 21
35 36 35 37 52 61 63 64 63 63 63 62 62 61 57 55 53 50 44 37 32 30 27 26 25 24 22 21 20 25 22 22 22 22 27 26 23 21 19 20 19 20 20
33 34 35 37 39 57 62 62 59 59 57 58 59 58 55 54 53 49 43 38 32 31 28 27 27 26 23 20 20 21 19 17 20 19 20 20 20 19 20 20 20 20 19
30 31 33 35 38 43 59 62 60 60 59 60 60 58 54 53 52 48 44 39 35 32 30 28 29 28 24 20 20 18 17 18 13 11 18 20 20 18 18 20 20 20 19
29 30 30 31 34 39 50 61 61 60 59 58 57 56 54 52 50 46 44 41 36 32 31 28 27 27 25 22 22 18 17 18 17 13 10 16 19 19 19 20 20 19 19
33 34 34 34 34 35 43 57 61 60 57 55 54 54 52 50 47 43 41 39 37 35 33 29 27 26 24 23 21 17 16 15 15 14 14 15 15 17 20 20 19 18 19

GFSSE_sfc_30mbdewp_036.txt.gz
Dewpoint
66 70 71 71 71 71 71 71 71 70 69 68 67 67 65 64 63 62 62 63 63 64 63 64 65 65 65 65 65 63 60 59 60 61 62 61 59 61 61 61 60 59 60
68 70 70 70 69 69 70 71 71 70 69 67 66 66 64 63 62 61 60 62 64 65 65 63 65 66 66 65 64 60 59 60 60 60 60 60 62 59 60 60 61 58 61
69 69 69 69 69 68 71 70 71 70 69 67 66 65 63 62 60 59 59 61 61 65 66 67 67 66 65 62 58 57 60 62 62 62 59 58 58 58 57 61 61 62 58
69 69 69 69 69 69 70 70 70 70 69 67 67 63 63 60 59 59 60 60 61 65 65 64 64 63 62 62 60 61 63 63 63 60 58 58 60 62 60 59 59 60 62
69 69 69 70 70 69 69 69 69 69 69 67 65 64 63 59 59 59 60 60 62 62 62 62 62 62 62 63 62 63 63 63 62 60 57 58 62 62 62 64 64 63 61
69 69 70 70 69 68 67 66 66 67 67 67 66 64 62 60 60 60 60 61 61 61 61 61 61 61 62 62 62 63 64 62 60 60 58 58 63 63 63 63 64 65 65
68 69 70 69 68 67 66 65 64 65 66 66 67 64 63 62 61 60 61 62 62 62 62 62 63 64 64 64 64 64 62 62 60 59 61 62 62 61 60 63 64 64 64
69 69 69 69 68 68 66 65 66 65 66 67 67 64 63 63 63 62 61 62 63 63 63 64 64 65 65 64 62 60 60 59 59 60 60 59 61 60 59 63 62 61 61
69 69 69 69 69 68 66 68 67 66 67 68 66 65 64 64 64 64 63 62 63 64 65 64 65 65 64 59 56 56 59 58 55 56 56 56 58 59 63 62 61 59 59
69 69 69 69 69 68 67 68 68 67 66 66 66 65 65 65 65 65 65 64 63 64 65 65 65 64 59 55 53 60 58 55 53 53 53 56 58 62 62 61 60 58 56
67 68 69 69 68 68 67 66 67 66 66 65 65 65 65 65 65 65 65 65 64 65 66 66 65 62 55 54 49 54 51 50 50 50 56 62 62 60 59 60 58 56 54
64 67 68 69 68 67 67 65 65 66 65 65 66 65 64 64 65 66 65 65 65 66 65 65 63 56 50 36 37 45 49 52 53 55 57 61 60 58 58 57 55 54 53
65 65 67 68 68 67 66 65 64 66 65 64 65 64 63 65 65 65 64 65 65 65 63 56 48 40 35 31 28 42 49 51 55 58 60 60 58 55 54 54 53 52 51
65 65 66 67 67 67 66 65 64 64 64 64 64 64 61 63 64 64 63 63 63 62 58 49 42 28 27 26 27 40 48 52 54 56 59 57 55 54 52 50 48 47 47
64 65 66 67 66 67 66 65 64 63 63 64 63 63 61 61 63 63 63 62 62 60 55 46 32 26 24 24 25 36 46 51 52 53 55 55 54 51 49 48 45 44 44
65 65 66 66 67 67 66 65 64 63 63 62 62 62 62 60 61 62 62 61 60 59 52 41 30 25 24 23 23 33 45 49 50 51 51 51 50 47 44 43 42 41 42
61 66 66 66 67 66 66 65 64 63 63 61 61 61 62 61 59 61 61 60 59 58 43 30 27 26 25 25 23 26 42 46 48 48 46 44 44 43 40 39 39 39 39
44 59 66 67 67 66 65 66 65 64 63 62 60 60 61 60 60 59 60 60 58 52 36 29 27 26 25 24 22 23 30 43 45 45 40 38 38 36 37 35 35 33 33
36 39 54 64 67 67 66 66 66 64 63 62 61 60 60 58 59 58 59 58 52 45 34 29 27 25 23 22 21 24 26 34 41 40 36 34 36 31 31 33 34 31 29
37 36 38 51 65 67 67 66 65 64 63 63 62 61 61 59 57 57 57 55 46 39 33 29 27 25 23 22 23 27 30 28 34 36 35 31 33 27 26 25 20 21 33
36 36 36 38 53 65 65 64 63 63 63 63 62 62 62 60 57 57 56 51 42 36 33 29 26 23 22 25 26 28 27 28 25 28 29 27 27 25 22 20 20 20 21
34 35 35 36 42 58 65 65 64 64 63 63 63 62 62 60 58 56 54 49 42 36 31 27 25 23 22 25 22 26 23 24 24 23 28 27 25 22 19 20 19 19 20
32 33 35 36 37 50 60 64 60 60 59 60 61 61 60 58 57 55 53 49 43 37 33 29 27 26 23 22 23 23 21 21 23 19 21 21 21 20 20 20 20 19 19
30 31 33 34 37 39 57 62 61 61 60 60 61 61 59 57 56 55 50 48 43 40 36 33 29 28 24 21 20 19 18 21 18 15 19 19 19 19 18 20 19 19 20
30 30 31 31 33 38 43 61 61 61 60 59 60 60 59 56 56 54 51 48 44 41 40 36 32 28 26 23 21 18 17 17 16 14 13 18 19 20 19 20 20 19 18
38 38 38 34 31 33 40 54 61 60 60 57 56 58 56 55 54 53 50 48 45 43 41 37 35 32 27 25 23 18 18 16 15 14 14 15 16 17 20 21 19 19 19

GFSSE_sfc_30mbdewp_039.txt.gz
Dewpoint
65 70 72 72 71 71 72 71 71 71 70 69 68 67 66 65 64 64 64 63 64 63 64 63 65 65 64 64 64 61 60 61 61 62 62 62 61 61 61 59 59 59 61
66 70 72 71 71 71 72 72 71 71 70 69 68 66 65 64 62 62 63 63 64 65 63 64 66 65 65 63 61 59 61 61 60 60 61 62 61 59 60 62 60 59 61
67 69 69 71 70 71 72 71 71 70 68 67 67 65 64 62 60 60 62 62 65 67 65 66 67 65 63 60 58 60 62 62 62 60 60 59 58 57 60 62 62 60 58
69 68 66 67 67 71 72 71 71 69 68 67 66 62 63 60 59 59 60 61 65 66 65 65 64 63 62 60 61 63 63 63 61 60 59 61 62 62 60 60 59 61 62
68 67 66 67 67 71 71 71 71 70 68 67 65 63 63 59 59 60 60 62 62 64 64 63 63 63 63 62 63 63 63 63 62 58 59 62 63 63 64 65 64 64 61
68 67 68 68 69 70 70 70 70 70 69 67 66 64 61 60 60 61 61 62 63 62 62 61 61 62 62 62 63 64 63 62 60 60 58 61 63 62 61 64 65 65 65
68 68 67 69 69 68 67 67 68 68 69 67 66 64 62 60 61 61 61 62 62 62 62 62 63 64 64 64 64 63 63 62 60 60 62 62 62 61 60 64 63 63 64
68 68 66 69 69 68 67 67 67 67 67 67 67 64 63 62 61 61 62 63 63 63 63 64 64 65 64 63 62 61 60 60 61 61 61 60 61 59 62 63 61 60 61
68 68 68 67 68 68 67 66 66 66 67 68 67 65 65 64 63 62 62 63 64 64 64 65 65 64 61 58 57 58 60 57 57 57 56 57 59 62 63 61 60 59 58
68 68 68 68 68 67 65 68 67 66 68 69 67 65 65 65 65 64 64 63 64 65 65 65 65 62 56 55 60 60 58 55 53 54 55 57 62 62 62 60 59 57 56
66 68 68 68 68 67 65 67 67 66 66 66 66 65 65 64 64 65 64 64 64 65 65 66 64 58 55 52 57 55 51 50 49 54 61 63 61 60 60 59 57 55 54
64 65 67 68 67 67 65 65 66 66 65 64 64 64 64 65 65 65 65 65 65 65 65 65 61 56 41 39 42 49 49 51 52 58 60 62 59 59 58 56 55 54 53
64 64 65 66 68 67 66 65 65 67 65 64 64 64 64 64 65 65 65 64 64 65 62 60 51 43 40 34 38 46 49 52 56 59 60 59 57 55 54 54 53 51 50
64 64 65 67 68 68 67 65 63 65 65 64 65 64 63 63 65 65 65 65 64 64 59 53 43 35 33 30 35 44 49 53 57 58 58 57 55 54 52 51 49 48 48
63 64 65 66 66 67 67 66 64 63 65 64 64 64 63 63 64 65 64 64 63 62 58 49 38 30 29 27 31 42 47 52 55 56 56 56 55 51 50 48 46 45 46
64 64 65 66 67 67 66 65 65 63 62 64 64 63 63 61 63 64 64 63 62 61 57 47 35 29 28 27 28 40 47 51 53 53 53 52 52 49 46 45 43 43 44
62 64 65 65 66 67 66 66 65 64 63 62 63 63 63 62 61 63 63 62 62 60 54 40 31 28 28 26 26 36 46 49 50 50 48 48 46 45 43 42 40 40 41
45 60 65 66 66 66 66 66 65 65 64 62 61 62 63 62 61 61 62 62 61 58 48 38 31 29 29 27 25 28 41 46 47 47 44 42 41 39 38 39 37 36 35
37 40 57 65 66 66 66 66 66 65 65 64 62 61 61 61 61 60 60 61 60 56 45 36 31 30 28 27 25 27 30 42 44 43 38 38 38 36 35 36 35 33 31
38 37 39 53 65 67 67 66 66 65 64 64 63 61 60 60 61 60 60 60 58 54 46 36 32 29 28 27 21 28 30 30 41 40 36 33 35 32 34 32 25 26 35
37 37 37 38 48 63 65 64 64 63 63 64 64 63 61 60 59 59 59 58 55 53 48 38 31 28 25 28 28 30 30 30 30 36 36 31 32 29 27 25 23 23 23
34 35 36 37 39 49 61 63 63 63 63 63 64 63 62 61 59 58 58 56 53 52 47 37 31 28 26 29 27 29 27 27 27 27 30 29 28 27 24 22 22 23 23
31 33 34 36 37 40 55 63 63 62 61 63 63 62 63 62 60 59 58 57 52 51 45 38 33 31 27 27 28 28 26 26 27 24 26 28 27 25 23 22 22 22 21
34 33 32 34 36 38 48 60 61 60 59 61 61 62 62 62 61 60 58 58 54 50 47 41 35 33 30 27 26 23 23 26 25 21 22 23 24 23 22 23 21 21 22
39 39 39 34 32 35 40 54 61 60 60 61 61 62 61 60 60 59 58 57 55 51 49 45 39 34 31 30 27 23 20 21 19 22 21 21 21 22 21 21 21 19 20
39 40 40 40 39 36 35 42 57 60 60 60 60 60 61 59 58 58 57 55 55 52 50 46 44 39 35 32 28 22 21 19 18 17 18 20 21 21 21 22 21 20 20

GFSSE_sfc_30mbdewp_042.txt.gz
Dewpoint
64 67 73 72 71 72 71 71 71 71 70 69 69 67 67 66 66 65 64 64 64 64 64 64 66 64 64 63 62 61 62 62 62 63 63 62 61 61 59 58 57 58 62
65 67 72 72 72 72 72 72 72 71 70 69 68 66 65 64 63 64 63 64 65 64 63 66 65 65 64 62 61 61 61 60 61 62 61 60 60 59 62 62 61 59 61
65 67 68 72 72 73 72 72 71 70 69 68 67 65 64 62 61 63 63 65 67 65 65 67 66 65 62 60 61 61 62 61 60 61 59 55 54 59 61 61 62 58 60
65 66 66 70 72 72 72 71 70 69 68 67 66 64 62 60 60 62 62 65 67 67 66 65 64 62 60 61 62 63 63 62 61 59 58 58 58 63 62 60 60 62 62
65 64 65 67 71 72 72 71 70 69 68 67 64 64 60 60 60 61 61 64 65 65 65 64 63 63 61 63 63 63 63 63 60 58 59 61 61 63 64 65 64 62 61
64 64 66 67 69 72 72 71 71 69 68 66 65 64 60 60 61 61 63 64 63 63 63 62 62 63 63 63 64 63 63 62 61 57 59 61 60 61 64 65 65 65 64
63 63 65 67 70 71 71 70 70 70 69 66 65 63 60 61 61 62 63 63 63 62 62 62 63 63 64 64 64 63 63 61 57 57 58 58 60 60 64 63 64 63 64
63 63 64 68 69 69 68 69 69 69 69 67 66 64 61 61 62 62 62 63 62 62 63 63 64 65 64 63 62 61 62 60 58 58 58 58 60 61 63 62 60 61 62
64 63 64 66 67 68 68 68 67 68 68 68 67 65 64 63 62 62 63 63 63 63 64 64 65 64 61 59 58 60 59 58 57 57 55 54 60 63 62 60 59 59 58
65 63 62 63 64 63 64 67 67 67 67 68 67 65 65 64 64 62 63 64 64 65 65 66 64 59 57 59 61 61 57 54 53 53 51 55 63 63 61 59 58 57 56
65 64 63 62 62 62 61 64 66 67 68 68 66 65 64 61 63 63 61 64 65 65 65 66 62 57 55 59 58 55 52 49 47 48 52 62 61 61 60 57 56 55 55
64 63 63 62 62 62 62 62 62 62 64 65 65 64 61 59 60 60 62 64 65 65 66 65 60 53 48 45 46 48 46 47 45 50 54 61 60 59 57 56 55 54 54
63 64 65 64 63 63 62 61 61 61 61 60 62 61 59 59 62 62 62 62 59 64 62 62 58 51 47 43 43 45 45 44 44 50 58 60 58 57 56 55 53 52 51
63 64 65 65 65 64 63 63 60 61 62 60 59 58 58 59 60 60 61 61 59 59 59 59 55 48 44 40 40 40 41 43 46 49 57 58 56 55 53 51 50 49 49
63 64 64 65 65 66 65 64 63 61 62 61 61 59 58 58 59 60 61 62 60 58 58 56 51 44 40 35 35 38 39 43 47 49 52 57 55 52 51 49 48 47 48
62 63 64 65 66 65 65 66 65 63 61 62 61 61 60 58 58 60 61 62 61 60 57 55 50 43 38 35 33 36 38 42 45 48 49 53 53 51 49 46 45 46 45
51 58 62 64 65 66 66 66 65 65 63 62 62 61 61 60 59 60 60 61 61 60 58 55 48 41 36 33 33 35 38 41 44 46 47 47 49 47 46 44 43 43 44
37 44 52 60 64 65 65 65 66 66 65 64 62 62 61 60 59 59 59 60 60 60 58 52 46 40 38 35 33 32 37 41 42 43 44 44 43 41 41 42 40 39 38
37 37 40 51 59 62 64 65 66 66 66 66 64 63 62 61 60 59 58 59 59 60 57 53 47 42 39 36 33 30 33 37 41 41 40 40 40 38 35 39 37 34 34
37 38 37 39 49 57 61 65 66 66 66 66 65 64 63 62 61 60 58 58 59 59 57 52 47 42 40 37 28 27 29 33 38 39 38 36 36 36 34 35 34 31 36
36 38 38 38 40 47 55 64 65 65 64 65 65 65 63 62 61 61 59 58 58 58 57 53 48 41 36 35 31 31 30 29 31 37 37 33 33 32 32 32 27 24 26
32 33 35 37 39 40 46 56 62 63 64 64 64 64 64 63 62 61 60 59 57 57 56 54 49 42 39 33 34 35 31 28 28 30 35 34 31 31 28 28 25 25 25
32 33 33 34 36 38 40 47 57 61 62 62 63 63 63 64 63 61 60 60 58 57 56 56 49 45 40 33 33 38 34 34 30 28 30 33 30 29 28 27 25 24 23
40 42 40 36 35 36 39 41 49 56 58 58 59 61 63 63 63 62 61 60 59 57 56 55 51 47 44 37 32 31 29 31 30 28 26 28 29 28 27 27 24 23 23
42 43 43 41 39 35 37 39 45 52 55 55 57 59 60 62 62 62 61 61 60 58 56 55 51 49 46 42 36 30 27 26 26 29 28 26 26 26 26 26 24 22 22
41 42 43 41 40 41 40 37 41 45 53 54 57 58 60 60 61 61 61 61 60 59 57 56 53 49 46 44 38 32 28 28 24 23 26 27 26 25 26 24 23 22 21

GFSSE_sfc_30mbdewp_045.txt.gz
Dewpoint
63 67 73 72 71 72 71 71 71 71 71 70 69 68 68 67 66 66 64 64 64 64 64 67 65 64 64 63 63 62 62 62 63 63 63 62 60 60 59 60 61 59 59
63 67 72 72 72 72 72 72 72 71 70 69 68 67 66 65 65 64 64 66 64 64 64 66 65 65 63 62 62 61 60 61 62 61 61 60 61 62 63 63 59 60 61
64 67 68 72 73 73 72 72 71 71 70 68 67 66 65 63 63 63 65 68 67 64 67 67 66 64 62 62 62 61 61 60 61 60 60 55 57 59 59 61 59 61 61
64 66 66 71 73 73 72 71 70 70 69 67 66 65 62 61 62 62 66 68 67 67 67 65 63 61 61 62 62 63 62 61 60 60 56 56 60 65 64 62 60 62 61
63 64 68 72 73 72 72 71 70 69 68 67 65 63 61 60 61 62 66 66 66 66 65 64 63 62 62 63 63 63 63 61 59 59 58 62 62 62 65 65 65 60 61
62 62 68 69 72 72 72 71 70 69 68 66 65 62 61 61 61 62 65 65 64 64 64 63 63 63 63 64 64 63 63 61 60 57 58 60 60 64 65 65 65 65 65
60 63 65 66 71 72 72 72 71 69 68 65 65 61 61 61 62 63 64 64 63 62 62 62 63 63 64 65 63 63 63 60 58 56 56 60 59 63 64 63 64 64 63
60 62 64 67 70 71 71 71 70 69 68 66 65 62 62 62 62 63 64 63 62 62 63 63 64 64 64 63 62 62 61 60 57 56 56 58 60 63 62 61 60 61 61
61 61 64 66 68 68 69 69 69 70 69 67 66 64 63 63 63 63 63 63 63 63 64 65 65 63 61 60 60 61 59 59 57 55 52 56 63 63 61 59 59 58 58
62 61 63 63 64 64 65 68 68 68 69 69 66 65 64 63 63 63 64 64 63 62 65 66 63 60 58 60 61 60 56 55 52 52 50 60 64 62 60 59 58 57 57
62 61 60 61 61 60 60 63 66 67 67 68 66 65 64 60 61 62 60 64 65 65 66 65 60 58 60 60 59 57 55 49 46 47 57 63 62 61 59 57 56 56 56
63 61 60 59 60 59 59 62 59 59 63 65 66 64 61 58 58 59 61 64 65 65 66 65 60 56 52 49 51 49 48 47 44 49 60 61 61 59 58 56 56 55 54
64 62 60 60 59 60 59 60 59 59 60 63 65 64 61 57 59 59 62 61 60 64 63 64 60 52 48 46 45 46 46 44 43 49 60 61 59 58 57 55 54 52 51
63 64 64 62 61 60 60 60 59 59 59 58 59 59 59 57 58 59 60 59 58 59 60 61 58 53 50 46 45 45 42 42 43 48 59 59 57 56 55 52 51 51 50
61 63 64 64 63 63 62 61 59 59 60 59 57 57 56 56 57 58 58 62 58 56 57 57 56 51 47 43 41 41 40 41 44 47 56 57 56 54 52 51 50 50 49
60 61 63 64 65 65 64 63 62 61 60 61 60 58 56 56 57 58 58 61 61 57 56 56 54 49 45 41 39 40 40 41 43 46 54 55 55 53 51 49 48 48 47
56 58 61 63 64 65 65 65 66 65 63 61 61 60 59 57 56 57 58 61 62 59 57 56 53 49 44 40 38 38 40 40 42 44 47 52 52 51 49 47 46 46 47
43 46 52 59 62 63 64 65 66 66 65 63 61 61 61 59 58 57 58 59 62 60 58 57 54 48 44 40 39 38 39 40 41 42 44 46 48 46 46 46 44 44 42
38 39 40 46 54 60 62 65 65 66 65 65 64 62 62 61 60 58 58 58 58 58 58 58 53 47 44 42 40 38 37 39 40 40 42 42 43 42 42 44 42 39 38
34 35 36 38 39 47 55 59 65 66 66 65 65 63 63 62 61 60 59 58 57 58 58 58 54 49 46 44 39 36 35 37 39 40 40 39 40 40 38 40 39 35 35
35 37 37 37 37 39 45 52 61 65 65 65 65 65 64 63 62 62 61 59 58 58 58 57 55 50 47 45 39 34 35 34 34 39 40 38 36 38 37 37 37 31 35
32 34 35 37 38 39 40 43 50 63 64 64 65 65 65 64 63 62 62 61 58 58 58 57 55 51 46 43 38 40 38 34 31 32 37 37 34 35 34 34 33 28 28
35 36 34 34 36 38 41 41 45 53 61 63 64 64 64 64 64 63 62 62 61 59 58 58 56 52 46 42 41 42 42 40 33 31 32 36 34 34 32 31 30 28 28
41 44 43 41 37 36 38 40 41 45 53 58 59 60 62 63 62 64 62 62 62 61 59 58 58 54 49 43 40 39 38 35 35 31 31 32 34 32 32 31 28 27 27
43 44 44 42 41 40 37 37 39 41 46 52 55 56 56 59 62 62 62 62 61 61 60 59 57 55 50 48 43 40 37 32 32 33 30 29 31 32 31 30 29 27 26
43 43 43 41 39 41 42 40 38 40 42 47 53 54 55 57 60 62 61 62 61 61 60 59 58 57 52 52 45 42 38 36 31 28 31 31 29 29 30 30 28 26 25

GFSSE_sfc_30mbdewp_048.txt.gz
Dewpoint
67 70 72 72 73 73 73 72 72 72 72 71 70 69 68 67 66 64 64 64 65 64 67 66 65 65 64 64 63 62 62 62 62 62 62 62 62 61 63 62 62 60 63
67 69 72 72 72 73 73 72 72 72 70 70 68 67 66 66 65 64 66 65 64 64 66 65 66 63 63 63 62 61 61 61 61 61 62 61 62 62 62 60 61 60 61
66 70 71 72 73 73 73 72 71 70 70 68 67 66 65 64 63 64 68 67 64 67 67 66 64 63 63 62 62 61 60 61 61 61 62 59 62 61 60 61 60 62 61
66 68 69 73 73 73 72 72 71 70 69 68 66 64 63 62 63 67 68 68 67 68 66 64 62 62 62 62 63 62 61 60 60 60 62 62 62 65 65 64 61 61 62
66 66 71 73 73 73 72 71 71 69 68 66 65 63 61 62 62 67 67 67 66 66 65 63 62 63 63 63 63 63 62 60 60 60 61 60 62 65 66 66 64 62 63
64 69 71 73 73 73 72 71 70 69 68 66 63 61 61 61 63 66 66 66 65 65 64 63 63 63 64 64 64 63 62 61 61 59 61 62 64 65 65 66 66 66 65
66 68 69 72 72 72 72 71 69 68 67 66 63 61 62 62 63 65 65 64 64 63 63 63 63 64 65 64 63 63 61 60 60 57 60 59 62 63 63 64 63 63 63
65 65 67 69 71 71 72 71 70 69 67 66 63 62 62 62 63 65 64 63 63 63 63 64 64 65 64 63 62 62 61 60 59 56 58 59 63 63 61 61 59 59 60
63 64 64 68 69 69 70 70 70 69 67 67 64 64 64 63 63 64 64 63 63 63 65 65 65 63 61 61 61 60 59 59 57 54 58 62 65 62 61 59 58 58 59
61 64 64 67 67 67 68 69 69 70 68 67 65 64 64 64 64 64 64 64 64 64 65 65 63 61 59 61 61 58 56 56 53 52 62 65 63 62 60 58 57 56 57
61 63 63 64 65 65 66 67 68 68 68 68 66 64 63 62 62 63 63 64 65 65 66 65 61 59 61 60 59 57 55 53 48 56 64 64 63 61 59 57 56 55 55
62 60 62 61 62 61 60 64 64 66 67 68 65 64 63 61 61 60 62 63 64 65 66 65 61 58 57 54 53 52 50 49 45 60 62 62 61 60 58 57 56 55 54
63 63 60 60 60 59 60 62 60 61 62 65 65 64 63 61 60 61 62 63 63 65 64 64 61 55 50 50 49 46 47 44 45 59 62 61 60 59 57 56 54 53 52
63 63 63 61 60 60 60 61 60 60 62 64 66 64 63 60 60 61 62 61 60 62 62 64 61 56 53 48 46 47 44 43 44 60 61 61 60 58 56 54 53 52 51
63 63 64 64 62 61 61 60 60 59 60 60 64 64 63 59 58 60 60 61 60 60 60 63 61 57 50 48 45 43 41 42 44 58 59 58 58 56 53 52 52 51 51
60 62 64 64 64 64 64 63 61 60 60 60 59 58 58 58 58 59 59 61 60 59 58 59 57 53 48 46 41 41 41 41 44 56 57 57 56 55 52 51 50 50 49
58 61 63 64 64 64 65 65 65 65 63 61 62 60 58 57 58 58 59 61 61 60 59 57 56 52 47 43 40 39 40 41 42 48 56 54 54 54 53 49 48 49 48
46 50 60 63 64 65 65 65 65 66 65 65 62 62 60 59 58 58 58 61 62 60 61 57 56 52 47 42 40 39 40 40 42 43 51 53 51 50 50 49 47 47 47
39 40 41 44 60 63 64 65 65 65 65 65 65 63 62 61 60 59 58 59 62 61 60 59 56 52 47 43 40 40 39 40 41 42 44 49 50 48 46 49 47 47 44
36 38 39 41 42 43 54 64 65 66 65 66 65 65 64 62 61 60 59 58 59 61 60 59 56 52 47 45 41 39 38 39 41 41 42 43 44 44 44 44 42 39 41
34 36 37 38 39 40 41 46 62 65 65 65 65 65 65 63 63 62 61 60 59 58 59 58 57 53 49 46 41 37 37 35 35 40 41 41 41 41 41 41 38 35 37
30 33 36 37 38 40 41 41 46 61 65 65 64 64 65 65 64 63 62 61 60 59 58 58 57 54 49 47 40 37 35 36 34 33 40 40 38 39 38 39 38 35 35
41 43 41 39 37 37 39 42 42 44 58 64 64 64 64 64 64 65 63 62 62 60 58 58 58 55 51 47 41 40 41 40 34 33 32 39 37 37 36 35 36 31 32
43 45 45 43 42 39 37 38 40 41 43 53 62 64 64 64 64 64 64 63 63 62 60 59 59 57 52 46 45 43 44 40 35 32 32 34 37 35 35 33 33 30 28
44 45 45 44 42 42 41 38 38 40 42 44 47 56 60 63 63 63 62 62 63 62 62 60 60 58 55 49 45 43 43 37 34 35 31 30 33 35 34 33 31 29 28
44 44 44 42 41 41 42 42 41 39 40 41 43 49 54 56 58 62 62 62 61 62 62 62 61 59 57 53 46 47 44 42 36 33 36 32 31 31 33 32 30 28 27

GFSSE_sfc_30mbdewp_051.txt.gz
Dewpoint
68 72 73 74 73 73 72 72 72 72 71 70 69 69 68 67 65 64 64 65 64 67 67 66 64 64 64 63 62 62 62 61 60 61 63 63 62 63 63 62 61 63 66
70 72 73 74 73 73 73 72 73 72 71 70 68 67 67 65 64 66 65 64 65 67 66 65 64 64 63 62 61 61 61 61 61 62 63 62 62 61 60 61 60 61 64
69 71 73 73 73 73 73 72 71 69 68 68 67 66 65 64 64 68 66 65 67 67 66 64 64 63 62 61 61 60 61 62 61 61 62 63 65 62 61 62 62 62 60
70 71 72 73 73 73 72 71 70 68 67 66 66 64 63 63 68 68 66 66 68 67 65 63 63 62 62 62 62 60 60 61 61 62 62 63 65 66 66 61 62 64 65
68 70 73 73 74 73 72 71 70 69 67 66 64 63 62 63 68 68 67 68 67 65 63 63 62 62 63 63 63 62 61 62 62 61 62 63 65 66 66 65 64 65 66
67 71 73 74 73 72 72 71 70 68 66 65 63 61 62 64 67 67 67 67 66 66 64 63 63 64 64 64 63 62 62 62 60 61 63 65 65 65 65 65 66 65 64
69 70 73 73 73 72 72 71 70 68 66 64 62 62 62 64 66 66 65 65 65 64 63 63 63 65 64 64 63 62 62 61 60 59 60 62 63 62 63 63 63 63 63
68 69 72 72 72 72 71 71 70 69 67 64 63 63 62 63 65 65 65 64 64 63 63 63 64 65 64 63 62 61 61 60 58 58 59 63 64 62 61 60 60 60 60
66 67 70 70 70 70 71 70 70 68 67 65 64 64 63 64 64 65 64 63 63 63 64 65 65 64 62 62 61 59 58 57 55 58 62 64 63 62 60 59 58 58 58
64 65 67 68 69 69 70 70 70 68 67 65 65 65 64 64 64 65 64 64 64 65 66 65 63 61 60 61 59 57 57 55 54 61 64 64 63 62 59 58 57 57 57
63 64 66 67 67 67 68 69 69 68 67 66 65 64 63 63 64 64 64 64 65 66 66 65 61 60 61 60 58 56 55 53 51 63 64 64 62 60 58 57 56 56 55
62 63 65 65 65 65 66 67 67 68 68 66 65 63 62 62 62 62 63 64 65 66 67 64 61 60 58 56 55 54 52 49 58 62 64 63 62 60 58 57 56 55 55
63 63 63 64 64 64 63 64 64 66 67 67 65 63 62 61 61 60 62 63 64 65 66 65 61 57 54 53 50 47 47 46 58 61 62 62 60 59 58 56 55 54 54
62 63 64 62 61 60 63 61 61 62 64 65 65 64 63 62 60 61 61 62 62 64 63 64 61 57 52 50 50 47 47 43 52 60 62 62 60 59 57 55 54 53 52
62 62 64 64 61 60 62 61 60 60 62 63 66 65 64 62 60 61 61 60 60 61 62 63 62 60 55 52 46 46 43 42 50 60 61 61 60 58 56 54 53 52 52
63 62 63 64 64 63 62 60 60 60 61 62 65 65 64 62 60 60 61 61 60 60 60 63 63 60 56 50 46 43 41 41 46 59 59 59 59 58 54 53 53 52 51
62 63 63 63 63 64 64 64 64 64 61 61 61 62 63 61 59 59 60 61 60 60 59 59 60 58 52 48 44 40 41 41 45 57 57 57 57 56 55 52 52 52 51
56 61 64 64 64 64 64 64 65 65 65 65 62 61 58 58 58 58 58 59 61 60 60 58 57 55 49 46 42 39 39 41 42 55 56 55 54 54 55 53 51 51 50
40 44 57 63 64 64 64 64 64 64 64 65 65 65 61 59 58 58 58 59 62 61 60 60 58 54 50 46 41 40 39 40 41 44 54 53 52 52 51 53 51 51 50
36 37 38 42 61 64 65 65 65 65 64 65 64 65 65 63 60 59 58 58 61 61 60 60 58 54 50 47 42 40 40 40 41 41 46 52 51 50 48 49 50 48 50
31 33 36 37 38 41 49 60 64 64 64 64 65 65 64 65 63 61 60 59 59 60 60 60 58 56 50 47 43 40 39 38 39 41 41 44 49 48 46 46 45 42 45
40 41 39 38 36 37 41 42 48 63 65 65 65 65 65 65 65 64 62 61 60 59 59 59 59 55 53 48 44 37 36 35 35 35 40 41 42 43 44 43 41 38 39
43 44 44 43 41 39 37 38 39 43 54 64 64 64 64 64 64 64 64 63 62 60 59 58 58 57 54 51 45 42 39 38 36 35 34 41 40 41 40 42 40 37 35
43 44 45 44 43 42 40 38 37 38 40 47 59 63 64 64 64 63 63 63 62 62 61 60 59 58 56 52 49 43 45 42 38 38 33 34 40 38 39 38 39 36 34
43 44 44 43 41 42 42 41 39 38 40 42 43 45 53 63 64 64 63 63 62 62 62 61 60 59 56 55 51 47 46 43 37 37 37 35 37 38 38 36 35 34 31
44 44 43 42 42 43 42 42 42 42 41 40 40 41 43 49 57 62 62 62 62 61 62 62 61 60 58 56 53 50 45 44 43 36 39 37 37 37 37 36 35 34 30

GFSSE_sfc_30mbdewp_054.txt.gz
Dewpoint
70 73 74 73 72 72 72 72 72 72 71 70 69 69 67 66 65 64 64 65 67 67 66 65 65 65 64 63 62 62 61 60 61 63 64 64 63 63 62 62 64 66 66
71 73 74 73 73 73 73 73 72 72 71 70 69 68 66 65 65 65 64 67 67 65 64 64 64 64 63 62 61 62 61 61 61 62 63 63 63 61 60 61 62 64 64
71 72 74 74 73 73 73 72 72 71 70 68 67 66 65 63 67 66 65 67 67 65 65 64 63 63 61 60 61 63 62 61 62 62 63 65 63 61 62 63 62 60 61
70 72 72 74 74 73 72 71 70 66 66 67 66 64 63 67 68 65 66 68 68 65 64 63 62 62 62 61 61 61 62 61 62 61 61 65 66 66 62 64 64 66 66
70 71 71 73 73 73 72 70 68 67 67 66 65 63 63 68 68 66 66 68 66 64 64 62 62 62 63 62 62 62 62 63 62 62 64 65 66 66 64 65 66 66 66
70 72 72 73 73 72 72 70 69 67 66 65 63 62 64 68 68 68 68 67 65 65 63 62 63 64 64 63 63 62 62 62 61 63 65 66 65 65 65 66 65 64 65
70 72 73 73 73 72 71 70 69 67 65 63 62 62 65 67 67 67 67 66 65 64 63 63 64 64 64 63 62 62 62 60 60 62 63 63 63 64 63 63 63 63 63
69 72 73 73 72 72 71 71 69 68 65 63 62 62 64 66 66 66 66 65 65 64 63 64 64 64 64 63 62 61 60 59 59 59 62 63 63 61 61 61 61 60 60
69 71 72 72 71 71 71 71 70 68 66 64 64 64 64 65 65 65 65 65 64 63 63 64 64 64 63 62 61 59 58 58 57 60 63 63 63 62 60 60 59 58 58
68 70 70 70 69 69 70 70 69 68 66 65 65 65 64 64 65 65 65 65 64 64 65 65 64 63 62 61 60 58 57 56 58 62 64 63 63 61 59 58 57 57 57
65 67 68 68 68 68 69 69 68 68 66 65 65 64 63 64 65 65 64 64 65 66 66 65 63 61 61 60 59 57 56 52 59 63 64 65 63 61 59 57 57 56 56
63 65 67 67 66 67 68 69 68 67 66 65 65 64 63 63 63 64 63 64 66 66 67 65 62 61 60 57 56 56 53 49 59 63 64 64 62 61 59 57 57 56 55
62 63 65 65 65 66 66 67 67 67 67 65 64 63 62 62 62 62 62 63 64 65 66 66 62 59 57 53 51 50 48 48 60 63 64 63 62 60 59 57 56 55 54
63 63 63 65 64 65 64 65 65 66 66 66 65 63 62 61 60 61 61 62 63 64 65 64 62 59 54 51 50 49 46 45 59 61 63 63 61 60 58 56 55 54 54
62 63 64 63 63 63 63 62 62 63 65 66 66 64 63 62 60 60 60 61 62 63 63 63 62 61 58 52 50 49 47 44 50 60 61 62 62 60 58 56 55 54 53
62 62 64 63 62 61 62 61 60 60 61 63 65 65 64 63 61 60 60 60 60 60 62 62 62 61 60 56 51 46 45 43 46 59 60 61 61 60 58 55 55 54 53
62 62 62 63 64 62 61 61 60 60 61 61 63 65 65 64 61 61 61 60 60 59 60 60 62 62 60 57 51 46 43 41 42 57 59 59 60 59 58 55 54 54 53
62 63 62 63 63 64 63 63 63 65 63 61 61 63 64 64 62 60 60 60 61 60 59 59 59 60 58 56 52 45 41 41 41 53 58 58 58 57 57 56 54 53 53
54 60 62 63 64 63 64 64 64 65 65 65 65 63 61 61 61 60 59 59 61 61 60 59 58 57 55 52 48 44 41 40 41 45 56 56 56 55 55 56 55 54 54
37 39 43 61 64 64 64 64 64 64 64 65 65 65 65 63 59 58 58 58 60 61 60 60 59 57 54 53 47 43 41 40 41 42 50 55 54 53 53 52 54 53 54
36 35 36 37 39 55 62 63 64 63 64 63 64 64 64 65 65 62 60 59 59 60 60 60 59 58 56 50 47 42 40 40 39 41 42 51 53 52 51 50 51 50 52
41 41 41 40 38 37 41 44 54 63 64 64 64 64 65 64 64 64 62 61 60 59 60 60 59 57 56 51 49 42 42 41 38 38 40 42 48 51 50 49 48 46 47
43 44 44 43 43 41 38 38 40 43 50 61 63 64 64 65 64 64 64 63 62 60 59 58 59 58 57 53 50 50 42 43 39 37 36 39 42 45 48 48 46 44 42
43 45 45 43 41 42 41 39 37 37 38 43 51 57 57 63 63 64 64 63 63 62 61 60 59 58 58 56 52 50 48 42 41 42 36 35 40 41 42 44 44 42 39
44 43 43 42 42 42 42 43 41 40 40 41 42 41 43 48 55 61 63 63 62 61 61 61 60 59 58 58 53 50 48 47 42 42 43 39 40 40 41 40 42 41 39
44 43 43 43 43 44 44 43 43 43 43 43 43 43 44 45 49 54 58 62 62 61 61 60 60 59 59 58 57 55 51 47 46 43 41 43 40 41 41 41 39 40 36

GFSSE_sfc_30mbdewp_057.txt.gz
Dewpoint
69 73 73 72 72 72 72 71 71 71 71 70 69 68 66 65 64 64 64 67 68 66 66 65 65 65 63 62 63 61 61 62 63 64 64 64 63 61 63 64 67 66 66
71 73 73 72 72 72 72 72 72 72 71 70 69 67 65 65 65 64 67 68 65 64 64 63 64 63 62 62 63 62 62 63 63 63 63 63 62 60 61 62 64 65 64
71 73 73 73 73 73 73 72 72 71 70 69 67 66 65 66 66 65 67 67 65 65 64 63 63 62 61 63 63 62 62 62 63 64 65 64 62 62 62 63 61 61 62
72 73 73 73 73 73 72 72 71 70 68 67 66 65 63 67 66 66 68 68 65 65 64 62 62 62 61 62 63 62 62 62 61 61 63 66 66 63 64 65 66 66 64
71 73 73 74 73 72 72 71 69 67 67 66 65 63 67 68 65 66 68 68 66 65 63 62 62 62 61 62 62 63 63 63 64 63 65 65 66 63 65 66 65 66 66
71 71 73 73 73 72 71 70 69 67 66 65 64 64 68 67 66 66 68 66 65 65 62 62 63 63 63 63 63 63 63 63 63 64 65 66 65 66 66 66 65 65 66
70 70 71 73 73 72 71 70 68 66 65 64 63 64 68 67 67 67 65 65 65 64 63 63 64 64 64 63 63 63 63 62 62 63 63 63 64 64 64 64 63 63 63
70 71 71 72 72 72 71 69 68 66 64 62 62 64 68 67 67 66 67 66 65 64 63 63 64 64 63 63 62 62 60 60 60 61 62 62 62 61 62 61 61 60 60
71 71 72 72 72 71 71 70 69 67 65 64 64 64 65 66 66 65 66 66 65 64 63 64 64 64 63 62 61 60 59 60 57 61 63 63 63 60 61 60 59 58 58
70 70 71 71 71 71 70 70 69 68 66 65 65 65 65 65 65 65 65 65 64 64 64 65 64 64 63 62 60 58 57 58 57 61 63 63 63 60 59 58 58 58 57
68 70 70 70 69 69 69 70 69 68 66 65 65 65 64 64 65 65 64 64 65 66 66 65 64 62 61 61 60 58 55 54 59 62 63 64 63 61 59 58 57 56 56
65 67 68 68 68 68 68 69 68 68 66 65 65 64 63 63 64 65 64 64 65 66 66 66 64 62 61 56 55 55 53 49 56 62 63 65 63 61 59 57 57 56 56
64 65 67 67 67 67 68 68 67 67 65 64 64 63 62 62 63 63 62 63 64 66 65 66 63 61 58 53 52 51 49 47 56 62 63 65 63 61 60 58 56 56 55
63 64 65 66 65 66 66 67 67 66 66 64 63 63 61 61 61 61 61 62 63 63 64 65 63 60 57 52 52 50 47 47 50 61 62 64 63 61 60 58 56 55 55
62 63 64 65 65 65 64 65 65 66 66 65 64 63 62 61 60 60 60 60 62 62 63 63 63 61 59 56 50 49 49 47 45 60 61 63 63 61 60 58 56 55 55
62 63 64 63 64 63 63 63 63 64 65 65 66 65 63 62 61 60 60 60 60 61 62 62 62 61 60 59 56 51 48 47 44 53 60 61 62 62 60 58 57 55 54
62 63 63 63 63 62 63 62 61 60 61 62 64 65 65 63 62 61 60 60 60 60 60 61 61 61 61 60 58 53 48 45 43 47 57 60 61 62 61 58 57 56 54
62 62 62 64 63 61 62 62 61 60 60 61 61 63 65 64 63 61 61 61 61 60 59 59 59 59 60 60 58 56 50 45 42 43 54 58 59 60 60 60 58 56 55
60 61 62 63 63 63 62 62 62 62 62 61 61 61 63 64 64 62 61 61 61 60 60 59 58 58 57 57 57 55 52 46 42 42 49 56 58 58 57 58 58 57 56
38 50 57 62 63 63 64 64 64 64 64 65 65 64 62 61 62 62 61 60 60 61 60 60 59 57 57 56 54 52 48 45 42 41 44 53 56 56 56 55 56 56 56
36 37 38 46 46 62 63 63 63 62 63 63 64 64 65 65 63 60 59 59 59 59 60 60 59 58 57 52 50 49 46 43 41 41 42 47 54 55 54 54 53 54 54
40 40 39 38 38 39 47 51 60 62 63 64 64 64 64 64 64 64 63 61 60 59 59 59 60 58 57 54 54 46 50 48 41 40 41 42 45 53 53 52 51 51 51
42 43 43 43 42 40 38 38 40 42 46 56 60 62 63 64 64 64 64 63 61 60 59 59 59 58 58 54 52 54 48 47 44 41 39 39 41 46 51 51 50 50 49
43 45 44 42 42 42 41 39 37 36 37 40 48 48 46 49 56 62 63 63 62 61 60 60 59 58 58 57 52 51 50 45 47 47 40 37 37 40 43 48 49 49 48
44 43 42 43 43 43 42 42 41 40 40 41 41 41 41 43 46 53 57 61 62 61 61 61 60 59 58 58 55 52 51 50 45 44 48 48 42 41 42 43 45 47 46
44 43 43 43 44 45 45 45 44 43 43 43 44 44 46 48 51 52 53 54 59 61 61 60 60 59 58 58 58 56 53 51 48 46 44 46 45 45 44 43 43 44 44

GFSSE_sfc_30mbdewp_060.txt.gz
Dewpoint
67 72 73 72 72 72 72 71 71 71 70 69 68 67 66 65 64 64 67 67 67 66 65 65 64 64 63 63 62 62 63 63 64 64 64 63 61 64 65 66 66 66 65
69 73 73 72 72 72 72 72 72 72 71 69 68 66 65 65 64 67 68 66 65 64 63 64 64 63 63 63 63 64 64 64 63 63 63 63 62 62 63 64 65 65 64
70 73 72 72 72 73 73 72 72 71 70 69 67 66 65 66 65 68 67 66 65 65 63 63 63 62 64 63 63 63 63 63 64 64 65 64 62 63 64 62 61 62 62
72 72 72 73 73 73 72 71 71 70 68 67 67 64 65 66 66 68 67 66 66 64 62 63 62 62 64 64 63 63 63 62 62 63 65 66 64 64 66 66 66 65 62
72 72 72 73 73 73 72 72 70 68 67 66 65 63 68 66 66 68 68 66 66 64 62 62 62 62 63 63 63 64 64 65 64 65 65 65 64 65 66 66 66 66 66
72 72 73 73 73 73 72 70 68 67 66 65 64 66 68 65 66 69 68 66 65 63 62 62 62 63 63 63 63 63 63 64 63 64 65 65 66 66 66 65 65 65 66
71 72 73 73 73 72 71 69 69 67 66 65 64 67 69 68 67 69 67 66 65 63 63 63 64 64 64 63 63 63 64 63 63 63 63 63 64 63 64 64 63 63 62
70 70 70 72 72 71 70 69 68 66 64 63 63 67 67 66 67 66 66 66 65 64 63 64 64 64 63 62 62 62 62 61 61 61 62 62 62 61 62 61 60 60 60
70 69 70 71 72 71 70 69 68 66 64 63 64 66 67 66 67 67 67 66 65 64 63 64 64 64 63 62 61 60 59 59 58 61 63 63 62 60 60 59 58 58 58
70 70 70 71 71 71 70 69 68 67 65 65 65 65 65 66 66 66 66 66 65 64 64 64 64 64 63 62 61 59 58 59 57 61 63 63 62 60 60 58 58 58 57
68 68 69 70 70 70 70 69 68 67 66 65 65 65 65 64 65 65 65 65 65 65 65 65 65 63 61 60 60 58 54 54 58 61 63 63 64 61 60 58 57 56 56
65 66 68 69 69 69 69 69 68 67 66 65 64 64 63 63 64 64 64 64 65 66 66 66 64 62 60 56 55 56 53 49 54 60 63 64 64 62 60 58 57 56 56
66 67 68 68 67 68 68 68 68 67 65 64 64 63 62 62 63 64 63 63 64 65 65 66 64 61 59 55 52 51 51 48 49 59 62 64 64 62 61 58 58 56 56
64 65 67 67 67 67 67 67 67 66 65 64 63 62 61 60 60 61 61 61 62 63 63 64 64 61 59 54 52 50 49 47 47 56 61 63 65 63 61 59 58 56 55
63 64 65 66 65 65 66 66 66 66 65 64 63 63 62 60 59 59 59 59 60 62 62 62 63 62 60 58 54 50 49 49 47 51 60 62 64 64 61 60 58 57 56
63 63 64 65 65 65 64 65 65 66 66 65 64 63 62 61 60 59 59 59 59 61 61 62 62 62 61 60 58 57 52 49 47 45 55 60 62 63 62 60 59 58 56
62 63 63 63 64 64 64 64 63 64 64 65 65 65 64 62 61 61 60 59 60 60 60 60 61 61 60 60 59 59 56 51 47 44 48 56 59 62 63 61 59 58 57
62 62 63 64 63 63 63 63 62 61 61 62 63 64 65 64 63 62 61 61 61 60 60 59 59 59 59 59 58 58 58 54 49 45 45 53 57 60 61 62 61 59 58
61 61 62 63 63 62 62 63 62 62 60 60 61 61 63 64 64 63 62 62 61 60 60 59 59 58 58 58 58 58 57 56 53 48 44 47 54 58 59 60 61 60 59
44 51 60 62 63 63 62 62 62 62 62 62 61 61 61 62 64 63 63 62 61 60 60 60 59 58 58 58 57 56 54 53 50 48 46 46 51 55 57 58 58 59 58
35 37 41 51 58 63 63 62 62 62 62 63 64 64 64 63 62 61 62 61 60 60 60 60 59 59 58 55 53 53 51 49 47 46 45 44 47 53 55 56 56 56 56
38 38 38 39 39 49 57 60 62 62 63 63 63 63 64 64 64 64 63 61 59 59 59 59 59 58 58 55 55 50 53 52 47 44 43 43 42 49 53 54 54 54 54
40 41 41 42 41 39 38 40 42 43 46 53 59 61 62 62 63 64 64 63 63 61 60 59 59 58 57 55 54 56 51 49 47 46 42 41 41 43 48 52 52 52 52
43 44 42 42 42 42 41 39 36 36 37 40 44 45 43 44 46 53 59 62 62 62 61 60 59 58 58 57 53 53 52 48 50 49 46 42 38 39 41 47 50 50 51
44 42 42 43 43 42 42 42 41 41 41 42 42 42 44 46 51 52 53 54 58 60 60 61 60 59 58 58 55 53 53 50 48 48 49 50 46 44 42 42 44 48 49
43 42 43 44 44 45 45 45 44 43 43 43 44 44 47 49 51 50 51 51 53 56 58 59 60 59 58 58 57 56 54 52 50 49 47 47 48 48 45 44 43 43 46

GFSSE_sfc_30mbdewp_063.txt.gz
Dewpoint
66 71 73 73 72 72 71 70 71 69 69 68 68 67 65 65 64 67 68 67 66 66 64 64 65 65 64 63 64 63 63 63 63 64 63 63 65 66 66 67 66 65 65
68 71 73 73 72 72 72 71 71 71 70 69 67 66 64 63 66 68 67 65 64 63 64 63 64 64 64 65 65 65 65 64 64 64 63 63 63 64 64 64 65 64 63
69 71 71 72 72 72 72 72 71 71 70 68 66 65 66 66 68 68 66 66 65 63 63 63 64 64 64 64 64 64 64 64 65 66 66 62 64 66 66 63 62 62 62
70 70 70 71 72 73 73 72 71 70 68 68 66 66 65 67 69 67 66 66 64 62 63 63 63 64 64 64 64 64 63 63 66 66 65 63 63 66 66 66 65 63 65
70 70 70 73 73 73 72 71 70 68 67 67 63 66 66 67 68 68 67 66 64 62 63 62 63 64 64 64 64 64 65 65 65 65 65 64 65 66 66 66 66 66 66
70 70 72 73 73 73 72 70 69 67 66 65 65 67 67 67 68 69 67 66 64 62 62 62 63 64 64 64 64 64 65 64 64 64 65 65 66 66 65 65 64 64 64
70 70 71 72 73 72 71 70 68 67 66 64 66 68 67 66 69 69 67 66 64 63 63 63 64 64 64 64 63 64 64 63 63 63 63 63 63 63 63 63 62 62 62
70 71 71 72 72 71 70 70 68 66 65 64 66 68 69 69 68 66 66 66 65 63 64 64 64 64 63 63 62 62 63 62 61 61 62 62 62 61 62 60 59 59 59
69 70 70 70 70 71 70 69 68 66 65 65 67 68 65 65 66 67 67 66 65 64 64 64 64 64 63 62 61 60 61 59 59 61 62 62 62 60 61 59 59 58 58
69 69 69 70 69 69 68 68 67 66 65 65 65 66 66 66 66 66 66 66 65 64 64 65 65 64 63 62 60 58 60 59 58 61 62 62 63 60 60 59 58 57 57
69 68 69 69 69 69 68 67 67 66 65 65 64 65 64 64 65 65 65 65 65 65 65 65 65 63 61 60 60 58 54 56 58 60 62 63 65 61 60 58 57 56 56
66 67 67 69 69 69 68 68 67 66 65 64 64 64 64 64 64 64 64 64 65 66 66 66 65 62 60 56 55 56 55 52 54 59 61 63 65 62 60 58 58 56 56
64 65 66 68 69 69 68 68 68 67 65 64 64 63 63 63 63 64 64 63 64 65 65 65 65 62 60 56 53 52 53 52 50 53 59 63 65 64 62 60 58 56 56
65 66 67 68 68 68 68 68 68 67 65 64 63 63 62 60 61 62 63 62 62 63 64 64 64 63 61 58 54 51 50 49 48 50 57 62 64 64 62 61 59 58 56
64 65 67 68 67 67 67 67 67 67 66 64 64 63 62 61 59 59 60 60 60 61 62 62 63 63 62 61 59 54 50 50 49 48 53 59 62 65 63 61 60 59 57
64 64 65 66 67 66 66 66 66 67 66 66 64 63 63 61 61 60 59 58 58 60 61 61 61 62 62 61 60 59 57 55 51 49 48 53 60 63 64 62 60 60 58
63 63 64 65 66 65 65 65 65 66 66 66 66 65 64 63 62 61 60 60 59 59 60 60 61 61 61 61 60 59 59 58 56 50 48 49 53 59 62 63 61 60 59
63 63 63 64 64 65 64 64 64 64 64 65 65 65 65 64 63 62 61 61 61 61 61 60 60 60 60 59 59 59 59 59 58 55 51 48 50 53 57 62 63 61 60
62 62 62 63 64 63 64 64 64 63 63 62 62 62 63 64 64 64 62 62 62 62 61 61 60 60 59 59 59 59 59 59 58 57 55 52 51 51 54 58 62 63 62
49 61 62 63 63 64 63 63 63 63 63 63 62 61 61 62 63 64 63 63 63 62 62 61 61 60 60 59 58 58 58 58 57 56 55 53 52 52 52 55 57 59 61
34 42 52 59 62 63 63 62 62 62 63 63 63 63 62 62 62 63 63 63 63 62 62 62 61 60 60 59 58 57 56 55 54 54 53 51 50 51 51 52 54 56 58
36 37 39 47 52 60 62 63 63 63 63 63 64 64 64 64 65 64 63 62 62 61 61 60 60 59 59 57 58 54 55 54 52 50 48 47 47 46 48 50 51 53 55
38 40 40 41 40 42 49 49 49 49 50 55 59 61 60 58 62 64 64 64 64 62 61 61 60 59 59 57 57 57 53 50 49 50 47 45 44 44 45 48 50 51 53
41 44 42 43 42 42 41 39 40 44 46 42 44 46 44 44 46 51 55 58 61 62 61 61 60 60 59 58 55 55 55 52 53 51 50 47 41 42 42 45 47 49 51
44 43 43 43 43 43 43 42 41 40 41 42 43 44 46 48 52 52 52 53 55 57 58 58 60 59 59 59 57 55 54 52 51 50 50 51 50 48 46 45 44 45 47
43 43 44 44 44 45 45 45 44 43 43 43 44 45 48 50 51 49 50 51 52 54 55 56 58 60 59 58 58 57 55 53 51 50 49 49 49 50 48 48 47 46 46

GFSSE_sfc_30mbdewp_069.txt.gz
Dewpoint
64 69 73 71 71 70 70 70 70 70 68 68 68 66 65 68 68 68 66 66 65 66 67 66 65 65 65 64 64 64 63 62 63 64 65 66 65 66 66 65 62 61 62
64 68 73 72 72 72 71 70 70 69 69 68 66 64 66 68 68 65 64 64 64 64 67 65 65 65 65 65 65 66 66 66 64 63 63 65 67 64 63 63 63 65 65
64 67 70 72 72 72 71 70 70 69 68 67 65 64 69 68 66 66 64 62 63 64 66 65 65 65 65 64 64 64 66 67 66 64 64 64 65 67 64 63 66 67 67
63 66 68 73 73 72 71 71 70 68 67 66 66 67 69 67 66 65 63 63 63 64 65 64 65 65 65 65 64 64 65 66 66 66 61 63 64 67 67 66 65 66 65
62 64 69 73 73 72 71 71 69 68 67 66 66 68 69 68 67 66 63 64 64 64 65 65 65 65 65 65 65 64 63 64 63 61 64 65 63 65 65 65 64 64 65
61 63 70 73 72 73 72 70 69 67 66 66 67 67 70 69 68 66 63 63 63 63 64 65 65 65 64 65 65 63 64 63 63 58 59 61 62 63 63 61 61 61 62
60 66 68 72 73 72 71 70 68 66 65 67 68 67 69 69 68 66 64 63 63 63 64 65 64 64 64 65 65 63 62 60 56 57 58 60 62 62 60 60 60 59 60
61 64 68 72 72 71 70 69 68 66 66 67 68 67 69 70 68 67 66 64 64 64 64 64 64 64 63 63 63 63 61 61 56 56 58 60 62 62 61 60 58 57 58
62 63 65 69 70 70 70 69 68 66 67 68 68 68 69 67 65 66 66 65 64 65 65 64 64 64 63 62 61 61 61 59 57 55 55 60 61 62 61 59 58 57 57
63 63 67 67 66 66 66 68 67 66 66 68 67 66 66 66 66 67 66 66 64 64 65 65 64 64 63 62 60 59 60 59 56 55 55 60 64 62 61 59 58 57 56
65 66 67 65 65 64 64 66 65 65 65 66 65 65 63 61 63 63 65 65 65 65 65 65 64 63 61 60 59 58 56 55 54 53 53 60 63 62 61 59 57 57 56
64 66 65 65 65 65 64 64 62 61 57 56 61 62 59 58 59 62 64 65 65 65 65 65 65 63 59 54 56 56 55 52 52 52 54 60 63 64 62 60 58 57 56
64 63 65 66 65 65 64 64 61 61 59 56 52 53 53 54 57 56 59 61 61 64 61 63 63 61 56 55 52 50 50 51 50 50 55 58 62 63 64 62 60 58 57
63 64 65 64 65 64 64 64 61 60 60 59 58 56 56 54 53 52 54 56 58 58 55 56 55 56 57 57 55 53 50 49 49 48 50 55 59 62 63 63 62 60 58
64 64 65 65 66 64 64 64 63 61 61 60 60 59 58 57 55 54 52 52 53 53 52 53 55 57 57 57 56 55 54 52 51 51 51 54 55 60 63 63 62 62 61
64 64 65 65 65 64 64 64 61 60 60 61 61 61 60 58 57 57 57 56 52 52 52 53 56 58 58 58 58 58 57 57 56 56 55 54 53 55 60 62 62 61 60
63 64 63 64 64 64 65 65 62 60 60 60 60 61 62 60 59 58 58 59 59 57 56 57 58 59 59 59 59 58 58 58 58 57 57 57 55 54 55 59 61 62 61
61 63 63 63 63 64 63 63 61 61 60 61 61 62 62 61 61 60 59 60 61 61 60 60 60 59 59 59 58 58 58 58 58 58 58 58 58 56 57 56 58 60 61
61 61 63 64 64 64 63 63 63 62 62 62 62 62 62 62 62 62 61 61 61 61 61 61 60 60 60 59 59 59 59 59 59 58 58 58 59 59 58 58 57 57 61
58 60 62 64 64 64 64 64 64 64 63 63 62 62 62 62 62 62 62 62 61 61 61 61 60 61 61 61 60 59 59 59 59 59 59 58 57 58 58 57 58 57 57
40 56 60 62 63 63 63 63 63 64 64 64 63 63 63 62 61 62 62 63 62 62 62 61 60 61 61 62 60 60 60 59 59 58 58 57 56 55 54 55 56 56 56
35 37 49 59 61 62 63 63 63 63 64 63 64 64 64 64 63 63 63 63 64 65 64 63 62 62 62 62 60 59 56 55 55 57 55 55 54 53 52 52 52 52 52
36 37 37 44 55 60 62 63 64 63 63 63 63 64 64 64 64 64 65 64 64 65 64 64 63 62 61 61 61 59 54 51 52 53 53 53 52 51 51 50 51 51 51
38 42 41 40 43 49 54 62 60 60 60 60 59 59 59 53 53 53 56 58 60 62 62 62 61 61 61 59 60 61 60 59 54 51 53 53 51 51 51 51 49 50 50
42 46 44 43 43 43 45 49 54 56 50 47 45 45 44 46 49 50 50 51 51 52 54 55 56 57 57 57 56 57 58 58 57 55 53 52 53 53 52 52 50 49 49
44 47 46 44 43 44 44 44 43 43 43 44 45 44 45 47 50 50 50 50 52 52 53 54 55 56 55 55 56 56 55 55 54 54 54 53 53 52 49 50 50 49 47

GFSSE_sfc_30mbdewp_072.txt.gz
Dewpoint
69 72 72 72 71 71 70 70 70 69 68 68 66 66 68 69 67 66 65 66 68 68 67 66 65 65 64 65 65 64 62 63 63 64 66 66 65 65 63 65 66 64 62
69 71 72 72 71 71 71 70 70 69 69 66 64 67 69 67 65 64 64 64 66 67 67 66 64 64 65 65 66 66 66 64 63 63 67 68 65 63 64 67 67 67 63
68 70 72 72 72 71 71 70 70 69 68 66 65 69 68 66 65 63 63 64 65 66 66 63 64 65 64 64 65 66 66 66 66 65 64 66 66 67 67 66 67 65 62
68 70 71 73 72 72 71 70 69 68 67 66 67 69 67 66 64 62 63 63 65 63 63 64 65 65 65 65 63 64 66 65 65 66 64 63 63 66 66 65 64 66 66
67 68 71 73 72 72 71 70 69 67 67 67 69 69 68 67 65 62 64 64 65 64 64 65 65 65 65 65 63 63 64 64 63 63 63 63 63 63 63 62 62 63 64
65 71 73 73 72 72 71 70 69 67 66 67 68 70 69 68 65 63 64 64 65 65 65 65 65 65 65 64 63 63 62 61 59 60 62 64 63 61 60 60 59 60 61
68 70 72 72 72 72 71 69 68 66 67 67 68 70 69 68 66 63 64 64 64 65 65 65 65 64 65 65 63 62 62 61 59 59 61 62 62 61 60 59 58 59 60
67 68 71 72 72 71 70 69 67 66 68 68 68 69 70 68 67 65 64 65 64 64 65 64 64 64 63 62 62 63 61 60 59 58 61 62 63 62 61 59 57 57 58
65 68 70 71 71 70 69 69 67 67 69 69 68 69 69 67 66 66 65 64 65 65 64 64 64 64 63 62 61 61 60 59 59 56 61 61 62 62 61 59 58 57 57
64 66 69 69 68 68 68 68 66 67 68 68 69 68 66 66 66 67 66 65 64 65 65 64 64 63 63 61 60 58 58 59 58 56 60 62 64 62 61 59 58 57 56
64 65 68 67 67 66 66 66 65 65 67 66 66 65 64 64 65 65 65 65 65 65 65 65 64 63 60 59 58 57 57 56 56 54 60 62 63 62 61 60 58 57 56
65 66 67 65 64 64 65 64 62 62 65 65 64 63 63 62 63 64 65 65 65 65 65 65 64 63 60 58 57 57 55 55 53 52 59 60 61 63 63 60 59 57 56
65 66 66 65 65 64 65 64 62 61 56 59 62 62 60 59 61 63 63 63 64 64 63 65 64 63 60 58 56 53 53 50 51 52 58 58 59 61 63 63 60 59 57
65 65 65 66 65 65 65 64 63 62 60 56 54 56 54 54 56 55 61 61 61 63 61 62 61 62 59 57 56 54 52 50 50 50 55 56 58 60 61 63 64 61 60
64 64 65 66 65 65 64 63 64 61 61 60 58 58 57 57 55 53 54 56 57 57 55 55 55 56 57 57 57 55 54 53 51 50 51 54 55 58 60 61 62 63 62
64 64 65 65 65 65 64 64 63 61 61 61 61 61 59 59 57 57 56 55 53 53 53 53 55 58 58 59 58 58 57 57 56 55 55 55 54 55 58 59 61 62 62
63 64 65 65 65 64 64 64 63 62 61 61 62 61 61 60 59 58 58 59 58 55 54 55 57 58 59 59 59 59 59 58 58 58 58 58 56 54 55 58 59 61 62
62 63 64 65 65 64 65 65 65 61 60 61 61 61 62 61 61 60 59 59 61 60 59 60 60 60 60 60 59 59 59 59 58 58 58 59 58 57 56 57 59 60 60
61 63 63 63 64 64 64 64 64 62 62 61 62 62 62 62 62 62 61 61 61 61 62 61 61 61 59 58 59 59 59 60 59 60 59 59 59 59 59 59 58 58 59
60 62 63 64 64 64 64 64 64 64 63 63 63 62 63 63 63 63 63 62 61 60 60 61 60 60 61 61 60 60 60 60 60 60 59 59 59 58 58 57 58 59 57
44 60 62 63 64 64 64 63 64 63 64 64 64 64 62 62 62 62 63 63 62 61 61 61 61 60 60 61 61 60 60 61 60 60 59 59 58 55 55 54 55 56 56
37 48 59 63 63 64 64 64 64 64 65 65 65 64 64 64 64 63 63 63 64 64 64 64 63 62 62 62 60 59 56 54 55 57 59 57 55 54 53 52 52 52 52
36 38 44 56 62 63 63 64 64 63 63 63 64 64 64 63 63 64 65 64 64 64 64 64 63 62 61 61 61 58 54 51 54 54 54 54 52 52 50 50 50 51 51
37 39 39 41 54 56 60 63 63 61 61 62 62 62 57 54 53 53 55 58 61 62 63 62 62 60 60 59 59 60 60 58 54 51 54 53 52 50 51 51 50 50 50
43 43 42 42 44 48 51 59 60 60 56 49 48 49 47 48 50 51 51 51 52 52 54 55 55 56 58 57 56 55 54 56 57 56 52 53 53 54 52 52 50 49 48
45 47 45 44 44 44 46 47 51 53 44 44 44 44 45 48 51 50 50 50 52 52 53 54 55 55 55 55 54 54 54 53 53 53 52 52 53 52 51 51 48 47 48

GFSSE_sfc_30mbdewp_075.txt.gz
Dewpoint
69 73 73 72 70 70 70 70 70 69 68 66 68 68 68 66 66 66 69 68 69 68 66 64 64 64 65 65 61 63 63 64 67 68 67 65 63 67 67 68 66 61 61
70 72 73 72 71 71 71 70 70 69 68 66 68 68 65 64 64 65 67 67 67 67 64 63 64 64 65 66 66 65 65 64 64 65 67 66 67 67 67 67 64 62 62
70 71 72 72 72 71 70 70 69 68 67 66 69 67 66 63 62 63 65 65 64 62 63 64 64 64 64 65 66 67 67 66 66 66 66 66 67 67 66 66 66 66 66
70 71 72 72 72 71 70 69 68 67 65 69 69 67 65 63 63 63 64 65 62 62 63 65 65 65 64 63 64 65 64 65 65 63 63 63 62 64 64 64 63 65 64
69 71 72 72 72 71 70 68 67 67 66 70 69 68 66 63 63 63 65 65 63 63 64 65 65 65 64 63 63 64 63 65 64 63 63 62 62 61 60 59 60 63 63
69 71 72 72 72 71 70 69 67 67 67 70 70 69 67 63 63 64 65 65 64 64 65 65 65 65 64 63 63 63 63 62 62 62 62 62 61 61 59 59 59 60 62
70 72 72 72 72 71 70 69 67 67 68 70 70 69 67 64 62 64 64 65 65 65 65 65 64 66 65 64 63 62 62 60 60 61 61 62 62 61 60 58 58 58 59
71 71 71 72 72 71 69 68 67 68 68 69 71 70 67 66 64 64 64 64 65 65 65 65 64 64 63 62 62 61 61 60 59 61 61 62 63 61 60 59 58 57 58
70 71 71 71 71 69 69 68 68 69 69 69 69 70 68 67 66 64 65 65 64 64 64 64 64 63 63 62 60 59 59 60 58 61 61 62 63 62 60 59 58 57 57
69 70 70 70 69 68 68 67 68 68 69 69 69 69 68 67 67 66 65 65 65 65 65 64 64 63 62 61 59 56 56 57 58 58 60 63 63 62 61 59 58 57 57
68 69 69 68 67 67 67 66 67 67 68 68 68 66 65 65 66 66 65 65 65 65 65 64 64 62 60 59 58 56 56 55 55 57 60 63 62 62 61 60 58 57 56
66 68 68 67 66 66 65 64 64 66 66 65 65 65 64 64 64 65 65 64 65 65 65 65 64 62 60 58 57 57 55 54 53 56 59 61 61 62 63 61 59 58 57
65 67 67 66 66 65 64 63 61 63 65 64 64 63 63 62 64 65 64 64 64 64 64 65 64 63 60 59 57 56 54 52 51 51 58 60 60 59 62 64 61 59 58
64 66 65 65 64 64 64 63 61 58 59 62 63 62 60 61 63 63 62 62 62 63 62 62 62 62 61 60 56 55 53 50 50 50 54 58 58 59 59 62 64 62 60
64 65 65 66 65 65 64 64 63 62 59 55 58 60 56 56 55 56 59 61 61 62 61 60 60 59 59 58 57 56 55 54 52 50 51 57 56 58 59 59 61 64 63
64 64 65 66 65 65 64 62 63 62 61 58 57 57 58 57 55 54 54 56 57 57 55 54 54 56 58 59 59 58 57 56 56 55 54 54 55 56 58 59 59 61 62
64 65 65 66 66 65 65 63 62 63 62 61 60 60 60 60 58 57 57 57 56 53 53 54 55 58 59 59 59 59 59 59 58 58 57 57 56 56 56 59 60 60 61
64 65 65 66 65 65 64 65 64 64 62 62 62 61 61 60 60 59 58 59 60 58 56 56 58 59 59 59 59 59 59 59 59 59 59 58 58 57 56 57 59 60 61
63 64 64 65 65 65 65 65 65 64 62 61 61 62 62 61 61 60 60 59 60 61 61 60 60 61 60 59 60 60 60 60 60 60 59 59 59 60 58 57 58 59 59
62 63 64 64 65 64 65 65 65 64 63 63 62 62 62 62 61 61 62 62 61 61 61 61 60 61 60 60 60 60 61 61 61 60 60 60 59 59 60 58 58 58 58
60 62 63 64 64 64 64 63 63 62 63 63 64 64 63 63 63 62 62 63 62 61 61 61 61 61 60 61 60 59 59 60 60 60 60 60 59 57 55 54 55 56 55
52 61 62 63 64 64 64 64 64 64 64 64 64 64 64 64 64 63 63 63 63 63 63 63 63 62 61 61 59 58 55 54 55 56 57 58 57 54 53 52 51 52 52
41 55 60 63 64 64 64 64 64 64 64 64 64 64 64 63 64 64 64 64 64 64 63 64 64 63 61 61 61 57 54 51 54 54 54 54 53 52 51 50 50 51 52
36 41 51 58 63 63 64 63 63 62 62 62 63 62 57 56 54 54 55 58 61 62 63 62 62 61 61 58 59 59 60 58 54 51 53 53 53 51 50 50 50 51 49
39 40 40 46 56 57 61 63 62 61 61 56 57 56 50 50 51 51 51 51 51 52 53 54 54 54 57 57 56 56 54 54 55 54 51 51 53 53 52 51 49 48 47
43 44 43 42 44 48 53 58 61 60 53 49 48 48 47 49 50 50 50 50 51 52 53 53 53 54 55 55 54 53 53 52 52 52 50 51 51 53 51 49 47 47 46

GFSSE_sfc_30mbdewp_078.txt.gz
Dewpoint
69 72 72 71 70 70 70 70 69 68 66 68 67 67 67 67 69 69 69 68 67 65 65 64 65 64 62 63 64 66 67 67 67 65 66 68 67 67 66 62 61 62 63
71 72 72 71 71 71 70 70 69 68 67 69 67 64 64 66 68 69 68 68 65 64 64 64 65 65 65 66 66 65 65 65 65 67 67 68 67 66 65 66 66 66 66
71 72 72 72 71 71 70 69 68 66 67 69 66 64 63 64 66 66 67 65 63 64 63 64 64 65 66 67 67 66 66 66 66 67 65 64 65 65 64 64 64 64 65
71 72 72 72 71 70 70 69 67 65 68 68 67 64 63 63 65 64 64 63 63 64 64 65 64 64 65 65 65 65 66 66 65 64 63 62 62 61 61 62 63 62 62
71 71 72 71 71 70 69 68 66 67 69 69 67 63 63 63 64 65 62 63 63 64 65 65 65 63 64 64 64 65 65 65 64 62 61 61 60 59 59 60 61 62 62
70 71 72 71 71 70 69 68 67 68 69 69 68 64 63 63 64 66 63 63 65 65 65 65 64 64 64 63 63 63 63 64 62 62 62 62 61 60 58 59 60 60 62
71 72 71 71 71 70 69 68 68 69 70 69 68 65 63 64 64 66 65 65 65 65 65 65 65 65 64 63 63 63 62 62 61 61 62 62 61 61 60 58 58 59 60
71 71 71 71 71 70 69 68 69 69 70 70 69 66 63 63 64 65 65 65 65 65 65 64 64 64 63 62 61 61 61 60 61 61 62 63 62 61 60 58 58 58 58
71 70 70 71 71 69 69 68 69 69 70 71 70 68 66 64 64 64 65 65 65 65 65 64 64 63 62 61 59 59 59 60 59 61 61 63 63 61 60 59 58 57 57
70 70 70 70 69 68 68 68 69 69 69 69 70 68 67 66 65 66 66 65 65 65 65 64 64 63 62 60 58 56 56 57 58 60 60 63 63 62 60 59 58 58 57
69 69 69 68 67 67 66 68 68 68 68 69 69 68 67 66 66 65 65 66 66 65 65 64 63 62 60 58 58 57 56 54 55 58 60 64 62 62 61 60 58 58 57
66 68 68 67 66 66 64 66 66 67 67 67 67 65 65 65 65 65 64 64 65 65 65 64 64 62 60 57 57 57 56 54 53 56 59 63 62 61 62 61 59 58 57
65 67 67 66 66 65 63 63 65 65 65 65 65 64 64 64 64 65 64 64 64 64 64 64 64 63 60 58 57 56 55 54 51 52 58 61 61 60 61 64 62 60 58
63 65 67 66 65 65 62 60 61 64 64 64 63 63 62 62 63 64 63 63 62 63 61 61 61 61 61 60 59 56 54 52 50 50 52 60 60 59 59 61 64 63 61
58 65 66 66 65 64 63 62 60 58 61 63 63 63 61 61 62 63 62 62 61 61 61 60 61 60 61 61 59 57 56 54 53 51 51 55 58 59 59 59 60 63 64
63 65 66 66 65 65 63 63 62 60 58 57 60 60 59 59 60 59 58 60 60 60 62 60 58 59 56 58 58 58 57 56 56 55 53 52 56 57 58 59 59 60 62
63 64 64 65 66 65 65 63 63 63 62 59 56 57 58 56 56 55 54 55 58 57 56 54 53 55 58 59 59 59 59 59 59 58 58 56 56 57 58 59 60 60 61
64 65 65 66 66 66 65 64 63 63 63 61 58 59 59 59 58 57 57 57 58 56 54 54 55 57 58 59 59 59 59 60 59 59 59 59 58 57 57 59 60 61 61
64 65 65 66 64 64 66 65 64 64 63 62 61 61 60 60 60 59 58 58 59 60 59 57 58 59 59 59 59 60 60 60 60 60 60 60 59 59 58 57 58 59 60
64 64 65 65 65 66 66 65 65 65 64 62 62 62 62 61 61 60 60 60 60 60 61 61 61 61 61 60 60 60 61 61 61 60 60 60 60 59 60 59 59 59 58
62 63 64 64 65 65 64 64 64 63 63 63 64 62 63 62 61 61 61 61 62 61 61 61 60 60 60 61 60 58 57 59 59 58 60 60 60 59 58 57 56 56 56
60 62 63 64 64 64 64 64 64 63 63 63 64 64 64 63 63 62 62 62 62 62 62 62 62 62 62 61 58 57 53 54 54 55 56 57 58 56 54 54 52 52 54
57 60 62 63 63 64 64 64 64 64 64 63 63 63 64 64 64 63 63 63 64 64 62 63 63 63 61 61 61 58 53 52 54 54 53 54 53 53 52 51 51 52 52
49 55 61 63 64 64 64 63 63 62 61 62 62 63 61 61 61 62 62 63 63 63 63 62 62 62 61 59 58 58 59 58 54 50 53 53 54 51 50 50 51 50 49
38 40 52 58 63 63 64 63 63 62 62 61 61 60 56 55 54 54 54 53 53 53 53 54 54 54 56 57 56 55 54 53 54 53 51 51 52 53 52 50 49 47 46
40 40 40 45 54 59 61 62 62 61 60 58 57 56 53 53 53 52 52 51 51 52 52 52 53 53 54 54 54 54 53 52 51 52 51 50 50 51 49 48 48 46 46

GFSSE_sfc_30mbdewp_081.txt.gz
Dewpoint
69 71 71 71 70 70 70 69 67 67 67 67 67 69 69 70 69 68 68 67 66 64 64 63 63 64 66 66 67 66 66 64 66 68 68 67 65 64 64 64 64 65 62
70 71 71 71 70 70 69 69 67 68 69 68 67 67 69 69 69 68 67 65 65 64 64 64 64 66 66 66 66 66 66 67 68 67 66 66 64 65 66 66 65 65 65
70 71 71 71 71 70 70 69 67 68 69 66 64 66 68 69 69 69 66 65 64 64 65 65 65 65 67 67 66 66 66 66 66 64 64 63 63 64 62 62 61 63 64
71 71 71 71 71 70 69 68 66 69 67 66 64 64 66 67 67 66 65 64 64 64 65 65 66 66 66 65 67 67 66 66 65 63 61 61 60 60 60 62 62 62 62
71 71 71 71 70 69 69 67 66 69 67 66 64 63 64 66 64 64 63 64 64 65 65 65 65 65 65 65 66 66 65 65 63 61 60 60 59 59 60 61 62 62 62
71 71 71 70 70 69 69 67 67 69 67 65 64 64 64 65 63 63 63 64 65 65 65 64 64 64 64 64 64 65 65 64 62 61 62 62 60 59 59 59 60 61 62
70 71 71 70 70 69 68 67 69 69 68 66 64 64 64 65 63 63 64 65 65 65 65 64 64 64 64 63 63 63 64 61 60 61 61 61 61 61 59 58 58 59 60
69 70 70 70 70 69 68 68 69 69 69 67 64 64 64 65 65 64 64 65 65 65 65 65 65 64 62 62 62 63 62 61 60 61 62 62 62 61 60 59 58 58 59
70 70 70 70 70 69 69 69 69 70 70 69 66 64 65 65 65 65 65 65 65 65 65 64 64 63 62 60 60 60 61 60 60 61 62 63 62 61 60 59 58 58 58
69 69 69 69 69 68 68 69 69 69 70 69 68 66 65 65 65 65 66 66 65 65 65 64 64 63 61 60 58 57 58 58 58 60 61 62 63 61 60 59 58 58 57
68 68 68 68 67 66 67 69 69 69 69 69 68 67 65 65 65 66 65 66 66 65 65 64 64 62 60 58 57 57 57 54 55 57 60 62 63 61 61 60 59 58 57
66 68 68 67 66 65 66 67 67 67 68 69 67 66 66 65 64 64 65 66 66 66 65 64 64 62 60 57 56 56 55 54 53 55 60 61 63 61 62 61 60 58 57
66 67 67 66 65 64 64 66 66 66 66 67 66 65 64 64 64 64 63 64 64 64 64 64 63 63 60 58 57 56 55 54 52 52 58 60 63 60 61 63 62 60 59
63 64 66 66 65 64 62 64 64 65 65 65 65 64 63 63 63 64 63 63 62 62 61 61 61 60 60 60 59 58 56 54 52 51 51 57 61 61 59 60 64 63 62
61 61 60 63 65 64 61 60 62 63 64 64 64 63 63 62 62 63 63 62 62 61 61 59 59 60 60 60 60 59 57 56 54 52 51 51 58 60 60 59 60 62 65
54 54 58 61 65 65 63 61 58 59 62 62 62 63 62 61 61 62 62 62 60 60 61 61 59 59 59 56 57 58 57 57 56 56 55 53 53 58 59 59 60 60 62
55 57 63 62 64 65 64 63 62 60 58 58 59 60 61 59 60 61 60 59 59 60 60 60 57 55 55 58 59 59 59 59 59 59 59 58 57 56 58 60 60 61 61
62 62 64 65 65 65 65 64 64 64 62 60 57 56 59 58 58 57 55 54 55 57 55 53 53 55 57 58 58 59 59 60 60 60 60 59 59 58 58 59 62 61 61
63 63 64 64 65 65 65 64 64 64 64 62 61 59 58 58 57 57 57 57 58 58 56 55 55 57 58 59 59 59 60 60 60 60 60 60 60 60 59 58 59 60 59
64 64 63 63 64 65 64 61 57 64 64 63 63 61 61 60 60 59 58 58 59 60 60 60 59 60 60 60 60 60 60 60 60 59 59 60 60 60 60 60 59 58 59
64 63 64 64 64 65 64 63 63 63 64 63 62 63 61 61 60 60 60 60 60 60 60 61 61 60 60 61 60 59 57 57 57 57 59 58 58 59 59 59 58 57 58
62 63 63 62 64 64 64 64 64 64 64 63 64 63 63 62 62 61 61 61 61 61 61 61 61 61 61 61 58 58 54 53 54 55 55 55 56 56 56 56 55 55 56
59 61 62 62 64 64 65 64 64 64 63 63 63 64 64 64 63 62 62 62 62 63 62 63 63 62 59 61 61 58 54 50 53 55 53 54 53 53 52 52 52 53 53
44 58 62 63 63 64 64 63 62 61 59 61 62 63 63 63 64 64 63 63 63 63 62 62 63 62 62 59 58 57 58 58 54 50 52 53 53 52 50 50 51 50 49
40 47 58 61 63 63 63 63 62 61 61 60 61 60 60 59 59 59 60 61 61 59 57 56 56 57 58 57 56 55 54 53 54 53 51 50 52 53 52 50 49 47 47
39 39 43 52 58 61 63 63 62 61 60 59 58 58 57 56 56 54 53 53 53 53 53 53 53 53 53 54 54 54 53 52 49 50 50 50 50 50 48 48 47 46 47

GFSSE_sfc_30mbdewp_084.txt.gz
Dewpoint
68 70 71 71 70 69 69 68 67 66 69 68 70 70 70 70 69 68 67 65 64 63 63 64 66 67 66 65 65 65 66 68 68 67 67 66 65 66 67 66 66 63 62
69 71 71 71 70 70 69 67 68 68 68 68 69 70 70 69 69 68 67 65 64 64 63 64 65 65 65 66 66 66 67 67 66 66 65 64 63 63 64 63 66 61 65
70 71 71 70 70 70 69 67 68 68 68 68 69 69 69 69 68 67 65 64 64 64 64 65 65 65 67 66 66 67 67 65 65 64 63 61 61 62 62 62 62 60 62
70 71 70 70 70 70 69 67 69 68 65 65 68 69 69 69 67 66 65 64 65 65 65 66 65 66 66 67 66 66 66 65 63 61 60 60 59 60 61 62 61 62 60
70 71 70 70 70 70 68 66 69 67 66 64 66 68 68 68 67 66 64 64 65 65 66 66 66 66 67 67 67 66 65 63 62 61 60 59 59 60 60 61 62 62 61
70 71 71 70 70 69 68 66 69 67 66 64 64 66 67 66 65 65 65 65 66 66 66 66 65 65 66 66 66 65 64 63 61 61 61 62 60 60 59 59 61 61 62
70 70 70 69 70 69 67 67 69 67 65 64 64 64 64 64 64 64 65 65 65 65 65 65 64 64 64 64 65 65 63 61 60 61 61 61 61 60 60 59 59 59 61
69 70 69 70 69 69 67 68 68 68 66 64 64 63 65 63 64 64 65 65 65 65 64 64 64 63 63 63 63 64 63 60 60 61 61 62 62 61 60 59 59 58 59
69 69 69 69 69 69 68 69 69 69 68 66 65 65 66 64 63 64 65 65 65 65 65 65 63 62 61 61 61 62 61 61 60 60 62 62 62 61 60 59 59 58 58
69 69 69 69 68 68 68 68 69 69 69 67 65 65 65 65 65 64 64 65 65 65 65 64 63 62 61 60 59 58 59 59 58 60 60 61 63 61 60 59 59 58 58
67 68 68 67 67 67 67 68 68 69 69 68 66 65 65 65 65 65 65 66 66 65 65 64 63 62 59 57 58 58 56 54 54 56 60 61 65 61 61 60 59 58 58
66 66 67 66 65 65 67 67 67 68 69 68 67 65 64 64 65 65 65 65 66 65 65 64 63 62 60 57 56 56 55 54 53 54 59 61 64 62 62 61 60 59 58
66 67 66 65 65 64 66 66 66 66 67 68 66 65 64 64 64 63 63 64 64 65 63 64 63 62 60 58 57 56 56 54 53 51 54 60 62 62 61 63 63 61 60
65 66 66 65 64 63 65 65 65 66 66 67 66 65 63 63 63 63 62 62 62 62 61 60 60 60 59 59 59 59 57 55 53 51 51 53 60 62 61 60 63 64 63
62 64 65 65 64 64 61 64 64 65 65 65 65 64 63 62 62 62 63 62 62 61 61 59 58 59 59 59 60 60 59 57 56 54 53 52 53 60 61 60 60 61 64
63 64 65 65 64 64 62 61 61 63 64 64 64 64 63 62 62 62 62 62 61 61 60 60 59 59 59 58 56 58 58 57 57 56 56 56 56 56 59 60 60 61 62
62 61 61 64 65 64 63 63 60 59 62 63 63 63 63 62 61 61 61 62 61 60 60 60 60 57 56 56 57 59 59 59 59 59 59 59 59 58 58 60 60 60 61
58 58 61 60 59 58 61 64 63 61 59 58 59 61 61 61 60 60 60 60 59 59 59 58 57 54 54 56 57 58 59 60 60 60 60 60 60 59 59 59 61 61 61
58 59 62 63 60 59 63 64 64 63 63 62 59 57 57 60 59 58 58 57 55 55 56 55 53 54 56 57 58 59 59 59 60 60 60 60 60 60 60 59 59 60 60
62 62 63 64 64 64 64 64 64 64 64 64 62 61 59 58 58 57 57 57 57 58 57 57 56 57 58 59 60 60 60 60 60 58 58 59 59 59 60 60 59 59 59
63 62 62 63 63 64 64 63 61 59 62 64 63 63 61 60 59 59 58 58 58 59 59 60 60 60 60 61 60 59 58 58 57 57 57 56 56 57 58 59 59 58 59
61 62 62 62 62 62 63 63 62 62 63 64 64 64 63 62 61 60 60 60 59 59 59 60 61 60 60 61 58 57 54 53 53 54 55 54 54 55 56 56 56 56 57
61 62 63 63 62 61 63 64 62 63 62 62 63 64 64 64 63 63 62 62 62 62 61 62 61 60 58 60 61 55 53 50 52 54 54 54 53 52 52 52 53 54 53
51 61 62 62 63 63 63 61 61 61 59 61 62 63 63 63 63 63 64 64 63 63 61 60 62 62 61 58 58 58 58 57 55 51 51 53 53 52 51 51 51 51 51
41 45 59 61 62 63 63 62 61 60 61 61 61 61 61 62 61 62 62 62 62 61 60 59 59 58 59 58 57 55 54 53 54 53 49 49 51 52 51 50 49 48 49
40 41 47 57 59 61 62 62 61 61 60 59 59 59 59 58 58 60 60 59 58 57 56 56 55 54 53 53 53 53 53 51 49 49 48 49 49 49 49 48 47 47 48

GFSSE_sfc_30mbdewp_087.txt.gz
Dewpoint
68 69 71 70 69 68 68 66 67 69 69 68 69 70 70 70 69 68 66 65 64 64 63 66 67 65 65 65 65 68 68 67 67 66 66 67 66 64 65 65 63 63 63
68 69 70 70 70 69 68 67 68 69 69 69 70 69 70 69 68 67 65 64 64 64 65 66 66 64 65 65 67 68 67 66 66 65 64 64 65 63 63 64 63 64 67
69 69 70 71 70 70 67 68 67 68 69 70 70 69 70 69 68 66 65 64 63 64 65 65 65 64 66 66 67 67 65 64 64 62 61 59 61 62 62 63 62 61 65
69 69 69 70 70 70 67 68 68 68 68 69 69 70 69 68 67 65 64 64 64 65 65 66 64 66 67 66 66 66 64 62 62 61 58 59 58 61 62 62 62 61 61
69 69 69 70 70 70 67 69 68 66 66 68 68 69 69 68 67 64 65 65 66 67 66 65 67 68 67 67 66 65 62 62 62 60 60 60 59 60 61 62 62 61 61
69 69 70 70 70 69 68 69 68 66 65 66 68 69 68 68 67 65 65 66 66 66 66 66 66 67 67 66 66 64 62 63 61 61 61 61 60 60 60 61 61 61 61
69 69 69 70 70 69 68 69 68 66 64 64 66 67 67 66 66 64 65 66 66 66 66 65 65 65 65 66 66 63 62 61 60 61 61 61 60 60 60 60 59 60 61
69 69 69 69 70 68 68 69 68 65 64 64 65 65 65 63 65 64 64 65 65 65 65 65 64 64 64 64 65 64 62 60 60 60 61 62 62 60 60 60 59 59 59
69 68 68 68 69 68 69 69 68 66 65 65 62 64 62 64 63 64 64 64 65 65 65 65 63 62 62 62 63 62 62 61 60 60 60 61 62 61 60 60 59 59 58
68 68 68 68 67 66 68 68 69 68 66 66 65 66 62 62 63 64 64 66 65 65 65 64 63 62 61 60 59 59 60 59 59 61 60 61 64 61 60 60 59 59 58
67 67 68 66 66 66 67 68 69 68 67 65 65 65 65 63 63 62 64 66 66 66 65 64 63 61 59 58 59 58 55 55 55 57 60 60 64 62 61 60 59 58 58
64 66 67 66 65 65 67 68 68 68 67 65 64 64 64 64 65 64 65 65 66 65 65 64 63 62 59 57 56 56 55 54 54 54 57 61 62 63 62 62 60 59 58
65 65 66 64 64 65 66 66 67 68 68 66 64 63 63 64 65 64 64 65 65 65 63 63 63 61 59 58 58 57 56 55 54 53 52 58 62 63 62 62 63 62 61
65 65 65 64 64 64 65 65 66 66 68 66 65 64 64 63 63 62 62 63 63 62 61 61 60 59 59 59 59 59 58 57 56 55 53 52 56 61 62 61 61 64 64
63 64 64 64 63 64 65 64 65 65 66 67 65 64 63 63 62 62 62 62 62 62 61 59 58 58 59 60 60 60 60 59 58 57 56 54 54 56 61 61 61 61 63
59 64 65 64 63 62 63 64 64 65 65 66 66 65 64 63 62 62 63 63 62 62 61 60 59 59 59 59 57 57 58 59 59 58 58 58 58 58 59 61 60 61 62
61 64 65 65 64 63 61 62 63 64 64 64 64 65 64 63 62 62 62 62 63 62 60 60 60 59 58 57 56 57 59 59 60 60 60 60 60 60 59 61 62 61 61
59 60 63 64 65 64 63 62 60 61 63 64 64 64 64 63 63 62 61 61 62 61 60 59 59 58 55 54 56 58 59 60 60 59 60 60 60 60 60 60 61 62 62
60 59 60 62 62 63 64 64 63 61 59 58 61 62 62 63 62 61 60 60 60 59 58 58 57 55 54 55 57 58 59 59 59 59 59 60 60 60 60 60 60 60 61
54 59 60 61 62 62 63 64 64 64 63 63 61 58 58 59 60 60 60 59 58 56 56 56 55 55 55 58 59 59 60 60 60 60 58 58 58 58 59 60 61 60 59
59 59 60 62 62 63 63 61 63 62 64 64 64 63 62 61 59 59 59 58 58 57 57 57 57 57 58 60 60 59 58 58 58 58 57 56 56 57 58 59 60 60 59
60 60 61 62 62 63 61 63 62 61 63 64 64 64 64 63 63 61 59 58 58 58 59 59 60 60 60 61 57 58 52 53 54 55 55 55 54 55 56 56 58 58 59
58 58 59 60 62 63 63 63 62 63 62 62 62 63 64 64 64 64 63 63 62 62 61 62 62 60 57 60 59 55 52 51 53 55 55 54 54 53 53 54 54 55 56
59 61 62 60 61 61 62 62 60 59 58 59 59 59 62 63 63 64 64 63 63 62 62 61 60 60 60 58 59 58 58 58 54 52 52 53 53 53 52 52 52 52 52
51 56 60 62 62 62 62 61 61 60 60 60 60 60 62 63 63 63 64 63 61 60 60 59 58 58 59 59 58 57 56 55 55 53 48 49 51 52 51 51 51 50 51
41 42 49 58 60 62 62 62 61 60 60 60 60 61 61 61 61 62 62 62 61 60 58 58 58 58 57 55 54 54 53 50 49 50 49 49 49 50 50 49 49 48 49

GFSSE_sfc_30mbdewp_093.txt.gz
Dewpoint
62 68 71 70 69 69 68 68 67 68 71 71 70 70 70 69 68 67 67 69 68 68 67 67 68 67 68 67 66 66 66 67 66 66 66 66 65 65 65 67 63 63 64
63 68 71 71 70 68 67 67 68 68 71 71 70 70 70 69 68 66 66 67 68 68 66 65 66 67 67 66 65 66 65 65 64 64 63 63 65 64 64 65 66 65 64
63 67 69 71 70 69 68 69 69 69 71 71 70 70 69 69 67 65 65 66 68 66 65 62 63 68 66 66 64 63 63 61 59 56 58 55 61 63 63 64 65 66 66
64 67 68 71 70 69 69 70 69 70 71 70 70 71 69 69 67 65 66 67 68 66 64 66 67 67 65 65 62 61 60 60 59 58 53 53 56 62 62 63 64 65 66
66 67 67 70 71 70 69 69 69 70 70 70 70 70 69 69 66 65 66 68 67 65 66 66 66 67 66 64 61 61 61 60 58 56 56 56 57 61 62 62 60 63 64
65 66 70 70 70 70 69 70 70 70 70 70 70 69 69 68 67 66 67 67 65 64 67 68 67 67 66 62 62 62 62 61 61 56 56 58 59 61 61 62 62 62 62
64 66 69 70 70 70 69 70 69 70 70 69 69 69 68 67 65 64 67 66 65 66 67 68 67 67 66 64 63 62 61 59 55 56 57 58 60 61 61 60 60 60 61
64 67 67 69 70 70 70 68 69 69 69 68 69 69 68 66 65 64 65 66 65 66 67 67 67 67 66 65 63 62 60 60 55 56 57 59 61 61 60 60 60 60 59
64 66 66 67 68 70 69 68 67 68 68 68 68 69 68 66 66 64 65 67 65 66 66 66 65 65 65 66 64 63 60 60 57 56 56 58 61 61 61 60 60 59 60
65 64 65 67 66 64 68 68 67 67 68 68 69 68 66 66 65 66 66 67 66 66 65 64 64 64 63 63 62 62 61 58 56 56 56 60 61 60 60 60 60 59 59
60 59 65 66 63 60 66 66 66 66 67 66 65 65 64 63 63 64 64 66 66 66 65 63 63 62 61 60 59 59 58 55 52 53 55 61 64 61 60 60 59 59 58
56 57 59 67 64 58 64 64 61 60 60 60 61 61 60 61 60 60 63 66 66 66 65 63 62 60 57 53 55 55 54 52 51 51 56 60 62 64 63 62 61 60 59
57 58 57 66 65 57 64 64 59 58 56 55 56 57 56 57 59 61 63 63 63 64 61 61 61 56 52 50 51 51 51 51 51 52 55 58 61 62 63 63 64 63 62
57 57 56 63 65 57 65 64 57 56 55 57 58 56 56 58 58 58 59 59 58 57 55 56 54 52 53 52 52 53 53 54 55 55 54 53 56 60 61 63 63 63 65
58 58 55 65 63 64 65 64 61 57 56 55 56 56 57 57 56 56 56 57 56 54 54 53 52 51 51 50 53 55 55 56 56 56 56 56 56 57 59 60 61 62 63
58 61 64 64 63 62 64 65 64 62 57 59 56 54 54 54 55 54 54 54 54 54 53 53 51 49 49 54 54 54 54 56 56 56 57 58 58 59 60 62 63 64 63
56 59 61 62 62 59 62 64 64 64 59 61 62 59 58 58 57 57 55 58 58 58 56 55 53 53 53 54 53 53 55 55 56 56 57 56 59 59 60 61 63 63 63
58 59 60 62 61 59 59 63 63 64 64 64 64 63 61 60 60 60 59 59 59 58 57 56 56 55 54 53 52 52 55 56 56 55 54 54 55 55 59 60 62 62 62
60 59 60 62 61 60 58 60 60 62 63 63 62 63 63 62 62 60 60 59 59 59 58 56 56 55 54 54 52 53 55 56 55 53 53 54 55 56 57 56 58 58 60
59 59 60 61 62 60 61 61 61 62 59 57 59 59 61 60 60 59 57 58 58 59 58 58 56 55 55 53 54 55 56 55 55 55 53 54 54 56 55 56 57 57 59
59 60 60 60 60 60 61 61 62 60 59 59 59 60 60 60 61 61 61 60 60 59 59 58 57 56 55 56 59 57 56 55 55 53 54 53 52 54 53 53 55 56 56
59 60 60 59 59 60 60 61 59 62 62 60 61 60 60 60 60 61 62 62 61 60 59 59 60 59 57 59 58 57 54 54 52 52 52 52 52 52 52 51 53 55 57
59 59 58 58 59 60 60 62 62 61 61 62 63 61 61 63 63 63 63 63 62 62 61 61 62 61 60 60 59 57 53 50 50 51 52 53 50 50 50 51 52 52 54
59 60 60 58 59 59 61 61 59 58 57 58 58 59 60 61 63 63 63 63 63 63 63 62 61 60 59 58 59 58 56 55 51 49 52 50 50 49 48 50 49 50 53
58 58 59 60 60 60 61 60 59 59 59 61 60 60 61 61 62 63 63 62 63 63 63 61 60 59 59 57 57 57 57 57 57 54 51 46 47 48 50 50 50 50 51
58 59 59 60 59 59 60 60 60 60 60 59 59 59 60 62 63 63 63 63 63 63 61 60 60 60 59 58 57 57 56 55 55 55 52 48 46 47 49 50 49 50 51

GFSSE_sfc_30mbdewp_096.txt.gz
Dewpoint
66 70 71 70 69 69 68 67 69 72 71 71 70 70 70 70 69 68 67 68 68 68 68 68 68 68 67 65 65 67 67 67 67 66 66 66 66 66 66 65 65 64 66
68 70 71 71 70 69 68 69 69 72 72 71 71 69 70 69 67 68 70 69 68 67 68 67 68 66 65 65 65 65 65 64 64 65 64 64 65 65 65 66 66 65 67
67 69 71 71 70 69 69 69 69 71 72 71 71 69 70 69 67 68 68 69 68 66 66 66 68 67 64 64 64 62 61 60 60 62 62 62 63 64 65 66 67 67 67
67 68 69 71 70 69 69 70 70 70 72 71 71 70 70 68 66 67 67 69 67 64 64 67 67 66 64 62 61 59 60 59 58 59 56 57 61 63 62 64 65 66 65
67 68 69 71 70 69 70 70 70 70 71 71 70 70 70 68 66 66 68 68 66 64 64 66 67 66 64 61 61 60 61 61 60 58 59 59 60 62 63 63 63 64 64
67 67 71 71 70 70 70 70 70 70 70 70 70 70 69 68 67 67 68 66 64 65 67 67 67 65 62 62 61 61 61 60 60 57 59 62 61 61 61 62 62 62 63
66 69 70 70 70 70 70 70 70 70 70 70 70 69 69 67 66 67 67 64 64 65 68 67 67 66 63 62 61 61 60 60 57 58 60 61 61 61 61 61 60 60 60
66 69 69 70 70 70 70 70 70 70 70 70 69 68 68 67 63 66 64 63 64 68 68 67 67 66 65 64 63 61 59 60 57 59 60 61 62 61 60 60 60 60 60
67 68 68 69 70 70 70 69 69 70 70 69 68 68 67 66 63 64 63 63 65 67 67 67 67 67 66 64 63 61 59 59 59 57 60 61 62 61 61 60 60 60 60
62 60 62 68 68 69 68 68 68 69 68 68 68 68 66 64 64 63 64 63 66 67 66 66 65 64 64 65 64 62 60 58 58 56 60 61 61 60 61 60 60 60 60
60 60 60 59 66 66 67 67 67 68 68 69 68 66 65 64 64 63 65 65 66 66 65 64 63 63 62 61 60 59 58 57 56 56 60 63 62 61 60 60 60 59 59
59 59 60 60 58 63 67 66 65 67 68 67 66 64 62 62 63 62 65 66 66 66 65 64 63 61 59 57 57 56 55 55 52 55 59 61 63 63 62 62 61 60 60
57 58 60 59 59 59 66 64 62 64 65 65 64 63 62 61 62 64 64 65 65 65 64 63 62 59 55 54 55 52 52 52 52 53 59 59 61 62 64 64 64 64 63
52 53 58 59 59 59 61 63 59 58 58 59 61 59 59 60 61 63 62 63 63 63 61 61 60 57 56 53 53 53 52 53 54 55 56 56 59 61 62 62 63 63 64
56 55 58 58 59 60 60 65 58 57 55 57 57 56 57 59 59 60 61 61 60 58 58 58 56 54 53 52 52 54 55 55 56 57 54 54 55 57 59 60 61 62 63
57 57 58 58 59 61 62 64 56 55 55 58 57 57 58 59 58 57 57 58 57 56 55 54 52 51 50 51 53 54 55 55 56 57 57 56 57 58 60 62 63 63 64
58 59 60 59 61 62 63 64 61 57 55 56 55 55 55 57 56 56 55 55 55 56 55 54 53 52 51 54 54 54 54 55 56 56 57 58 59 59 60 62 63 64 63
58 61 62 63 62 62 63 64 61 62 60 58 56 57 56 56 56 56 56 57 59 59 57 56 55 55 55 54 54 53 53 56 56 55 55 55 57 59 59 60 62 63 62
58 60 61 59 58 59 62 63 61 62 63 64 62 60 60 60 59 59 59 60 60 59 58 57 57 56 56 55 54 52 54 56 56 54 53 54 56 58 57 57 58 59 59
60 60 60 60 56 55 61 62 62 62 62 64 64 64 62 62 61 60 60 60 59 60 59 58 56 56 55 55 54 52 55 55 55 55 55 55 56 55 55 55 56 57 58
59 59 59 59 61 59 60 61 61 61 60 60 61 61 63 62 61 60 60 59 59 59 60 59 58 56 56 56 57 58 58 56 55 56 54 53 53 54 54 53 54 56 58
57 59 60 59 60 61 62 61 61 60 60 60 60 61 61 61 62 62 61 61 61 60 59 59 60 59 59 60 57 57 55 55 56 53 53 53 52 52 52 52 53 54 56
57 59 58 59 59 59 59 61 60 61 60 61 61 60 62 61 61 62 62 63 62 61 59 59 60 60 59 61 61 58 55 52 51 53 52 53 50 50 50 51 51 53 54
57 60 59 59 59 59 60 58 57 57 56 58 58 61 61 61 61 62 63 63 63 62 61 61 61 60 59 58 60 60 58 56 51 50 52 51 51 50 49 50 50 51 53
59 59 59 59 59 59 61 60 59 58 59 59 60 60 61 62 61 61 62 62 63 63 62 62 61 59 59 58 57 57 56 56 55 52 49 51 51 50 50 50 50 50 51
58 58 59 59 59 60 60 60 60 59 58 58 59 59 59 60 61 62 62 62 63 62 62 62 61 59 58 58 58 57 56 54 54 54 53 52 48 47 49 50 49 50 51

GFSSE_sfc_30mbdewp_099.txt.gz
Dewpoint
67 70 71 70 69 69 71 72 73 72 72 70 69 69 71 71 69 67 66 66 67 69 69 69 68 65 65 67 67 67 66 67 67 66 66 67 67 66 65 65 66 67 67
68 70 71 70 69 69 69 71 73 72 71 71 69 69 70 70 69 68 68 68 69 68 68 68 66 64 64 66 66 66 63 65 65 65 64 65 66 67 67 66 68 68 67
68 70 71 71 70 70 70 70 72 72 72 71 70 69 70 68 68 69 69 69 68 68 68 66 64 65 65 64 62 62 61 62 63 63 63 63 65 65 66 67 67 67 67
69 70 70 71 71 70 70 70 71 72 72 71 70 70 70 68 69 70 69 68 68 67 69 67 66 63 62 60 58 60 60 61 62 59 59 61 62 63 65 66 66 65 65
69 70 71 71 71 70 70 70 70 72 71 72 71 71 70 68 68 68 68 67 66 68 68 67 65 62 61 60 60 61 62 63 61 59 60 61 62 63 63 64 64 64 65
68 69 71 71 71 70 71 70 69 71 72 72 71 71 70 68 68 69 68 66 64 64 67 67 65 63 62 61 62 62 61 62 59 60 61 62 61 61 61 62 62 62 62
67 69 71 71 70 70 71 71 70 70 71 71 70 70 69 68 68 69 67 65 64 65 67 67 65 63 63 62 61 61 61 60 59 60 61 61 61 61 61 61 60 60 60
68 70 70 71 70 70 70 71 70 70 70 70 70 70 68 68 69 68 65 64 63 67 67 66 66 64 64 62 61 61 60 60 59 60 61 62 62 61 61 61 61 61 60
69 69 70 70 70 70 70 71 71 70 70 70 69 69 68 67 68 67 62 63 65 68 68 67 66 66 65 64 62 60 59 60 58 60 61 62 62 61 61 61 61 61 61
63 65 68 69 70 69 70 70 69 70 70 69 68 68 67 64 65 62 61 62 65 67 68 67 67 67 66 65 63 60 59 58 57 59 60 62 61 61 61 61 60 60 60
61 61 62 64 66 68 68 68 68 69 69 68 68 67 65 63 63 63 62 62 65 67 67 66 65 65 63 61 59 58 57 57 57 60 61 62 61 60 60 60 60 60 59
60 60 60 60 62 63 67 67 67 68 68 68 67 65 63 64 62 63 63 63 65 66 65 65 64 62 61 59 58 57 56 55 53 59 61 63 63 62 62 61 61 60 60
59 60 60 61 60 60 61 65 66 67 68 67 66 64 63 62 62 64 65 65 64 65 64 64 62 60 57 56 55 54 52 52 52 58 59 61 62 63 64 64 64 64 63
59 59 60 61 60 60 60 59 63 65 66 66 65 64 62 62 63 63 63 64 63 64 63 62 60 57 55 54 54 54 53 52 53 56 59 59 60 61 62 63 64 64 65
57 58 59 60 60 60 60 60 60 62 65 65 64 65 62 61 63 62 62 63 63 63 61 60 59 57 56 54 53 53 53 53 55 55 56 56 58 60 61 61 62 62 63
56 55 58 59 60 60 61 62 61 63 60 61 64 63 64 61 62 62 62 62 62 60 60 59 57 56 54 53 52 53 54 55 56 57 54 55 56 58 60 62 62 63 63
57 58 57 58 60 60 60 61 62 63 60 57 60 60 59 60 60 60 60 60 60 58 56 56 54 51 50 51 53 54 54 54 56 57 57 56 57 58 60 63 64 63 64
58 58 59 58 59 60 61 61 63 62 62 57 57 57 59 58 58 58 58 58 57 56 55 54 54 54 54 55 54 54 53 55 56 56 56 58 58 59 60 61 62 63 62
58 60 60 62 60 61 62 64 64 63 61 58 57 56 57 57 56 56 57 57 57 57 57 56 56 55 55 55 54 53 53 54 56 55 54 55 57 59 59 59 60 59 59
57 60 60 62 61 60 62 63 63 63 61 61 59 58 57 57 57 57 58 58 60 59 58 57 56 57 56 55 55 53 53 56 56 55 54 56 57 56 56 55 56 57 58
54 58 60 58 58 58 60 61 62 61 62 59 61 61 60 60 58 59 60 60 60 59 58 58 57 56 56 56 56 58 58 57 55 56 56 55 54 54 54 54 55 56 59
52 53 59 59 58 57 60 61 62 61 62 61 62 62 63 62 61 60 60 60 60 59 59 59 59 58 58 58 56 57 54 55 57 57 54 53 53 52 52 53 53 54 57
53 54 54 59 58 56 58 61 61 61 61 60 59 60 62 62 62 62 62 62 61 60 59 59 60 60 58 60 59 57 55 52 53 54 53 54 51 51 51 52 51 53 54
56 57 56 59 59 59 58 59 59 58 57 59 60 60 61 61 62 62 62 62 62 61 60 60 60 60 60 58 59 60 58 56 52 50 53 51 50 50 49 50 50 52 54
57 57 59 60 60 60 59 59 58 58 58 58 58 58 61 61 61 61 61 62 62 62 61 60 61 60 60 58 57 58 57 56 55 51 49 50 51 51 50 50 50 51 52
57 58 58 59 59 60 60 59 58 58 58 59 59 59 59 59 61 61 61 61 62 62 61 61 61 60 59 58 58 57 56 55 54 53 51 51 47 48 49 50 50 50 51

GFSSE_sfc_30mbdewp_102.txt.gz
Dewpoint
68 71 72 71 72 73 73 73 72 72 71 70 70 70 69 68 66 65 67 68 68 69 69 68 65 65 65 65 65 67 67 66 66 67 67 67 65 64 66 68 68 67 66
68 71 71 71 71 72 73 73 73 72 72 71 70 70 71 68 66 65 67 68 69 69 68 66 65 65 67 65 64 65 64 65 65 65 66 67 67 66 68 67 68 67 66
69 71 71 71 71 72 73 73 73 72 71 69 68 69 70 69 67 68 67 69 69 69 67 65 64 65 66 65 63 63 64 64 63 65 64 65 66 67 66 66 67 66 67
69 70 70 71 71 71 72 73 72 72 71 70 69 70 70 68 68 70 69 69 68 68 66 65 64 64 62 61 61 61 62 61 61 61 61 63 63 66 65 65 65 66 65
69 70 71 71 71 71 70 72 72 72 71 71 70 70 70 69 69 69 69 69 69 69 67 65 63 61 60 62 62 63 62 62 61 60 61 62 63 64 65 64 64 65 64
69 70 71 71 71 71 71 70 72 72 72 71 70 70 69 69 70 69 69 68 70 69 66 64 62 62 61 63 63 63 63 62 61 61 62 62 61 62 62 62 62 62 63
69 70 71 71 71 71 71 70 70 71 72 71 71 70 69 69 69 68 68 66 69 69 66 64 63 62 62 62 62 62 62 61 60 61 61 61 61 61 61 61 60 60 60
68 70 71 71 71 71 71 71 70 71 71 71 71 70 69 68 69 68 67 66 67 67 66 64 62 62 62 62 61 62 61 60 60 60 61 62 62 61 61 61 61 61 61
69 70 70 70 70 71 71 71 70 70 71 70 71 70 69 68 70 67 66 65 65 67 66 65 64 64 63 62 61 60 61 60 60 60 61 62 63 62 61 61 62 61 61
68 69 70 70 70 69 70 70 70 71 70 69 70 69 68 68 68 67 64 64 68 68 67 67 66 65 64 63 61 59 59 59 59 60 61 62 62 62 61 61 61 61 61
65 67 69 69 69 69 69 69 70 70 70 69 69 68 67 67 66 64 61 62 66 68 68 67 67 67 66 63 59 58 57 57 58 60 60 63 62 61 61 61 61 60 60
62 64 66 66 67 67 68 68 68 69 69 68 68 67 64 63 63 61 61 62 64 65 66 66 66 65 62 59 58 58 55 55 55 59 60 63 62 61 61 61 60 60 60
61 62 62 64 65 65 66 66 67 68 68 67 67 65 64 63 63 62 61 64 64 65 65 65 64 62 59 56 55 54 53 52 53 59 60 63 63 63 63 64 63 63 63
60 61 61 62 62 63 64 64 66 67 67 66 65 64 64 62 62 63 62 64 63 64 63 63 61 59 56 55 55 54 52 52 53 58 59 61 63 62 63 64 65 65 65
59 60 60 61 61 61 61 60 62 65 66 66 65 64 63 63 62 63 63 63 62 63 62 61 59 57 55 54 54 54 53 53 53 55 57 59 60 62 62 62 63 63 64
58 58 59 60 60 61 60 60 61 62 65 65 65 64 64 63 62 62 62 62 62 63 62 60 58 57 55 55 53 53 53 53 55 56 55 57 58 59 61 62 62 63 63
57 56 58 59 60 60 61 61 61 61 61 64 65 65 64 64 63 62 61 62 62 62 61 59 58 57 56 54 52 52 54 55 55 57 55 54 56 58 60 62 63 64 63
54 57 56 58 58 59 60 61 61 62 62 61 62 64 64 64 64 62 61 61 62 60 58 58 57 54 51 52 52 54 54 54 55 56 57 57 56 57 59 61 63 64 63
52 57 58 58 58 59 59 61 61 61 61 61 61 61 61 62 63 63 61 60 60 58 57 55 55 54 53 54 54 54 54 53 54 56 56 56 58 58 59 59 61 60 59
56 58 59 60 58 58 60 60 61 62 61 61 60 58 58 60 60 60 59 58 58 57 57 56 55 56 55 54 54 54 53 53 54 55 54 55 56 59 59 58 58 57 58
56 59 59 60 61 60 60 60 60 59 61 61 60 58 58 59 58 59 58 57 58 57 57 57 56 56 56 56 55 56 57 57 55 56 56 56 57 57 56 55 55 56 59
54 55 59 60 60 60 60 60 61 60 61 61 61 60 58 58 58 57 58 58 59 59 58 58 57 57 56 57 55 56 54 55 57 57 56 55 55 55 53 54 55 56 58
53 53 51 53 58 58 60 60 61 62 62 61 61 60 59 60 59 59 59 60 60 60 59 59 59 58 57 60 59 56 53 52 53 55 55 54 53 53 53 53 53 54 55
52 53 52 52 54 57 59 59 58 59 59 59 59 60 60 61 61 61 61 61 61 60 60 59 60 60 59 56 59 60 59 56 52 51 53 52 51 51 51 51 53 53 54
54 54 56 56 54 57 58 59 58 58 59 60 60 59 59 60 60 62 62 62 61 61 61 60 60 60 60 58 57 58 57 56 55 52 50 51 53 53 51 50 50 51 54
55 56 57 57 58 58 58 60 59 59 58 58 59 59 59 60 60 61 61 61 61 60 60 60 60 60 59 59 58 58 56 55 55 52 50 51 49 49 50 50 50 51 52

GFSSE_sfc_30mbdewp_105.txt.gz
Dewpoint
67 71 72 72 72 73 72 71 71 71 71 71 70 70 70 68 66 66 67 67 67 68 67 65 64 63 66 66 67 65 66 67 67 68 67 66 65 67 68 67 68 64 64
68 71 71 72 72 73 72 72 72 72 71 71 70 69 68 66 65 68 67 69 69 69 66 64 65 64 65 65 65 65 65 66 66 67 67 67 67 67 68 67 67 65 65
69 71 71 72 72 72 73 73 72 72 71 71 70 70 68 66 65 68 69 69 69 68 66 64 65 64 63 64 64 63 63 65 65 66 65 66 67 65 67 67 66 67 67
69 70 70 71 72 72 72 73 72 72 71 70 70 71 69 67 65 68 69 69 69 66 65 64 65 65 64 63 62 62 62 62 63 63 63 63 65 64 65 66 66 66 65
69 70 70 71 72 72 72 72 72 71 70 69 70 70 69 68 68 69 69 69 68 67 65 64 63 61 62 63 63 63 63 62 62 62 62 63 63 63 64 64 64 63 63
69 70 71 71 71 71 72 72 71 71 70 70 70 70 70 70 70 70 69 69 69 67 64 62 61 61 63 64 63 62 62 62 61 62 62 62 62 63 62 62 62 63 64
68 70 71 71 71 71 71 72 72 71 71 70 70 70 69 70 69 69 70 70 69 67 64 62 61 62 64 63 63 63 63 62 61 61 61 61 61 61 61 61 60 60 59
69 70 71 71 71 71 70 70 72 72 71 70 70 69 69 69 69 69 70 70 68 66 63 62 62 63 63 63 63 63 62 60 60 60 61 61 62 61 62 61 61 61 61
69 70 70 71 71 71 71 70 70 71 71 70 70 70 69 68 69 67 67 69 68 66 63 63 62 62 62 62 62 63 61 60 59 60 61 62 63 62 62 62 62 62 61
69 69 69 70 70 70 70 70 69 70 71 70 70 69 69 68 68 67 67 68 68 67 66 65 63 63 63 62 61 61 61 61 59 60 61 62 63 62 62 62 62 62 61
66 68 69 69 69 69 70 70 70 70 70 70 70 69 68 68 68 67 64 65 67 67 68 66 65 65 64 62 60 59 59 58 58 59 60 63 63 62 62 61 61 61 60
62 65 68 68 68 68 69 69 69 70 69 69 69 68 68 67 67 64 62 65 67 68 68 67 67 67 65 61 59 58 56 56 58 59 60 63 62 61 61 61 61 61 60
60 62 65 66 67 67 67 67 67 68 68 68 68 67 66 65 64 61 61 63 66 66 66 66 66 64 61 58 56 55 55 54 54 59 59 63 63 62 62 62 62 62 62
58 61 61 63 65 66 66 66 67 68 68 67 67 66 63 63 62 61 61 63 63 65 65 64 63 61 59 56 54 53 52 52 53 57 59 61 64 63 63 64 65 65 65
56 60 61 61 62 65 65 65 67 66 67 66 65 64 64 63 62 61 60 63 63 64 63 63 61 59 56 55 54 54 54 53 53 55 58 59 61 63 63 63 64 64 64
51 58 60 61 61 62 62 64 65 66 66 66 65 64 64 63 63 62 62 62 62 63 62 62 60 57 55 54 54 54 53 53 53 54 55 56 60 60 62 63 63 63 63
42 55 59 61 60 61 61 61 63 65 66 66 65 64 64 64 63 63 63 62 62 63 62 61 60 58 56 55 54 53 52 53 55 55 56 55 56 59 61 63 63 63 64
44 53 57 60 60 60 60 61 61 62 64 65 65 65 64 64 64 64 63 62 62 62 62 61 59 56 56 55 54 52 53 54 54 55 57 56 55 56 57 60 63 64 64
46 50 56 58 59 60 60 60 61 61 62 62 64 65 64 63 64 64 63 62 62 61 60 59 57 56 55 53 52 53 53 54 54 55 56 57 57 57 57 58 61 62 60
43 50 55 57 57 57 58 60 61 61 61 61 61 63 63 63 63 63 63 62 61 60 59 57 56 56 55 53 53 54 54 54 54 54 55 55 56 58 58 58 59 59 57
46 52 57 58 58 58 58 58 57 57 60 61 61 60 61 63 62 62 61 59 59 59 58 57 55 55 55 55 54 55 56 56 55 55 56 55 56 57 58 58 58 57 59
46 54 57 59 59 58 58 58 58 58 59 60 60 61 59 60 61 61 60 60 59 58 58 57 56 55 55 56 55 55 53 54 56 57 57 56 56 56 56 55 55 56 58
52 55 57 58 59 60 59 59 60 60 60 60 60 60 59 59 60 61 61 61 58 59 58 58 57 57 55 57 58 55 53 51 53 55 55 56 55 55 54 54 55 56 56
52 54 55 57 58 59 60 60 59 58 58 59 59 60 59 59 59 60 60 60 60 60 59 59 59 58 57 56 58 59 58 55 52 50 53 53 54 54 53 53 54 54 56
51 53 53 53 54 57 58 59 59 58 59 60 60 60 60 61 60 60 60 60 60 60 60 59 60 59 59 58 58 58 58 57 55 52 51 51 53 53 53 53 53 53 54
51 53 53 53 52 56 57 58 59 58 58 59 59 59 59 59 60 61 61 60 60 60 60 60 60 60 59 59 58 57 56 55 55 54 52 51 51 51 52 53 52 52 53

GFSSE_sfc_30mbdewp_108.txt.gz
Dewpoint
67 71 72 72 72 71 71 71 72 72 72 72 71 71 70 69 67 65 67 67 69 68 64 65 62 67 65 64 64 66 67 67 68 67 66 67 67 67 67 65 64 64 64
68 72 72 73 72 72 71 71 72 72 72 71 70 70 70 68 66 66 66 68 69 67 63 63 65 64 67 67 64 65 66 67 67 68 67 67 67 67 67 66 66 65 64
69 71 72 73 73 72 71 72 72 72 71 71 70 69 68 66 67 67 69 69 69 66 64 64 62 64 64 64 64 65 66 66 66 66 65 66 66 67 67 67 67 66 67
70 71 70 73 73 72 71 71 72 71 71 71 69 69 67 66 68 68 70 69 68 67 65 65 63 64 64 64 64 62 64 64 65 64 64 64 64 65 64 63 63 65 65
69 70 70 73 73 72 72 71 72 71 71 71 71 70 68 66 68 69 70 69 68 66 65 65 64 64 63 63 63 62 62 63 64 63 63 63 63 63 64 63 63 62 63
69 70 71 72 72 72 72 72 72 71 70 70 71 70 69 68 68 70 69 69 68 66 65 64 63 63 64 64 63 63 63 63 62 62 62 63 63 63 63 63 64 64 63
69 69 71 71 72 72 72 72 72 71 71 70 70 70 69 70 70 70 69 69 67 65 63 61 63 64 64 64 63 63 63 62 61 61 61 61 61 61 61 61 60 60 60
69 70 71 71 71 72 72 72 72 72 71 70 70 70 69 69 70 70 70 69 67 64 62 61 63 64 64 64 63 64 63 61 60 60 61 61 63 62 62 62 61 61 61
68 69 70 70 71 71 71 72 72 72 72 71 70 70 70 68 69 70 70 69 67 64 63 63 63 64 63 64 64 64 61 60 60 61 61 62 63 62 62 62 62 62 61
66 67 69 70 70 70 70 70 71 72 71 71 70 70 69 68 68 69 69 69 68 65 64 64 64 63 63 63 63 63 62 60 59 60 61 62 63 62 62 62 62 62 61
60 65 67 69 69 70 70 69 69 71 71 70 70 69 68 68 68 68 69 69 68 66 65 65 64 64 64 63 61 61 62 59 58 59 61 62 63 62 62 62 62 61 61
47 59 65 68 69 69 69 69 69 69 70 70 70 69 68 68 67 66 65 68 68 67 67 66 66 66 64 61 60 59 57 58 58 59 59 62 64 62 62 62 61 61 61
45 56 62 66 67 67 66 68 68 69 69 68 69 68 67 67 66 64 63 66 67 67 67 67 67 65 62 59 57 57 55 55 55 59 59 61 64 62 62 62 62 62 62
39 49 60 62 63 66 67 67 67 68 68 67 67 67 66 66 65 62 61 64 66 67 66 66 65 63 60 57 56 55 54 53 53 54 59 60 63 63 63 63 63 64 65
38 48 56 61 63 63 65 66 66 67 67 67 67 66 65 64 64 61 61 63 64 64 65 64 63 61 58 56 55 54 53 52 52 53 57 58 60 63 64 63 64 65 65
35 45 54 61 62 63 64 64 65 66 67 67 66 65 64 63 63 61 60 63 63 63 63 63 62 60 57 55 53 54 53 54 53 53 54 57 58 61 63 64 64 64 64
35 39 49 59 62 62 62 63 65 66 66 66 65 65 64 63 63 62 62 62 63 63 62 62 61 59 57 55 54 54 54 53 54 53 54 55 56 58 60 62 63 64 64
39 41 48 59 61 61 61 62 62 64 66 66 66 65 64 64 64 63 63 63 63 63 62 62 60 59 57 55 54 54 54 53 53 55 55 56 56 55 57 59 62 64 64
39 42 48 56 59 60 61 61 61 62 63 65 65 65 64 64 64 64 63 63 63 62 61 61 60 59 57 55 54 54 53 53 54 54 55 56 57 56 56 56 59 61 63
42 44 48 54 58 60 60 60 60 61 61 62 63 65 64 64 64 64 63 63 63 62 61 59 59 57 57 55 54 53 53 54 54 54 54 56 56 57 57 57 58 59 61
41 41 47 52 56 58 58 59 59 59 60 61 61 62 64 63 63 63 63 63 62 59 61 60 58 58 56 56 54 53 55 55 54 54 54 55 55 55 57 58 58 59 58
39 40 47 53 56 57 57 57 57 57 58 59 60 61 61 63 63 63 62 62 60 59 59 59 59 57 55 56 54 55 52 54 56 57 57 56 55 56 57 57 58 57 58
40 41 46 53 57 57 58 58 58 58 58 58 59 59 60 60 62 62 61 61 60 58 57 57 58 57 55 56 56 54 53 51 53 55 56 57 56 55 56 56 56 56 57
42 46 49 54 57 57 58 58 57 56 56 57 58 59 60 60 60 62 61 60 59 58 57 58 58 58 56 55 57 58 58 55 52 50 53 53 54 54 55 54 54 56 57
46 50 53 56 57 59 59 58 57 56 57 58 59 59 59 60 59 61 61 60 60 59 58 58 58 58 58 56 56 57 58 57 56 53 51 52 53 53 54 54 55 55 55
48 50 52 53 54 57 58 58 58 57 57 58 59 59 60 60 59 60 60 61 60 59 59 59 59 59 58 58 58 57 56 55 55 55 53 53 52 52 53 53 53 54 54

GFSSE_sfc_30mbdewp_111.txt.gz
Dewpoint
67 71 72 72 71 71 72 72 72 72 72 72 71 70 70 69 67 66 67 69 68 66 63 62 63 67 66 64 65 67 68 67 66 67 68 68 67 67 64 65 65 64 66
67 71 72 72 72 72 72 72 72 72 72 71 70 70 69 68 67 67 67 69 68 65 63 66 67 65 63 64 66 65 66 67 67 68 68 68 68 67 66 65 65 64 64
68 71 70 72 72 72 72 72 72 72 72 71 71 70 69 68 66 66 68 69 67 65 64 65 66 68 64 64 65 65 66 67 67 67 66 66 66 67 67 67 67 67 67
69 71 69 73 72 72 71 71 71 71 71 71 70 70 68 67 67 67 69 69 67 65 65 64 64 65 64 64 65 66 66 66 66 66 64 64 65 65 64 64 64 65 65
70 70 70 72 72 72 72 71 71 71 71 70 70 69 68 68 67 70 70 69 68 66 66 65 64 64 64 64 63 63 64 65 65 64 63 64 63 63 62 64 63 63 63
69 70 70 71 72 72 71 71 71 71 71 71 71 69 68 68 68 70 69 69 67 67 66 65 65 64 64 64 63 62 62 64 63 63 63 64 62 64 64 64 64 64 63
69 70 69 71 71 72 71 71 71 71 71 71 71 70 69 69 70 69 69 68 67 67 66 65 64 65 65 65 64 63 63 63 61 61 61 62 61 61 61 61 60 60 60
68 69 70 70 70 71 71 72 72 72 71 71 71 71 70 69 70 70 69 68 67 65 64 63 64 65 65 64 64 64 63 61 60 60 61 62 63 62 62 62 61 61 61
66 69 69 69 69 69 70 71 71 72 71 71 71 70 70 70 68 70 69 68 65 64 63 64 65 65 65 64 65 64 62 61 59 60 61 62 63 62 62 62 62 62 61
57 65 68 68 69 69 69 70 71 71 71 71 70 70 70 69 68 69 69 68 66 64 64 65 66 65 64 65 66 63 61 60 59 60 61 61 63 62 63 63 62 62 61
42 52 62 68 68 69 69 70 70 70 71 71 70 69 69 68 68 68 68 68 67 65 65 65 66 65 65 64 64 63 62 58 58 59 60 62 64 63 62 62 62 62 61
36 41 56 63 68 68 69 69 68 70 70 69 69 69 68 68 68 67 68 68 67 66 66 65 65 66 64 61 60 61 60 59 58 59 59 61 65 63 62 62 62 61 61
36 41 46 58 64 68 68 67 68 68 69 70 69 69 68 68 67 67 67 68 67 66 63 64 64 63 62 60 59 58 58 58 58 59 59 60 64 63 62 62 62 62 62
36 36 42 55 62 64 66 67 67 67 68 69 69 69 68 68 67 65 64 66 66 66 65 65 66 64 62 59 57 56 56 56 55 55 59 60 62 64 62 62 63 63 64
35 38 38 51 60 63 65 66 67 66 67 67 68 68 68 67 66 65 63 64 65 65 65 64 64 63 61 58 56 55 54 53 53 53 55 58 60 62 64 64 64 65 65
36 37 42 48 58 61 64 65 65 66 66 67 67 68 67 66 66 64 62 62 63 64 65 64 63 62 59 57 55 54 53 53 53 53 53 55 58 60 62 64 65 65 64
36 37 40 44 55 61 62 64 65 66 67 67 67 66 66 66 65 64 62 62 63 64 64 63 62 61 59 57 55 53 54 54 54 54 54 54 55 57 59 62 62 64 65
37 37 39 43 53 59 62 63 64 65 66 66 66 66 65 65 65 64 63 63 64 64 63 62 61 60 59 57 55 54 53 54 54 53 54 55 56 56 57 59 61 63 64
38 39 40 45 52 57 60 62 62 63 65 66 66 66 65 64 64 64 63 63 63 63 63 62 61 60 59 58 56 54 54 55 55 53 54 55 56 57 57 57 58 60 61
40 40 42 45 50 56 58 61 61 62 63 65 65 65 64 64 64 64 64 63 63 63 62 61 61 59 59 59 57 54 55 55 54 54 54 55 56 57 58 58 58 58 59
42 42 43 45 49 56 57 58 60 59 61 63 64 65 64 64 64 64 64 63 63 62 62 61 60 59 58 58 57 56 55 55 54 54 55 55 55 56 57 58 58 58 58
39 42 42 45 49 54 56 57 60 60 60 61 62 63 64 64 64 64 63 63 62 62 61 60 59 57 59 57 56 55 53 53 56 56 56 55 55 56 57 57 58 59 59
40 41 40 42 47 52 56 58 58 58 59 59 60 60 61 63 64 64 63 63 63 62 59 58 58 59 56 57 56 54 52 51 53 56 57 57 57 56 57 57 57 58 59
41 42 42 42 47 52 56 56 57 57 56 57 57 59 59 61 61 63 63 63 62 61 60 59 59 58 57 55 57 57 56 56 53 51 53 54 55 55 56 57 56 57 58
44 45 45 45 49 53 56 55 56 56 57 57 58 58 59 59 60 60 62 62 61 61 60 58 58 58 57 54 55 56 56 57 57 54 52 53 53 54 55 56 56 56 57
50 48 49 50 52 55 55 56 55 55 56 56 58 58 59 59 60 60 60 61 61 60 60 59 58 58 57 57 57 57 55 55 55 55 54 53 53 55 54 55 55 56 57

GFSSE_sfc_30mbdewp_114.txt.gz
Dewpoint
66 68 71 72 71 72 72 72 72 72 72 71 70 70 70 69 66 67 69 66 66 65 63 63 66 68 65 66 67 68 68 67 67 68 68 68 67 64 65 65 66 64 66
67 68 71 72 72 72 73 73 72 73 72 72 71 71 70 68 66 68 69 68 65 64 63 64 67 66 65 66 67 67 67 67 68 68 68 68 67 64 64 65 63 64 65
67 68 69 72 72 72 72 72 72 73 72 71 71 70 69 68 66 67 69 68 66 65 67 67 65 63 65 66 65 66 67 67 68 67 66 65 66 68 67 67 67 67 67
67 68 68 71 72 72 72 72 72 72 71 70 71 70 69 68 66 67 69 69 67 66 67 68 68 65 64 65 65 66 67 67 67 65 62 64 63 65 65 65 66 65 65
67 69 67 70 71 71 72 72 72 71 71 70 70 70 69 67 66 66 69 69 67 66 67 66 66 65 65 65 66 66 66 66 65 63 61 61 60 63 64 64 64 64 64
67 68 68 70 70 71 71 71 71 72 71 70 70 70 69 68 67 69 69 68 68 67 67 65 65 65 64 63 63 63 65 65 64 60 58 60 59 64 64 64 64 63 62
69 69 68 70 70 71 71 71 71 71 71 71 71 70 69 69 69 70 69 68 68 67 66 65 65 65 65 64 63 63 64 63 56 56 57 57 60 62 62 61 61 61 60
66 69 67 69 70 70 71 71 71 71 71 71 71 70 69 69 70 70 69 68 68 67 65 65 65 65 65 65 64 64 63 60 55 54 56 58 62 62 62 62 62 61 61
56 67 68 67 68 69 69 69 70 70 71 71 71 71 70 69 69 70 69 68 67 66 66 66 65 65 65 65 64 64 62 59 54 55 56 58 63 62 62 62 62 62 61
40 49 65 67 66 65 66 69 69 70 70 70 71 70 69 69 69 69 68 68 67 66 65 66 66 65 65 66 66 64 62 59 54 56 56 59 63 63 63 63 62 62 61
38 41 47 63 66 64 65 66 69 69 69 69 69 69 68 66 66 66 67 67 66 65 65 66 67 66 65 66 66 63 60 54 54 54 55 62 65 63 63 63 62 62 61
36 37 41 45 62 67 65 65 66 66 67 66 66 66 66 65 64 65 66 67 66 66 65 66 67 66 64 58 60 62 58 56 56 56 55 61 65 63 63 62 62 62 61
36 37 39 41 50 64 67 66 64 63 65 64 64 64 64 63 64 65 67 67 65 65 62 63 64 61 58 57 56 56 56 57 55 56 57 59 63 64 63 62 62 62 62
33 36 37 39 43 55 66 67 65 62 62 64 65 65 64 63 63 64 64 66 64 63 61 58 57 56 58 57 56 55 56 55 54 54 56 59 61 63 63 63 63 63 63
33 35 36 39 41 50 60 66 66 64 63 63 64 64 63 63 62 63 63 64 64 62 61 59 57 58 58 55 54 53 53 54 53 53 53 57 59 62 63 64 64 64 65
34 34 36 37 39 46 55 63 66 66 63 63 63 63 63 62 62 62 62 62 63 62 62 60 56 54 55 56 54 52 51 51 52 52 52 53 57 60 61 63 65 65 65
33 34 36 37 38 40 50 59 65 66 66 65 65 64 63 65 63 63 63 62 62 62 63 63 61 59 57 56 54 52 51 50 50 51 52 54 54 57 58 61 62 63 64
36 36 35 36 36 37 45 54 62 65 65 66 66 66 66 65 65 64 64 62 62 62 63 62 61 60 58 56 54 52 50 50 52 52 52 53 55 54 57 58 61 62 63
37 36 37 39 39 36 42 50 58 64 65 66 66 66 65 65 66 66 65 63 63 63 65 64 62 61 60 60 57 54 51 50 51 52 52 51 54 56 56 57 58 60 61
39 38 37 39 40 37 40 49 58 62 63 65 65 65 65 65 64 64 65 64 64 64 63 63 62 62 61 59 57 55 53 51 52 53 53 52 52 54 57 57 58 58 58
41 41 40 39 40 40 39 48 55 59 61 63 65 64 64 64 64 64 64 64 64 64 63 62 62 61 60 60 58 58 58 56 53 54 54 53 52 54 56 57 58 58 58
41 41 41 40 40 41 40 44 52 57 60 63 63 64 64 64 64 64 64 64 63 63 63 63 62 61 60 59 56 54 49 49 52 53 53 52 53 53 55 56 56 58 58
42 41 41 41 41 41 43 47 54 57 60 61 62 63 63 63 63 64 64 64 64 63 62 62 62 61 57 57 57 52 48 48 47 56 54 54 54 54 56 56 57 58 59
45 45 43 42 41 42 44 48 51 55 56 59 59 61 62 62 64 64 64 64 63 63 62 62 62 61 59 56 57 57 55 51 49 49 55 55 56 56 57 58 57 58 59
48 47 47 45 43 41 45 47 48 52 55 58 59 59 60 61 61 62 63 63 62 62 62 62 61 61 60 58 57 56 56 56 54 52 48 51 54 55 56 57 57 57 58
48 51 51 48 45 42 45 48 48 51 54 56 57 58 57 58 59 59 59 60 61 61 61 60 61 60 60 59 57 56 55 55 54 54 54 53 54 54 56 57 57 57 57

GFSSE_sfc_30mbdewp_117.txt.gz
Dewpoint
64 69 71 72 72 72 73 72 72 72 72 71 69 70 70 69 66 66 65 66 65 64 64 65 66 68 66 67 68 68 68 68 69 69 68 66 64 65 66 65 65 64 65
63 67 71 72 72 72 72 73 71 71 72 71 70 70 70 68 66 69 67 66 65 64 64 66 68 65 67 67 68 67 67 68 68 68 68 66 65 64 65 67 64 65 67
64 66 69 72 72 72 72 72 71 71 72 71 71 71 69 67 66 68 70 67 66 64 64 66 66 67 67 66 66 66 67 68 67 67 66 66 67 68 67 67 68 67 67
65 67 68 71 72 72 72 72 72 72 72 71 70 71 70 68 67 68 70 68 67 66 68 67 66 65 66 66 66 66 67 67 66 65 64 63 64 66 66 65 65 65 65
67 67 68 70 71 72 72 72 72 72 71 71 70 70 70 69 67 67 69 68 68 68 68 68 66 65 65 66 66 66 67 66 65 62 59 60 60 65 64 64 64 64 63
67 68 70 70 70 71 72 72 72 72 71 70 70 70 70 68 66 67 69 67 68 68 67 66 66 65 65 66 66 66 65 65 64 57 59 59 62 64 64 64 63 62 61
65 67 68 70 70 70 71 71 72 71 71 70 70 70 69 68 68 69 69 68 68 68 67 66 65 65 65 64 63 63 65 63 60 55 56 57 61 62 62 61 61 61 61
55 66 68 69 69 69 70 70 70 71 71 70 70 70 69 70 70 70 70 69 67 67 66 65 65 65 65 65 64 64 63 60 54 53 55 59 62 62 62 62 62 61 61
45 52 67 68 68 69 69 69 69 69 69 69 70 70 70 69 69 70 70 68 67 67 66 66 65 66 65 65 65 64 61 59 57 53 55 59 63 63 62 62 62 62 61
40 44 52 65 66 66 66 69 69 69 69 69 70 69 69 68 69 68 69 68 67 67 67 67 66 66 65 65 66 64 60 58 56 55 54 62 63 63 63 63 62 62 61
39 39 43 52 64 65 65 67 69 69 69 69 69 69 68 67 66 66 66 67 67 67 66 67 67 66 66 67 66 62 60 54 52 53 54 62 64 63 63 63 63 62 61
35 38 39 42 49 64 66 64 66 67 67 66 65 66 66 65 64 64 65 67 67 66 66 67 67 67 65 60 63 62 58 55 54 54 56 61 65 64 63 63 63 62 62
32 34 38 39 41 50 65 66 64 64 65 65 64 63 64 62 62 64 67 67 65 65 62 65 65 63 59 55 56 57 56 55 53 54 57 60 63 65 63 63 63 63 62
32 33 36 38 38 41 55 66 66 62 63 63 63 62 62 61 61 62 65 67 66 64 61 59 58 58 57 55 55 54 54 54 54 53 57 58 60 62 64 63 63 63 63
31 34 37 37 38 39 46 59 66 65 60 59 61 62 62 62 61 61 64 65 66 64 61 58 56 55 54 56 55 53 52 53 53 52 52 58 59 61 63 64 64 64 64
33 34 36 36 37 39 41 51 63 66 64 61 61 62 62 61 62 61 60 64 64 64 62 59 56 54 54 55 53 52 51 50 50 51 51 55 57 59 61 62 64 65 65
32 34 35 37 37 37 39 47 54 65 66 65 63 63 62 62 61 60 60 60 63 64 62 61 58 55 53 52 53 52 51 49 49 49 49 52 55 56 58 61 62 63 64
36 37 37 36 35 35 37 42 50 61 65 66 66 65 64 63 63 63 62 62 62 63 63 62 60 57 55 54 53 52 51 50 49 49 50 51 53 54 57 58 60 62 63
38 38 38 38 38 36 34 37 46 54 64 65 66 65 65 65 65 65 64 63 63 63 63 63 61 60 57 55 54 54 52 51 49 49 50 51 52 54 55 58 58 59 60
41 40 40 38 37 38 37 36 44 51 62 65 65 65 65 65 65 65 65 65 64 64 63 64 63 62 60 59 58 56 56 53 51 51 51 51 51 53 55 57 59 59 59
42 41 41 40 38 39 39 37 42 48 57 63 65 65 64 64 65 64 65 65 65 64 63 63 63 61 61 61 59 59 58 57 55 52 53 53 53 53 53 55 58 59 59
42 42 41 41 40 39 40 40 40 48 54 59 63 64 64 64 64 63 64 64 64 64 63 63 62 61 61 61 59 57 54 53 56 56 53 53 54 53 53 54 56 58 59
45 42 42 42 42 41 41 42 42 48 54 57 60 62 64 63 63 63 63 64 64 64 63 63 63 62 61 61 60 56 51 49 47 50 52 53 52 52 53 54 56 57 58
44 48 46 44 42 42 42 42 42 47 52 56 59 62 63 64 63 64 63 64 64 64 63 63 63 62 62 60 60 59 57 54 50 48 50 52 54 53 55 55 56 57 59
43 46 49 47 45 43 42 43 44 46 50 53 57 59 61 63 63 64 64 64 64 64 63 63 62 62 62 61 60 58 57 56 55 53 51 50 54 55 57 57 58 58 58
44 44 49 49 48 46 43 42 44 46 47 52 55 58 60 61 62 63 63 63 63 63 62 62 62 62 61 60 60 59 57 56 55 55 53 52 50 52 56 57 57 57 58

GFSSE_sfc_30mbdewp_120.txt.gz
Dewpoint
66 70 71 72 73 73 73 73 72 72 71 71 69 70 70 66 65 65 65 65 65 64 65 66 67 66 67 68 68 68 69 69 69 68 66 66 66 65 65 66 66 66 65
64 69 72 72 73 73 73 72 72 72 72 71 69 70 70 67 67 66 67 66 65 64 66 67 67 67 68 68 67 67 68 68 68 67 65 65 65 66 67 67 67 67 66
66 68 71 72 73 73 73 73 72 72 72 71 71 71 68 67 67 69 67 66 65 64 66 68 66 67 67 67 66 65 68 68 67 67 67 68 68 67 68 67 68 67 65
68 69 69 72 73 73 72 72 72 72 72 71 70 70 69 67 67 69 69 67 66 66 67 67 67 67 66 65 64 66 67 67 65 65 65 65 65 66 66 66 66 65 64
67 69 69 71 71 73 72 72 72 72 72 71 70 70 70 68 67 68 70 68 68 69 69 67 66 66 66 66 66 67 67 65 65 64 62 63 64 65 66 64 64 63 63
64 68 70 70 70 72 72 72 72 72 71 71 70 70 69 69 67 67 69 68 69 69 69 67 66 66 66 66 66 66 65 65 63 59 59 64 64 64 64 62 62 62 62
53 63 69 69 69 69 70 72 72 72 71 71 69 69 70 69 68 68 69 68 68 68 68 67 65 65 65 64 63 65 64 62 60 57 58 62 63 62 61 61 62 61 61
47 50 67 69 69 69 68 69 70 71 71 70 70 70 70 70 69 69 69 68 67 68 67 66 65 65 65 64 64 63 61 60 58 55 61 62 62 62 62 62 62 62 61
43 46 54 65 69 69 68 69 69 69 69 70 69 69 70 70 69 69 69 69 67 68 67 66 66 65 65 65 66 64 59 57 57 57 61 62 63 63 62 62 62 62 61
42 43 44 51 65 68 67 69 69 69 69 68 69 69 69 69 69 70 69 68 67 67 67 67 66 66 66 66 66 63 59 56 56 56 61 62 63 63 63 63 62 62 61
40 41 42 43 48 58 67 68 68 69 69 68 68 69 69 68 68 68 69 68 67 67 67 67 67 67 66 66 65 63 59 55 54 55 62 64 63 63 63 63 63 62 61
36 38 41 41 43 46 60 66 68 68 68 68 67 68 68 68 67 66 67 67 67 67 67 67 67 67 66 66 65 62 60 57 57 54 61 63 64 63 63 63 63 62 62
34 36 38 41 42 43 47 65 67 67 68 67 66 65 67 66 66 65 66 67 67 66 66 67 68 66 64 62 63 61 59 58 55 55 60 62 63 64 63 63 63 63 62
32 34 37 39 40 42 44 53 66 66 66 66 65 65 65 65 63 65 67 67 66 65 62 65 65 65 62 60 58 59 58 57 55 55 59 59 61 62 64 64 64 63 63
33 35 37 40 40 41 42 48 62 66 66 64 64 64 63 63 62 64 67 67 67 65 62 61 59 60 60 58 56 55 54 54 54 54 58 58 59 61 62 64 64 64 64
33 34 37 39 40 41 41 43 53 64 66 66 63 63 62 62 62 62 65 67 67 66 64 61 59 56 56 56 56 55 53 52 53 53 54 58 59 60 61 62 63 65 64
34 35 38 40 41 39 40 41 45 60 63 66 66 63 62 62 62 61 62 65 65 65 64 62 58 56 54 55 55 54 52 51 50 50 51 55 57 58 59 62 62 62 64
39 38 39 40 39 40 39 40 43 50 63 65 66 66 64 63 63 62 61 63 65 65 64 63 62 56 55 54 54 53 52 52 50 49 49 50 55 55 57 59 62 63 63
42 42 42 41 41 39 38 38 40 47 60 64 65 66 65 65 64 64 64 63 63 64 64 63 62 61 57 55 54 54 53 52 51 50 49 50 51 54 56 57 58 60 61
44 44 43 43 41 40 39 39 38 41 51 64 65 66 65 65 65 64 64 64 64 63 63 63 62 62 60 57 56 55 55 55 53 51 50 51 51 53 54 56 58 58 59
42 44 44 42 42 42 39 40 39 38 48 62 64 64 65 65 65 65 64 64 64 64 63 64 63 61 61 60 59 59 58 57 56 55 52 51 52 53 54 55 57 59 59
41 43 44 43 43 42 42 41 41 40 47 58 63 63 64 64 65 65 64 64 64 63 64 64 63 62 62 62 59 58 56 56 58 57 56 53 53 54 54 53 55 57 59
41 42 43 46 43 44 43 43 42 44 48 54 57 61 62 64 64 64 64 64 64 63 63 63 63 62 61 62 62 58 55 52 51 55 57 55 53 53 54 54 53 56 58
43 42 43 45 48 45 44 44 43 42 44 53 55 56 61 63 63 64 64 64 64 63 63 63 63 62 62 60 61 61 60 56 52 50 52 54 53 53 53 54 54 56 57
45 44 43 44 47 48 45 44 44 43 44 52 54 56 60 62 63 63 63 63 64 63 63 63 63 62 62 61 60 59 60 59 58 56 53 52 54 55 56 56 56 56 57
43 46 47 45 48 50 47 45 43 44 45 49 51 54 57 59 60 63 63 63 63 64 63 63 63 62 62 62 61 61 59 56 56 56 54 54 52 53 55 56 57 58 58

GFSSE_sfc_30mbdewp_123.txt.gz
Dewpoint
65 69 71 72 73 73 73 72 72 72 71 70 70 70 67 65 66 66 66 66 64 64 65 65 65 67 68 68 69 69 68 69 67 66 67 68 66 66 66 66 67 65 65
67 69 70 72 73 73 73 73 72 72 72 71 70 70 67 66 66 67 66 65 65 65 67 68 66 66 68 68 68 67 68 68 66 65 66 66 67 67 66 68 67 66 65
67 69 69 72 73 73 73 72 72 72 72 70 70 70 68 67 68 67 67 66 65 66 68 67 67 68 67 66 66 67 68 68 66 67 67 68 68 68 67 68 67 65 64
67 69 70 72 72 72 72 72 72 72 72 71 71 70 68 66 69 69 67 66 66 66 68 68 67 67 65 64 66 67 67 66 65 65 66 66 65 66 66 66 65 64 63
63 68 70 71 71 72 71 71 71 71 71 71 70 69 68 67 67 69 69 68 68 68 69 68 67 67 66 65 66 66 66 66 65 63 64 65 65 65 65 64 63 63 63
55 61 70 70 70 71 71 71 71 72 71 70 70 70 68 69 67 68 69 68 69 69 68 67 66 67 67 66 66 66 65 64 61 62 64 65 64 65 63 62 62 62 62
47 52 68 70 69 69 71 71 70 71 71 70 70 70 69 70 68 68 69 68 69 69 68 67 66 66 67 66 66 64 63 61 59 60 63 63 63 62 61 62 62 62 62
44 47 55 69 69 69 69 71 70 70 70 70 69 69 69 70 69 69 70 68 69 68 67 67 65 65 64 63 63 62 60 59 58 60 61 62 63 62 62 62 62 62 61
42 43 45 53 69 69 68 68 69 70 70 70 70 69 69 69 70 70 70 69 68 68 68 67 65 65 65 64 65 63 57 56 56 58 61 62 63 62 62 63 62 62 61
40 42 42 43 48 64 68 68 69 69 69 69 69 69 68 69 69 69 69 69 68 68 68 67 66 66 66 67 66 63 58 56 56 57 61 62 64 63 63 63 62 62 61
37 38 42 41 42 45 56 68 68 69 69 68 68 69 68 69 69 69 69 69 68 68 68 67 67 67 66 66 66 63 59 55 54 56 61 64 64 63 63 63 62 62 61
31 35 38 39 40 42 45 58 68 68 69 68 68 68 68 68 68 68 68 68 68 68 67 68 67 67 66 66 65 63 59 56 55 56 62 64 64 63 63 63 63 62 62
32 34 37 39 41 42 42 47 64 68 68 68 67 67 68 68 67 67 67 67 67 67 67 68 68 67 65 65 65 63 59 58 57 57 62 64 64 63 63 63 63 63 63
31 33 35 36 37 39 41 43 49 65 67 67 67 66 67 66 66 66 66 66 67 66 66 66 66 66 65 63 63 63 60 57 57 56 61 62 64 62 63 64 64 63 63
31 33 35 37 39 40 40 41 45 55 65 67 67 66 65 66 65 65 66 66 66 65 64 64 65 65 64 62 60 60 60 57 56 55 59 61 62 63 63 63 64 64 64
33 34 35 37 40 41 40 40 42 47 61 65 66 66 65 65 65 64 66 66 66 65 63 61 62 62 62 61 59 57 57 55 55 54 57 59 60 61 63 63 63 64 64
38 37 37 38 39 40 41 40 40 42 47 63 65 66 64 64 63 63 66 66 66 66 63 62 60 59 59 58 57 56 55 54 53 53 53 57 59 59 60 62 63 63 64
43 44 44 42 41 40 40 40 40 41 44 55 63 64 65 64 63 62 63 66 66 66 65 64 61 59 56 56 55 55 55 54 52 51 50 53 56 58 59 61 63 64 64
41 42 43 45 44 42 41 40 40 40 43 51 60 63 64 65 64 63 63 63 66 65 65 64 63 59 56 55 54 55 54 53 52 51 50 49 52 55 55 57 60 61 63
41 41 41 42 45 44 42 41 40 40 41 46 59 62 63 65 65 64 64 64 65 65 64 64 63 62 60 56 54 54 54 54 53 52 50 50 50 52 55 55 56 59 60
40 41 41 42 42 45 43 41 40 39 39 43 53 62 64 64 65 64 64 64 65 64 63 64 63 62 61 60 58 57 58 56 55 55 54 52 51 51 53 55 56 57 57
42 42 42 42 42 45 45 42 42 40 41 45 53 60 63 63 64 65 64 64 64 64 63 63 62 61 61 62 59 58 56 56 58 58 57 55 53 52 52 54 55 56 58
41 42 44 45 43 43 47 44 43 44 45 48 55 59 61 62 62 63 64 64 63 63 63 63 63 62 60 62 61 59 56 54 53 55 58 57 56 54 53 52 54 55 56
41 42 43 46 43 44 47 46 44 43 41 44 50 56 58 60 61 62 64 64 63 63 62 63 64 63 62 60 62 62 60 57 52 50 53 56 56 55 54 54 54 54 55
42 42 43 45 46 45 47 47 45 43 44 44 49 54 55 57 59 59 62 62 63 63 62 62 62 62 62 60 60 61 61 60 60 57 54 54 54 54 54 53 54 54 54
41 42 43 45 48 47 50 49 45 44 43 44 46 51 53 56 59 60 61 61 63 63 63 63 62 62 62 61 60 60 58 57 58 57 55 55 55 55 54 56 56 56 56